[[{"header":{"parameterUnit":"m.s-1","parameterCategory":1,"la1":30.6,"la2":29.2853,"lo1":-89.7004,"lo2":-87.6739,"dy":0.0162,"dx":0.0183,"nx":112,"ny":82,"refTime":"2024-06-20T06:00:00:Z","depth":0,"parameterNumber":2,"parameterNumberName":"U-component_of_WINDS"},"data":[0.0,0.0,0.0,0.0,0.0,0.0,0.0,0.0,0.0,0.0,0.0,0.0,0.0,0.0,0.0,0.0,0.0,0.0,0.0,0.0,0.0,0.0,0.0,0.0,0.0,0.0,0.0,0.0,0.0,0.0,0.0,0.0,0.0,0.0,0.0,0.0,0.0,0.0,0.0,0.0,0.0,0.0,0.0,0.0,0.0,0.0,0.0,0.0,0.0,0.0,0.0,0.0,0.0,0.0,0.0,0.0,0.0,0.0,0.0,0.0,0.0,0.0,0.0,0.0,0.0,0.0,0.0,0.0,0.0,0.0,0.0,0.0,0.0,0.0,0.0,0.0,0.0,0.0,0.0,0.0,0.0,0.0,0.0,0.0,0.0,0.0,0.0,0.0,0.0,0.0,0.0,-0.1866,-0.2054,-0.1879,-0.1316,-0.1744,-0.1581,-0.0599,0.0,0.0,0.0,0.0,0.0,0.0,0.0,0.0,0.0,0.0,0.0,0.0,0.0,0.0,0.0,0.0,0.0,0.0,0.0,0.0,0.0,0.0,0.0,0.0,0.0,0.0,0.0,0.0,0.0,0.0,0.0,0.0,0.0,0.0,0.0,0.0,0.0,0.0,0.0,0.0,0.0,0.0,0.0,0.0,0.0,0.0,0.0,0.0,0.0,0.0,0.0,0.0,0.0,0.0,0.0,0.0,0.0,0.0,0.0,0.0,0.0,0.0,0.0,0.0,0.0,0.0,0.0,0.0,0.0,0.0,0.0,0.0,0.0,0.0,0.0,0.0,0.0,0.0,0.0,0.0,0.0,0.0,0.0,0.0,0.0,0.0,0.0,0.0,0.0,0.0,0.0,0.0,0.0,0.0,0.0,0.0,0.0,0.0,0.0,0.0,0.0,0.0,0.0,0.0,-0.1221,-0.1418,-0.1116,-0.0844,-0.0732,-0.0785,-0.0543,-0.0,0.0,0.0,0.0,0.0,0.0,0.0,0.0,0.0,0.0,0.0,0.0,0.0,0.0,0.0,0.0,0.0,0.0,0.0,0.0,0.0,0.0,0.0,0.0,0.0,0.0,0.0,0.0,0.0,0.0,0.0,0.0,0.0,0.0,0.0,0.0,0.0,0.0,0.0,0.0,0.0,0.0,0.0,0.0,0.0,0.0,0.0,0.0,0.0,0.0,0.0,0.0,0.0,0.0,0.0,0.0,0.0,0.0,0.0,0.0,0.0,0.0,0.0,0.0,0.0,0.0,0.0,0.0,0.0,0.0,0.0,0.0,0.0,0.0,0.0,0.0,0.0,0.0,0.0,0.0,0.0,0.0,0.0,0.0,0.0,0.0,0.0,0.0,0.0,0.0,0.0,0.0,0.0,0.0,0.0,0.0,0.0,0.0,0.0,0.0,0.0,0.0,0.0,0.0,-0.0668,-0.0738,-0.0424,-0.053,-0.0462,-0.0073,-0.036,-0.0344,0.0187,-0.0114,0.0,0.0,0.0,0.0,0.0,0.0,0.0,0.0,0.0,0.0,0.0,0.0,0.0,0.0,0.0,0.0,0.0,0.0,0.0,0.0,0.0,0.0,0.0,0.0,0.0,0.0,0.0,0.0,0.0,0.0,0.0,0.0,0.0,0.0,0.0,0.0,0.0,0.0,0.0,0.0,0.0,0.0,0.0,0.0,0.0,0.0,0.0,0.0,0.0,0.0,0.0,0.0,0.0,0.0,0.0,0.0,0.0,0.0,0.0,0.0,0.0,0.0,0.0,0.0,0.0,0.0,0.0,0.0,0.0,0.0,0.0,0.0,0.0,0.0,0.0,0.0,0.0,0.0,0.0,0.0,0.0,0.0,0.0,0.0,0.0,0.0,0.0,0.0,0.0,0.0,0.0,0.0,0.0,0.0,0.0,0.0,0.0,0.0,0.0,0.0,0.0,0.0,-0.0377,-0.0135,0.0365,0.0077,0.0077,0.0512,0.0072,-0.0,0.0373,0.0278,0.0,0.0,0.0,0.0,0.0,0.0,0.0,0.0,0.0,0.0,0.0,0.0,0.0,0.0,0.0,0.0,0.0,0.0,0.0,0.0,0.0,0.0,0.0,0.0,0.0,0.0,0.0,0.0,0.0,0.0,0.0,0.0,0.0,0.0,0.0,0.0,0.0,0.0,0.0,0.0,0.0,0.0,0.0,0.0,0.0,0.0,0.0,0.0,0.0,0.0,0.0,0.0,0.0,0.0,0.0,0.0,0.0,0.0,0.0,0.0,0.0,0.0,0.0,0.0,0.0,0.0,0.0,0.0,0.0,0.0,0.0,0.0,0.0,0.0,0.0,0.0,0.0,0.0,0.0,0.0,0.0,0.0,0.0,0.0,0.0,0.0,0.0,0.0,0.0,0.0,0.0,0.0,0.0,0.0,0.0,0.0,0.0,0.0,0.0,0.0,0.0,0.0,0.0196,0.0356,0.0375,0.0851,0.1155,0.1172,0.1045,0.0989,0.093,0.0798,0.0,0.0,0.0,0.0,0.0,0.0,0.0,0.0,0.0,0.0,0.0,0.0,0.0,0.0,0.0,0.0,0.0,0.0,0.0,0.0,0.0,0.0,0.0,0.0,0.0,0.0,0.0,0.0,0.0,0.0,0.0,0.0,0.0,0.0,0.0,0.0,0.0,0.0,0.0,0.0,0.0,0.0,0.0,0.0,0.0,0.0,0.0,0.0,0.0,0.0,0.0,0.0,0.0,0.0,0.0,0.0,0.0,0.0,0.0,0.0,0.0,0.0,0.0,0.0,0.0,0.0,0.0,0.0,0.0,0.0,0.0,0.0,0.0,0.0,0.0,0.0,0.0,0.0,0.0,0.0,0.0,0.0,0.0,0.0,0.0,0.0,0.0,0.0,0.0,0.0,0.0,0.0,0.0,0.0,0.0,0.0,0.0,0.0,0.0,0.0,0.0,0.0,0.0708,0.0843,0.0,0.1162,0.1309,0.1172,0.1128,0.1063,0.0966,0.0,0.0,0.0,0.0,0.0,0.0,0.0,0.0,0.0,0.0,0.0,0.0,0.0,0.0,0.0,0.0,0.0,0.0,0.0,0.0,0.0,0.0,0.0,0.0,0.0,0.0,0.0,0.0,0.0,0.0,0.0,0.0,0.0,0.0,0.0,0.0,0.0,0.0,0.0,0.0,0.0,0.0,0.0,0.0,0.0,0.0,0.0,0.0,0.0,0.0,0.0,0.0,0.0,0.0,0.0,0.0,0.0,0.0,0.0,0.0,0.0,0.0,0.0,0.0,0.0,0.0,0.0,0.0,0.0,0.0,0.0,0.0,0.0,0.0,0.0,0.0,0.0,0.0,0.0,0.0,0.0,0.0,0.0,0.0,0.0,0.0,0.0,0.0,0.0,0.0,0.0,0.0,0.0,0.0,0.0,0.0,0.0,0.0,0.0,0.0,0.0,0.0,0.0893,0.1049,0.1136,0.0,0.1245,0.1309,0.1172,0.1121,0.105,0.089,0.0,0.0,0.0,0.0,0.0,0.0,0.0,0.0,0.0,0.0,0.0,0.0,0.0,0.0,0.0,0.0,0.0,0.0,0.0,0.0,0.0,0.0,0.0,0.0,0.0,0.0,0.0,0.0,0.0,0.0,0.0,0.0,0.0,0.0,0.0,0.0,0.0,0.0,0.0,0.0,0.0,0.0,0.0,0.0,0.0,0.0,0.0,0.0,0.0,0.0,0.0,0.0,0.0,0.0,0.0,0.0,0.0,0.0,0.0,0.0,0.0,0.0,0.0,0.0,0.0,0.0,0.0,0.0,0.0,0.0,0.0,0.0,0.0,0.0,0.0,0.0,0.0,0.0,0.0,0.0,0.0,0.0,0.0,0.0,0.0,0.0,0.0,0.0,0.0,0.0,0.0,0.0,0.0,0.0,0.0,0.0,0.0,0.0,0.0,0.0,0.0,0.0,0.1014,0.1111,0.119,0.1329,0.1335,0.1309,0.1172,0.1085,0.0945,0.0,0.0,0.0,0.0,0.0,0.0,0.0,0.0,0.0,0.0,0.0,0.0,0.0,0.0,0.0,0.0,0.0,0.0,0.0,0.0,0.0,0.0,0.0,0.0,0.0,0.0,0.0,0.0,0.0,0.0,0.0,0.0,0.0,0.0,0.0,0.0,0.0,0.0,0.0,0.0,0.0,0.0,0.0,0.0,0.0,0.0,0.0,0.0,0.0,0.0,0.0,0.0,0.0,0.0,0.0,0.0,0.0,0.0,0.0,0.0,0.0,0.0,0.0,0.0,0.0,0.0,0.0,0.0,0.0,0.0,0.0,0.0,0.0,0.0,0.0,0.0,0.0,0.0,0.0,0.0,0.0,0.0,0.0,0.0,0.0,0.0,0.0,0.0,0.0,0.0,0.0,0.0,0.0,0.0,0.0,0.0,0.0,0.0,0.0,0.0,0.0,0.0,0.0,0.1014,0.1111,0.119,0.1329,0.1335,0.1309,0.1172,0.1103,0.102,0.0917,0.0,0.0,0.0,0.0,0.0,0.0,0.0,0.0,0.0,0.0,0.0,0.0,0.0,0.0,0.0,0.0,0.0,0.0,0.0,0.0,0.0,0.0,0.0,0.0,0.0,0.0,0.0,0.0,0.0,0.0,0.0,0.0,0.0,0.0,0.0,0.0,0.0,0.0,0.0,0.0,0.0,0.0,0.0,0.0,0.0,0.0,0.0,0.0,0.0,0.0,0.0,0.0,0.0,0.0,0.0,0.0,0.0,0.0,0.0,0.0,0.0,0.0,0.0,0.0,0.0,0.0,0.0,0.0,0.0,0.0,0.0,0.0,0.0,0.0,0.0,0.0,0.0,0.0,0.0,0.0,0.0,0.0,0.0,0.0,0.0,0.0,0.0,0.0,0.0,0.0,0.0,0.0,0.0,0.0,0.0,0.0,0.0,0.0,0.0,0.0,0.0,0.0,0.1029,0.0908,0.0818,0.086,0.0707,0.0541,0.0446,0.0423,0.0393,0.0293,0.0,0.0,0.0,0.0,0.0,0.0,0.0,0.0,0.0,0.0,0.0,0.0,0.0,0.0,0.0,0.0,0.0,0.0,0.0,0.0,0.0,0.0,0.0,0.0,0.0,0.0,0.0,0.0,0.0,0.0,0.0,0.0,0.0,0.0,0.0,0.0,0.0,0.0,0.0,0.0,0.0,0.0,0.0,0.0,0.0,0.0,0.0,0.0,0.0,0.0,0.0,0.0,0.0,0.0,0.0,0.0,0.0,0.0,0.0,0.0,0.0,0.0,0.0,0.0,0.0,0.0,0.0,0.0,0.0,0.0,0.0,0.0,0.0,0.0,0.0,0.0,0.0,0.0,0.0,0.0,0.0,0.0,0.0,0.0,0.0,0.0,0.0,0.0,0.0,0.0,0.0,0.0,0.0,0.0,0.0,0.0,0.0,0.0,0.0,0.0,0.0,0.0,0.1053,0.0565,0.0224,0.0313,-0.0236,-0.0622,-0.0683,-0.065,-0.0608,-0.0619,0.0,0.0,0.0,0.0,0.0,0.0,0.0,0.0,0.0,0.0,0.0,0.0,0.0,0.0,0.0,0.0,0.0,0.0,0.0,0.0,0.0,0.0,0.0,0.0,0.0,0.0,0.0,0.0,0.0,0.0,0.0,0.0,0.0,0.0,0.0,0.0,0.0,0.0,0.0,0.0,0.0,0.0,0.0,0.0,0.0,0.0,0.0,0.0,0.0,0.0,0.0,0.0,0.0,0.0,0.0,0.0,0.0,0.0,0.0,0.0,-0.0923,0.0,0.0,0.0,0.0,0.0,0.0,0.0,0.0,0.0,0.0,0.0,0.0,0.0,0.0,0.0,0.0,0.0,0.0,0.0,0.0,0.0,0.0,0.0,0.0,0.0,0.0,0.0,0.0,0.0,0.0,0.0,0.0,0.0,0.0,0.0,0.0,0.0,0.0,0.0,0.0,0.0,0.1059,0.0647,0.0304,0.0313,-0.0236,-0.0622,-0.0683,-0.065,-0.0608,-0.0619,-0.05,0.0,0.0,0.0,0.0,0.0,0.0,0.0,0.0,0.0,0.0,0.0,0.0,0.0,0.0,0.0,0.0,0.0,0.0,0.0,0.0,0.0,0.0,0.0,0.0,0.0,0.0,0.0,0.0,0.0,0.0,0.0,0.0,0.0,0.0,0.0,0.0,0.0,0.0,0.0,0.0,0.0,0.0,0.0,0.0,0.0,0.0,0.0,0.0,0.0,0.0,0.0,0.0,0.0,0.0,0.0,0.0,0.0,0.0,0.0,0.0,-0.1164,0.0,0.0,0.0,0.0,0.0,0.0,0.0,0.0,0.0,0.0,0.0,0.0,0.0,0.0,0.0,0.0,0.0,0.0,0.0,0.0,0.0,0.0,0.0,0.0,0.0,0.0,0.0,0.0,0.0,0.0,0.0,0.0,0.0,0.0,0.0,0.0,0.0,0.0,0.0,0.0,0.108,0.0294,-0.0233,-0.0159,-0.0958,-0.1581,-0.1544,-0.1487,-0.1413,-0.1385,-0.1131,0.0,0.0,0.0,0.0,0.0,0.0,0.0,0.0,0.0,0.0,0.0,0.0,0.0,0.0,0.0,0.0,0.0,0.0,0.0,0.0,0.0,0.0,0.0,0.0,0.0,0.0,0.0,0.0,0.0,0.0,0.0,0.0,0.0,0.0,0.0,0.0,0.0,0.0,0.0,0.0,0.0,0.0,0.0,0.0,0.0,0.0,0.0,0.0,0.0,0.0,0.0,0.0,0.0,-0.2145,-0.2349,-0.2398,-0.2398,-0.2398,-0.2384,-0.2131,-0.1836,-0.1582,-0.1498,0.0,0.0,0.0,0.0,0.0,0.0,0.0,0.0,0.0,0.0,0.0,0.0,0.0,0.0,0.0,0.0,0.0,0.0,0.0,0.0,0.0,0.0,0.0,0.0,0.0818,0.0815,0.0648,0.0,0.0,0.0,0.0,0.0,0.0,0.0,0.0,0.0,0.0,0.0,0.0763,-0.0227,-0.0876,-0.0815,-0.1873,-0.258,-0.253,-0.2461,-0.2373,-0.2196,-0.1858,-0.1523,0.0,0.0,0.0,0.0,0.0,0.0,0.0,0.0,0.0,0.0,0.0,0.0,0.0,0.0,0.0,0.0,0.0,0.0,0.0,0.0,0.0,0.0,0.0,0.0,0.0,0.0,0.0,0.0,0.0,0.0,0.0,0.0,-0.1187,-0.1323,0.0,0.0,0.0,0.0,0.0,0.0,0.0,0.0,0.0,0.0,0.0,0.0,0.0,-0.2022,-0.2122,-0.2314,-0.2378,-0.2388,-0.2579,-0.2638,-0.2646,-0.2646,-0.2646,-0.2643,-0.2602,0.0,-0.2211,-0.2076,0.0,0.0,0.0,0.0,0.0,0.0,0.0,0.0,0.0,0.0,0.0,0.0,0.0,0.0,0.0,0.0,0.0,0.0,0.0,0.0,0.0,0.0,0.0243,-0.048,-0.064,-0.064,0.0,0.0287,0.0892,0.0283,0.0215,0.0,0.0,0.0,0.0,0.0,0.0,0.0,-0.043,-0.1083,-0.155,-0.1586,-0.222,-0.2598,-0.259,-0.2485,-0.2392,-0.2327,-0.2195,-0.187,-0.1395,-0.1268,0.0,0.0,0.0,0.0,0.0,0.0,0.0,0.0,0.0,0.0,0.0,0.0,0.0,0.0,0.0,0.0,0.0,0.0,0.0,0.0,0.0,0.0,0.0,0.0,0.0,0.0,0.0,0.0,0.0,-0.076,-0.1091,-0.1106,-0.1211,-0.125,0.0,0.0,0.0,0.0,0.0,0.0,0.0,0.0,0.0,-0.2009,-0.2262,-0.2397,-0.2484,-0.2638,-0.2714,-0.2715,-0.2835,-0.2892,-0.2892,-0.2892,-0.2892,-0.2892,-0.2892,-0.2834,-0.2719,-0.2489,-0.2342,-0.2184,0.0,0.0,0.0,0.0,-0.0886,-0.1026,-0.1287,-0.1449,-0.1439,-0.1472,0.0,0.0,0.0,0.0,0.0,0.0,0.0,0.0,0.0,0.0,-0.0414,-0.0757,-0.0852,-0.0771,-0.0846,-0.0406,-0.0076,0.0,-0.0131,0.0125,-0.0,0.0,0.0,0.0,0.0,-0.0567,-0.0755,-0.1376,-0.1779,-0.1711,-0.2294,-0.2676,-0.2606,-0.2552,-0.2481,-0.2388,-0.227,-0.2097,-0.1882,-0.1485,-0.1203,0.0,0.0,0.0,0.0,0.0,0.0,0.0,0.0,0.0,0.0,0.0,0.0,0.0,0.0,0.0,0.0,0.0,0.0,0.0,0.0,0.0,0.0,0.0,0.0,0.0,0.0,0.0,0.0,-0.0843,-0.1182,-0.1143,-0.1307,-0.1381,0.0,0.0,0.0,0.0,0.0,0.0,-0.2238,-0.2288,-0.2382,-0.2531,-0.2579,-0.264,-0.2715,-0.2852,-0.2918,-0.292,-0.3007,-0.3144,-0.3144,-0.3144,-0.3144,-0.3144,-0.3144,-0.3144,-0.3122,-0.2743,-0.259,-0.253,-0.2163,-0.1982,-0.1901,-0.1557,-0.1404,-0.1556,-0.1968,-0.207,-0.2124,-0.2158,-0.2035,-0.183,-0.1441,0.0,0.0,0.0,0.0,-0.1005,-0.1136,-0.1168,-0.1196,-0.1325,-0.1345,-0.126,-0.1329,-0.123,-0.1026,0.0,-0.068,-0.0289,-0.0464,0.0,0.0,0.0,0.0,-0.1135,-0.1272,-0.1765,-0.2003,-0.2014,-0.2442,-0.274,-0.2634,-0.261,-0.2556,-0.245,-0.2346,-0.2263,-0.2203,-0.1787,-0.1477,-0.1479,0.0,0.0,0.0,0.0,0.0,0.0,0.0,0.0,0.0,0.0,0.0,0.0,0.0,0.0,0.0,0.0,0.0,0.0,0.0,0.0,0.0,0.0,0.0,0.0,0.0,0.0,0.0,0.0,0.0,-0.1721,-0.1936,0.0,0.0,0.0,0.0,-0.2131,-0.2247,-0.2294,-0.2486,-0.2496,-0.2606,-0.2843,-0.2854,-0.291,-0.3119,-0.313,-0.3134,-0.3136,-0.3141,-0.3144,-0.3144,-0.3144,-0.3144,-0.3144,-0.3144,-0.3144,-0.3139,-0.2967,-0.2902,-0.2845,-0.2785,-0.2725,-0.2681,-0.2657,-0.2712,-0.2847,-0.2857,-0.2894,-0.2926,-0.2869,-0.2392,-0.186,-0.1854,-0.1406,0.0,0.0,-0.0916,-0.1045,-0.1726,-0.1956,-0.208,-0.2843,-0.29,-0.286,-0.2858,-0.227,-0.1758,0.0,-0.1588,-0.1549,-0.1583,0.0,-0.1678,-0.1642,-0.1689,-0.1987,-0.2501,-0.2656,-0.2805,-0.2864,-0.2818,-0.2758,-0.2694,-0.2635,-0.2574,-0.251,-0.2446,-0.2386,-0.2328,-0.2207,-0.2056,-0.1876,-0.1481,0.0,0.0,0.0,0.0,0.0,0.0,0.0,0.0,0.0,0.0,0.0,0.0,0.0,0.0,0.0,0.0,0.0,0.0,0.0,0.0,0.0,0.0,0.0,0.0,0.0,0.0,0.0,0.0,-0.1683,-0.2069,0.0,-0.2181,-0.2264,-0.2341,-0.238,-0.2533,-0.2658,-0.274,-0.2816,-0.2897,-0.2984,-0.2986,-0.3007,-0.3143,-0.3089,-0.3108,-0.3108,-0.3147,-0.3165,-0.3165,-0.3165,-0.3165,-0.3165,-0.3165,-0.3165,-0.3164,-0.3143,-0.3075,-0.2985,-0.2963,-0.2941,-0.2925,-0.2946,-0.2967,-0.2986,-0.2986,-0.3,-0.3014,-0.2993,-0.285,-0.2708,-0.2708,-0.2502,-0.2303,-0.2336,-0.2372,-0.2407,-0.263,-0.2749,-0.2762,-0.3049,-0.3127,-0.3111,-0.3111,-0.2813,-0.2596,-0.2629,-0.2083,-0.174,-0.1836,-0.2154,-0.2227,-0.1788,-0.219,-0.2532,-0.2745,-0.2804,-0.285,-0.2872,-0.2854,-0.2801,-0.27,-0.2673,-0.2601,-0.2461,-0.2398,-0.2339,-0.2208,-0.2198,-0.2151,-0.1943,-0.1802,-0.155,0.0,0.0,0.0,0.0,0.0,0.0,0.0,0.0,0.0,0.0,0.0,0.0,0.0,0.0,0.0,0.0,0.0,0.0,0.0,0.0,0.0,0.0,0.0,0.0,0.0,0.0,-0.1774,-0.184,-0.2264,-0.2481,-0.2402,-0.2503,-0.259,-0.2629,-0.2782,-0.289,-0.2931,-0.3007,-0.3059,-0.3079,-0.3079,-0.31,-0.314,-0.3181,-0.3211,-0.3232,-0.3273,-0.3292,-0.3292,-0.3292,-0.3292,-0.3292,-0.3292,-0.3292,-0.3292,-0.3292,-0.3244,-0.3168,-0.3127,-0.311,-0.311,-0.311,-0.311,-0.311,-0.311,-0.3097,-0.3079,-0.3079,-0.3065,-0.3144,-0.3144,-0.3144,-0.3053,-0.3074,-0.3079,-0.3085,-0.3105,-0.311,-0.311,-0.311,-0.3094,-0.3079,-0.3079,-0.3064,-0.3144,-0.3144,-0.2568,-0.2199,-0.2221,-0.2568,-0.2641,-0.2231,-0.2565,-0.2813,-0.2813,-0.2849,-0.2875,-0.2875,-0.2875,-0.2824,-0.2703,-0.2673,-0.2601,-0.2459,-0.2377,-0.2245,-0.2206,-0.2198,-0.2162,-0.1974,-0.1894,-0.1775,-0.1616,0.0,0.0,0.0,0.0,0.0,0.0,0.0,0.0,0.0,0.0,0.0,0.0,0.0,0.0,0.0,0.0,0.0,0.0,0.0,0.0,0.0,0.0,0.0,-0.1986,-0.2192,-0.2345,-0.2349,-0.2556,-0.2653,-0.2535,-0.2738,-0.2877,-0.288,-0.2986,-0.3147,-0.3147,-0.3151,-0.3085,-0.3143,-0.3147,-0.3204,-0.3323,-0.3324,-0.3353,-0.3413,-0.3413,-0.3413,-0.3413,-0.3413,-0.3413,-0.3413,-0.3413,-0.3413,-0.3413,-0.3413,-0.3413,-0.3401,-0.3282,-0.3236,-0.3236,-0.3236,-0.3234,-0.3233,-0.3232,-0.3192,-0.3142,-0.3142,-0.3102,-0.315,-0.315,-0.315,-0.3067,-0.3125,-0.3142,-0.3157,-0.3215,-0.323,-0.323,-0.323,-0.3185,-0.3142,-0.3142,-0.3097,-0.315,-0.315,-0.3006,-0.2963,-0.2962,-0.2916,-0.2879,-0.2877,-0.2877,0.0,-0.2875,-0.2875,-0.2875,-0.2875,-0.2875,-0.2826,-0.2706,-0.2639,-0.2576,-0.2512,-0.2399,-0.2335,-0.2332,-0.2219,-0.2165,-0.198,-0.1862,-0.1802,-0.1802,0.0,0.0,0.0,0.0,0.0,0.0,0.0,0.0,0.0,0.0,0.0,0.0,0.0,0.0,0.0,0.0,0.0,0.0,0.0,0.0,0.0,0.0,-0.2296,-0.2296,-0.2431,-0.256,-0.265,-0.2758,-0.2827,-0.2834,-0.2895,-0.2954,-0.2997,-0.3072,-0.3115,-0.3115,-0.3199,-0.3255,-0.3271,-0.3315,-0.3353,-0.3387,-0.3387,-0.3395,-0.3413,-0.3413,-0.3413,-0.3413,-0.3413,-0.3413,-0.3413,-0.3413,-0.3413,-0.3413,-0.3413,-0.3413,-0.3409,-0.3375,-0.3362,-0.3362,-0.3362,-0.3335,-0.329,-0.3245,-0.3219,-0.3206,-0.3206,-0.3194,-0.3181,-0.3181,-0.3181,-0.3184,-0.3202,-0.3206,-0.321,-0.3226,-0.323,-0.323,-0.323,-0.3218,-0.3206,-0.3206,-0.3192,-0.3181,-0.3181,-0.3131,-0.3075,-0.3031,-0.3011,-0.2986,-0.2941,-0.2935,0.0,-0.288,-0.2875,-0.2875,-0.2875,-0.2875,-0.2842,-0.2764,-0.2702,-0.2604,-0.2454,-0.2376,-0.2244,-0.22,-0.2237,-0.2183,-0.2172,-0.1985,-0.1924,0.0,0.0,0.0,0.0,0.0,0.0,0.0,0.0,0.0,0.0,0.0,0.0,0.0,0.0,0.0,0.0,0.0,0.0,0.0,0.0,0.0,0.0,-0.2354,-0.2542,-0.2568,-0.2632,-0.2722,-0.2842,-0.2887,-0.2932,-0.2991,-0.3019,-0.3049,-0.3085,-0.3166,-0.3215,-0.3215,-0.3308,-0.336,-0.336,-0.3394,-0.3424,-0.3447,-0.3447,-0.3461,-0.3486,-0.3486,-0.3486,-0.3486,-0.3486,-0.3486,-0.3486,-0.3486,-0.3486,-0.3486,-0.3486,-0.3486,0.0,0.0,0.0,0.0,0.0,-0.339,-0.3354,-0.3319,-0.3307,-0.3303,-0.3277,-0.3268,-0.3264,-0.3238,-0.323,-0.323,-0.323,-0.323,-0.323,-0.323,-0.323,-0.323,-0.323,-0.323,-0.323,-0.323,-0.323,-0.323,-0.323,-0.3202,0.0,-0.3131,-0.3083,-0.3132,-0.3001,-0.2996,-0.2976,-0.2917,-0.2909,-0.2901,-0.2877,-0.2875,-0.285,-0.2788,-0.2728,0.0,0.0,0.0,-0.2332,-0.2178,-0.2174,0.0,0.0,0.0,0.0,0.0,0.0,0.0,0.0,-0.1804,-0.1695,0.0,0.0,0.0,0.0,0.0,0.0,0.0,0.0,0.0,0.0,0.0,0.0,0.0,0.0,0.0,0.0,-0.2555,-0.2726,-0.2794,-0.2803,-0.2841,-0.2946,-0.2965,-0.2992,-0.3053,-0.3108,-0.3144,-0.3159,-0.326,-0.3324,-0.3331,0.0,0.0,0.0,0.0,-0.3455,-0.3506,-0.3507,-0.3533,-0.3587,-0.3587,-0.3587,-0.3587,-0.3587,-0.3587,-0.3587,-0.3587,-0.3587,-0.3587,-0.3587,-0.3587,-0.3576,-0.3473,-0.3432,-0.3431,-0.3424,-0.3422,-0.3421,-0.3414,0.0,0.0,-0.3349,-0.3332,-0.3322,-0.3267,-0.3245,-0.3241,-0.3241,-0.3236,-0.323,-0.323,-0.323,-0.323,-0.323,-0.323,-0.323,-0.323,-0.323,-0.323,-0.323,-0.323,-0.323,-0.323,-0.3142,-0.3067,-0.306,-0.306,-0.3037,-0.2977,-0.2962,-0.2939,-0.2888,0.0,0.0,-0.2798,-0.2737,-0.2676,-0.2616,-0.2503,-0.2394,-0.2217,-0.222,-0.222,-0.2214,-0.2338,-0.239,-0.244,-0.2495,-0.2525,-0.2526,-0.2307,-0.2289,0.0,0.0,0.0,0.0,0.0,0.0,0.0,0.0,0.0,0.0,0.0,0.0,0.0,0.0,0.0,-0.2519,-0.2672,-0.2803,-0.2909,-0.2925,-0.2933,-0.2955,-0.3001,-0.3056,-0.3116,-0.3132,-0.318,-0.3279,-0.3308,-0.3343,-0.3392,-0.3448,-0.348,-0.348,-0.3527,-0.3559,-0.357,-0.357,-0.3575,-0.3587,0.0,0.0,-0.3587,-0.3587,-0.3587,-0.3587,-0.3587,-0.3587,-0.3587,-0.3587,-0.3587,-0.3585,-0.3563,-0.3553,-0.3548,-0.3499,-0.348,-0.3474,-0.3428,-0.3413,-0.341,-0.3398,-0.3395,-0.3392,-0.3382,-0.3343,0.0,-0.3304,-0.3268,-0.323,-0.323,-0.323,-0.323,-0.323,-0.323,-0.323,-0.323,-0.323,-0.323,-0.323,-0.323,-0.323,-0.323,-0.3211,-0.3179,-0.3129,-0.3123,-0.31,-0.304,-0.2988,-0.2954,-0.2943,-0.2902,-0.2869,-0.2857,-0.2801,-0.274,-0.2679,-0.2606,-0.2556,-0.2533,-0.2579,-0.2582,-0.2533,-0.2544,-0.2555,-0.2567,-0.2578,-0.2609,-0.2654,-0.256,-0.2534,0.0,0.0,0.0,0.0,0.0,0.0,0.0,0.0,0.0,0.0,0.0,-0.2329,-0.2324,0.0,-0.2527,-0.2709,-0.2812,-0.2902,-0.2991,-0.303,-0.3049,-0.3049,-0.3076,-0.3119,-0.318,-0.3213,-0.3256,-0.3316,-0.3376,-0.3422,-0.3452,-0.3511,-0.3542,-0.3542,-0.3571,-0.3587,-0.3587,-0.3587,-0.3587,-0.3587,-0.3587,-0.3604,-0.3632,-0.3632,-0.365,-0.3679,-0.3679,-0.3679,-0.3676,-0.3646,-0.3615,-0.3587,-0.3587,-0.3587,-0.3583,-0.3553,-0.3542,-0.3538,-0.351,-0.35,-0.3495,-0.3465,-0.3454,-0.345,-0.3421,-0.3391,-0.3367,-0.3367,-0.3323,-0.3275,-0.3275,-0.3253,-0.323,-0.323,-0.323,-0.323,-0.323,-0.323,-0.323,-0.323,-0.323,-0.323,-0.323,-0.323,-0.3219,-0.3189,-0.3185,-0.3164,-0.3102,-0.3068,-0.3037,-0.3007,-0.2951,-0.2916,-0.2916,-0.2834,-0.277,-0.274,-0.268,-0.2647,-0.2647,-0.2676,-0.2679,-0.2647,-0.2677,-0.2692,-0.2692,-0.2723,-0.2753,-0.2782,-0.2752,-0.2722,0.0,0.0,0.0,0.0,0.0,0.0,0.0,0.0,-0.2624,-0.2414,-0.2599,-0.2748,-0.2588,-0.2605,-0.2706,-0.2865,-0.2939,-0.2997,-0.3059,-0.3109,-0.3143,-0.3155,-0.3157,-0.3177,-0.3226,-0.3286,-0.3326,-0.3338,-0.3437,-0.3501,-0.3514,-0.3561,-0.3587,-0.3587,-0.3587,-0.3593,-0.3605,-0.3605,-0.361,-0.3623,-0.3623,-0.3649,-0.3696,-0.3696,-0.3724,-0.377,-0.377,-0.377,-0.3766,-0.3717,-0.3659,-0.3605,-0.3605,-0.3598,-0.3587,-0.3587,-0.3587,-0.3587,-0.3587,-0.3587,-0.3579,-0.353,-0.3514,-0.3506,-0.3461,-0.3439,-0.3428,-0.3428,-0.3386,-0.3339,-0.3339,-0.3294,-0.3248,-0.3248,-0.3238,-0.323,-0.323,-0.323,-0.323,-0.323,-0.323,-0.323,-0.323,-0.323,-0.323,-0.323,-0.323,-0.3213,-0.3164,-0.3146,-0.3121,-0.3072,-0.3012,-0.297,-0.2959,-0.2861,-0.2801,-0.2801,-0.2755,-0.2728,-0.2728,-0.2728,-0.2728,-0.2728,-0.2775,-0.2801,-0.2801,-0.285,-0.2875,-0.2875,-0.2886,-0.2858,-0.2923,-0.289,-0.2977,-0.3486,-0.34,-0.3368,0.0,0.0,-0.3149,-0.3166,-0.2916,-0.2723,-0.2668,-0.2766,-0.2867,-0.2937,-0.2999,-0.306,-0.3121,-0.3135,-0.3159,-0.3214,-0.3219,-0.3222,-0.323,-0.3286,-0.3343,-0.3398,-0.3461,-0.3521,-0.3574,-0.3583,-0.3587,-0.3587,-0.3587,-0.3613,-0.3668,-0.3668,-0.3695,-0.3749,-0.3749,-0.3752,-0.3759,-0.3759,-0.3763,-0.377,-0.377,-0.377,-0.3768,-0.3762,-0.3724,-0.3668,-0.3668,-0.3635,-0.3587,-0.3587,-0.3587,-0.3587,-0.3587,-0.3587,-0.3586,-0.3579,-0.3576,-0.3576,-0.357,-0.353,-0.3488,-0.3488,-0.3446,-0.3402,-0.3402,-0.3357,-0.3311,-0.3311,-0.327,-0.323,-0.323,-0.323,-0.323,-0.323,-0.323,-0.323,-0.323,-0.323,-0.323,-0.323,-0.323,-0.3228,-0.3221,-0.3173,-0.3136,-0.3129,-0.3075,-0.3111,-0.2963,-0.2901,-0.2864,-0.2864,-0.2857,-0.2854,-0.2854,-0.2854,-0.2854,-0.2854,-0.286,-0.2864,-0.2864,-0.2871,-0.2875,-0.2876,-0.2925,-0.2918,-0.4533,-0.4381,-0.4293,0.0,-0.4474,-0.4489,-0.4235,-0.4148,-0.404,-0.3853,-0.3657,-0.3439,-0.3224,-0.3045,-0.2941,0.0,-0.3063,-0.3123,-0.3184,-0.3192,-0.3188,-0.3179,-0.3209,-0.323,-0.323,-0.3318,-0.3386,-0.341,-0.3497,-0.3561,-0.3586,-0.3587,-0.3587,-0.3587,-0.3587,-0.3617,-0.3677,-0.3679,-0.3709,-0.377,-0.377,-0.3788,-0.3823,-0.3823,-0.3841,-0.3875,-0.3875,-0.3856,-0.3823,-0.3823,-0.3786,-0.3728,-0.3692,-0.3662,-0.3636,-0.3601,-0.3587,-0.3587,-0.3587,-0.3587,-0.3587,-0.3587,-0.3587,-0.3587,-0.3587,-0.357,-0.3549,-0.3549,-0.3507,-0.3462,-0.3462,-0.3418,-0.3365,-0.333,-0.3301,-0.3274,-0.3238,-0.323,-0.323,-0.323,-0.323,-0.323,-0.323,-0.323,-0.323,-0.323,-0.323,-0.323,-0.323,-0.3209,-0.3179,-0.3143,-0.3116,-0.3076,-0.3016,-0.2956,-0.2924,-0.2924,-0.2892,-0.2875,-0.2875,-0.2875,-0.2875,-0.2875,-0.2875,-0.2875,-0.2875,-0.2875,-0.2891,-0.2924,-0.2947,-0.2965,-0.5626,-0.5596,0.0,-0.5412,-0.5532,-0.5504,-0.4828,-0.468,-0.4715,-0.4433,-0.42,-0.3959,-0.3844,-0.3373,-0.3071,-0.3228,-0.3196,-0.3161,-0.3222,-0.3215,-0.3195,-0.3168,-0.3188,-0.3213,-0.3229,-0.3326,-0.3394,-0.3412,-0.3613,-0.3792,-0.3587,-0.3811,-0.3811,-0.3587,-0.3604,-0.3642,-0.3703,-0.3721,-0.3759,-0.3819,-0.3819,-0.3842,-0.3886,-0.3886,-0.3909,-0.3951,-0.3951,-0.3925,-0.3886,-0.3886,-0.3849,-0.3788,-0.3728,-0.3694,-0.367,-0.3609,-0.3587,-0.3587,-0.3587,-0.3587,-0.3587,-0.3587,-0.3587,-0.3587,-0.3587,-0.3587,-0.3587,-0.3587,-0.3556,-0.3522,-0.3522,-0.3478,-0.3424,-0.338,-0.3345,-0.3309,-0.3264,-0.3243,-0.323,-0.323,-0.323,-0.323,-0.323,-0.323,-0.323,-0.323,-0.323,-0.323,-0.323,-0.323,-0.3214,-0.3169,-0.315,-0.3121,-0.3078,-0.3018,-0.2984,-0.2984,-0.2944,-0.2914,-0.2898,-0.2913,-0.2914,-0.2898,-0.2914,-0.2922,-0.2922,-0.2922,-0.2943,-0.2984,-0.3,-0.3033,-0.5719,0.0,-0.6301,-0.6862,-0.6687,-0.6386,-0.6525,-0.5706,-0.4996,-0.5003,-0.4206,-0.3762,-0.421,-0.3554,-0.3163,-0.37,-0.3388,-0.3161,-0.3222,-0.318,-0.3164,-0.3221,-0.3177,-0.3165,0.0,-0.3288,-0.3349,-0.3409,-0.4005,-0.4182,-0.3585,-0.4145,-0.4257,-0.3587,-0.3644,-0.3704,-0.3766,-0.3826,-0.3886,-0.3946,-0.3946,-0.3946,-0.3948,-0.3948,-0.3948,-0.3951,-0.3951,-0.395,-0.3948,-0.3948,-0.3913,-0.3852,-0.379,-0.373,-0.367,-0.3609,-0.3587,-0.3587,-0.3587,-0.3587,-0.3587,-0.3587,-0.3587,-0.3587,-0.3587,-0.3587,-0.3587,-0.3587,-0.3586,-0.3585,-0.3585,-0.354,-0.3493,-0.3492,-0.3403,-0.332,-0.3319,-0.3273,-0.323,-0.323,-0.323,-0.323,-0.323,-0.323,-0.323,-0.323,-0.323,-0.323,-0.323,-0.323,-0.323,-0.3228,-0.3174,-0.3139,-0.3136,-0.308,-0.3141,-0.3141,-0.314,-0.3112,-0.2958,-0.3012,-0.3016,-0.2956,-0.3108,-0.3139,-0.3139,-0.3139,-0.314,-0.3143,-0.3106,-0.3135,-0.7096,-0.7362,-0.7538,-0.7803,-0.7843,-0.7643,-0.694,-0.6483,-0.5957,-0.5092,-0.4646,-0.428,-0.3789,-0.3537,-0.3284,-0.3257,-0.317,-0.3161,-0.3222,-0.3213,-0.3192,-0.3172,-0.3188,0.0,0.0,0.0,0.0,-0.3407,-0.4003,-0.4181,-0.3585,-0.4145,-0.4257,-0.3587,-0.3647,-0.3707,-0.3768,-0.383,-0.3891,-0.3951,-0.3951,-0.3951,-0.3951,-0.3951,-0.3951,-0.3951,-0.3951,-0.3951,-0.395,-0.4438,-0.4303,-0.3914,-0.4332,-0.4381,-0.4312,-0.4241,-0.4523,-0.4702,-0.3923,-0.3587,-0.3587,-0.3587,-0.3587,-0.3587,-0.3587,-0.3587,-0.3587,-0.3587,-0.3923,-0.4145,-0.4145,-0.446,-0.4759,-0.4704,-0.4329,-0.4053,-0.4375,-0.4126,-0.389,-0.4244,-0.4234,-0.4133,-0.3833,-0.3732,-0.3632,-0.323,-0.323,-0.323,-0.323,-0.323,-0.323,-0.323,-0.3213,-0.32,-0.32,-0.3144,-0.3109,-0.3109,-0.3071,-0.3134,-0.3113,-0.3133,-0.3134,-0.3113,-0.3133,-0.3144,-0.3144,-0.3144,-0.307,-0.3109,-0.3129,-0.3161,-0.8154,-0.8392,-0.847,-0.8844,-0.8798,-0.8488,-0.7724,-0.7092,-0.6492,-0.5502,-0.4939,-0.4464,-0.3706,-0.3528,-0.3476,-0.3269,-0.3179,-0.3184,-0.3213,-0.3311,-0.339,-0.3174,-0.3306,-0.3525,0.0,0.0,0.0,-0.3728,-0.4543,-0.4839,-0.4254,-0.4592,-0.4604,-0.3957,-0.3793,-0.374,-0.3801,-0.3862,-0.3913,-0.3951,-0.3951,-0.3951,-0.3951,-0.3951,-0.4073,-0.4316,-0.4316,-0.4439,-0.4685,-0.5049,-0.5051,-0.4677,-0.4971,-0.513,-0.5048,-0.4967,-0.5111,-0.526,-0.448,-0.4257,-0.4257,-0.4257,-0.4257,-0.4257,-0.4257,-0.4257,-0.4257,-0.4257,-0.448,-0.4814,-0.4814,-0.5148,-0.5357,-0.5298,-0.5041,-0.4772,-0.5092,-0.4833,-0.4579,-0.48,-0.4883,-0.4772,-0.4338,-0.4133,-0.3932,-0.3531,-0.3331,-0.323,-0.323,-0.323,-0.323,-0.323,-0.323,-0.323,-0.323,-0.3195,-0.3172,-0.3172,-0.3135,-0.3104,-0.3082,-0.3102,-0.3104,-0.3082,-0.3102,-0.3115,-0.3115,-0.3115,-0.3134,-0.3172,-0.3172,-0.3192,-0.8817,-0.9053,-0.9214,-0.9804,-0.951,-0.8978,-0.8882,-0.7786,-0.6521,-0.6031,-0.5162,-0.4405,-0.3988,0.0,-0.3635,-0.3615,-0.3497,-0.3422,-0.3296,-0.3674,-0.3757,0.0,0.0,0.0,0.0,0.0,0.0,-0.4374,0.0,-0.5939,-0.5477,-0.5483,-0.5189,-0.4705,-0.4202,-0.3917,-0.398,-0.4042,-0.395,-0.395,-0.395,-0.395,-0.395,-0.395,-0.4316,-0.4925,-0.4925,-0.5293,-0.5906,-0.5906,-0.5906,-0.5898,-0.5818,-0.5729,-0.5633,-0.5662,-0.5568,-0.5483,-0.5483,-0.5483,-0.5371,-0.5371,-0.5371,-0.5371,-0.5371,-0.5371,-0.5371,-0.5371,-0.5371,-0.5483,-0.5483,-0.5483,-0.5483,-0.5483,-0.5414,-0.5349,-0.5345,-0.5281,-0.5193,-0.5093,-0.5072,-0.5039,-0.4849,-0.4433,-0.4033,-0.4033,-0.3632,-0.323,-0.323,-0.323,-0.323,-0.323,-0.323,-0.323,-0.323,-0.323,-0.323,-0.323,-0.323,-0.3204,-0.3146,-0.32,-0.3203,-0.3144,-0.3202,-0.323,-0.323,-0.323,-0.323,-0.323,-0.323,-0.323,-0.9105,-0.9478,-0.9752,-1.0,-0.9864,-0.9557,-0.8807,-0.8291,-0.7457,-0.6103,-0.5695,-0.5161,-0.3951,0.0,0.0,-0.3896,-0.4059,0.0,-0.4405,-0.4514,0.0,-0.3904,0.0,-0.4663,-0.433,-0.5157,0.0,0.0,-0.5992,-0.5939,-0.5477,-0.5817,-0.5864,-0.5392,-0.5247,-0.5215,-0.53,-0.538,-0.5174,-0.4682,-0.4682,-0.4682,-0.4682,-0.4682,-0.5049,-0.5661,-0.5661,-0.5784,-0.5906,-0.6399,-0.6396,-0.5904,-0.6372,-0.6499,-0.6226,-0.6318,-0.6422,-0.6707,-0.6707,-0.6151,-0.5371,-0.5371,-0.5371,-0.5371,-0.5371,-0.5371,-0.5371,-0.5371,-0.5706,-0.604,-0.604,-0.6374,-0.6707,-0.6707,-0.6352,-0.6093,-0.6456,-0.6199,-0.5913,-0.6142,-0.5833,-0.5466,-0.5438,-0.4935,-0.4634,-0.4634,-0.4133,-0.3632,-0.323,-0.323,-0.323,-0.323,-0.323,-0.323,-0.323,-0.323,-0.323,-0.323,-0.323,-0.3224,-0.3209,-0.3222,-0.3224,-0.3207,-0.3222,-0.323,-0.323,-0.323,-0.323,-0.323,-0.323,-0.323,-0.9483,-0.9771,-1.0038,-1.0038,-0.9885,-0.9653,-0.894,-0.8332,-0.7581,-0.6241,-0.5745,0.0,-0.3841,-0.4235,0.0,0.0,0.0,0.0,-0.4445,-0.4808,-0.4968,0.0,-0.5006,0.0,-0.5159,-0.5793,-0.6399,0.0,-0.6621,-0.6536,-0.626,-0.6308,-0.6268,-0.6027,-0.5773,-0.5745,-0.5835,-0.5882,-0.5661,-0.5293,-0.5293,-0.5293,-0.5293,-0.5293,-0.5661,-0.6399,0.0,-0.6521,-0.6766,-0.7133,-0.7133,-0.6766,-0.7133,-0.7123,-0.6932,-0.6932,-0.7021,-0.7154,-0.7154,-0.6707,-0.6151,-0.6151,-0.6151,-0.6151,-0.6151,-0.6151,-0.6151,-0.6151,-0.6485,-0.671,-0.671,-0.6932,-0.7154,-0.7154,-0.6932,-0.6803,-0.7073,-0.684,-0.6552,-0.6642,-0.6292,-0.5994,-0.5944,-0.5534,-0.5135,-0.5135,-0.4734,-0.4133,-0.3632,-0.3331,-0.323,-0.323,-0.323,-0.323,-0.323,-0.323,-0.323,-0.323,-0.323,-0.323,-0.323,-0.323,-0.323,-0.323,-0.323,-0.323,-0.323,-0.323,-0.323,-0.323,-0.323,-0.323,-0.9847,-1.0038,-1.0038,-1.0038,-0.9776,-0.9493,-0.9077,-0.8259,-0.7279,-0.6382,0.0,-0.5026,-0.3901,-0.4298,-0.4444,-0.3383,0.0,-0.465,-0.4264,-0.5064,-0.5564,-0.5182,-0.5689,-0.6107,-0.6231,-0.6323,-0.6596,-0.7154,-0.7154,-0.7154,-0.7154,-0.6802,-0.657,-0.6577,-0.6208,-0.6064,-0.6151,-0.6151,-0.6151,-0.6029,-0.6029,-0.6029,-0.6029,-0.6029,-0.6396,-0.7011,-0.7011,-0.7378,-0.7872,-0.7872,-0.7872,-0.7869,-0.7853,-0.7714,-0.7516,-0.75,-0.735,-0.7154,-0.7154,-0.7154,-0.7154,-0.7154,-0.7154,-0.7154,-0.7154,-0.7154,-0.7154,-0.7154,-0.7154,-0.7154,-0.7154,-0.7154,-0.7154,-0.7154,-0.7154,-0.7154,-0.7154,-0.7143,-0.7067,-0.6844,-0.6703,-0.6581,-0.6458,-0.6037,-0.5737,-0.5737,-0.5233,-0.4734,-0.4133,-0.3632,-0.323,-0.323,-0.323,-0.323,-0.323,-0.323,-0.323,-0.323,-0.323,-0.323,-0.323,-0.323,-0.323,-0.323,-0.323,-0.323,-0.323,-0.323,-0.323,-0.323,-0.323,-0.323,-0.9885,-1.0038,-1.0038,-1.0038,-0.9663,-0.9271,-0.8855,-0.8234,0.0,0.0,-0.6373,-0.5827,-0.4844,-0.4986,0.0,-0.4579,0.0,0.0,0.0,0.0,-0.6116,0.0,0.0,0.0,0.0,0.0,0.0,0.0,0.0,-0.7154,-0.7154,-0.7062,-0.7174,-0.7277,-0.7398,-0.7394,-0.7503,-0.7503,-0.7255,-0.6766,-0.6766,-0.6766,-0.6766,-0.6766,-0.7133,-0.7747,-0.7747,0.0,-0.7872,-0.7872,-0.7872,-0.7861,-0.7769,-0.7644,-0.7505,-0.7404,-0.7277,-0.7154,-0.7154,-0.7154,-0.7154,-0.7154,-0.7154,-0.7154,-0.7154,-0.7154,-0.7154,-0.7154,-0.7154,-0.7154,-0.7154,-0.7154,-0.7154,-0.7154,-0.7154,-0.7154,-0.7154,-0.7081,-0.6972,-0.6831,-0.6703,-0.6581,-0.6458,-0.6337,-0.6237,-0.6237,-0.5834,-0.5236,-0.4734,-0.4234,-0.3732,-0.323,-0.323,-0.323,-0.323,-0.323,-0.323,-0.323,-0.323,-0.323,-0.323,-0.323,-0.323,-0.323,-0.323,-0.323,-0.323,-0.323,-0.323,-0.323,-0.323,-0.323,-0.9894,-1.0038,-1.0038,-1.0038,-0.9382,-0.8704,-0.8421,0.0,0.0,0.0,-0.6276,-0.5952,-0.536,0.0,0.0,0.0,0.0,0.0,0.0,0.0,0.0,0.0,0.0,0.0,0.0,0.0,0.0,0.0,0.0,-0.7154,-0.7154,-0.7214,-0.7331,-0.7513,-0.7576,-0.7633,-0.7687,-0.7752,-0.7661,-0.7299,-0.7352,-0.738,-0.738,-0.738,-0.7625,-0.7869,-0.7809,-0.7782,-0.7777,-0.7714,-0.7687,-0.7682,-0.7627,-0.7532,-0.7415,-0.7355,-0.7258,-0.7154,-0.7154,-0.7154,-0.7154,-0.7154,-0.7154,-0.7154,-0.7154,-0.7154,-0.7154,-0.7154,-0.7154,-0.7154,-0.7154,-0.7154,-0.7154,-0.7154,-0.7154,-0.7154,-0.7154,-0.7111,-0.7018,-0.6836,-0.6755,-0.6657,-0.6469,-0.6437,-0.6437,-0.6437,-0.6137,-0.5834,-0.5336,-0.4734,-0.4133,-0.3331,-0.323,-0.323,-0.323,-0.323,-0.323,-0.323,-0.323,-0.323,-0.323,-0.323,-0.323,-0.323,-0.323,-0.323,-0.323,-0.323,-0.323,-0.323,-0.323,-0.323,-0.9656,-0.9653,-0.9497,-0.9548,-0.8748,-0.7927,-0.787,-0.7074,0.0,0.0,-0.6059,-0.5837,-0.5508,0.0,0.0,0.0,0.0,0.0,0.0,0.0,0.0,0.0,0.0,0.0,0.0,0.0,0.0,0.0,0.0,0.0,-0.7154,-0.7244,-0.7353,-0.7475,-0.7478,-0.7491,-0.7519,-0.7614,-0.7663,-0.7663,-0.7752,-0.7796,-0.7796,-0.7796,-0.7796,-0.779,-0.7701,-0.7663,-0.7655,-0.7557,-0.7519,-0.7516,-0.7489,-0.7421,-0.7334,-0.7307,-0.7236,-0.7154,-0.7154,-0.7154,-0.7154,-0.7154,-0.7154,-0.7154,-0.7154,-0.7154,-0.7154,-0.7154,-0.7154,-0.7154,-0.7154,-0.7154,-0.7154,-0.7154,-0.7154,-0.7154,-0.7154,-0.7154,-0.7084,-0.685,-0.6801,-0.6725,-0.6478,-0.6437,-0.6437,-0.6437,-0.6437,-0.6234,-0.5634,-0.5135,-0.4435,-0.3432,-0.323,-0.323,-0.323,-0.323,-0.323,-0.323,-0.323,-0.323,-0.323,-0.323,-0.323,-0.323,-0.323,-0.323,-0.323,-0.323,-0.323,-0.323,-0.323,-0.323,-0.8683,-0.8332,-0.7975,-0.792,-0.7496,-0.6984,-0.704,0.0,0.0,-0.6211,-0.59,-0.5508,-0.5066,-0.4706,-0.4426,-0.4306,-0.4507,-0.4879,0.0,0.0,0.0,0.0,0.0,0.0,0.0,0.0,0.0,0.0,0.0,0.0,-0.7154,-0.7165,-0.7228,-0.7347,-0.7353,-0.7407,-0.7516,-0.7529,-0.7535,-0.7535,-0.7546,-0.7551,-0.7551,-0.7551,-0.7551,-0.7551,-0.754,-0.7535,0.0,-0.7524,-0.7519,-0.7508,-0.7396,-0.7345,-0.7323,-0.7211,-0.7165,-0.7154,-0.7154,-0.7154,-0.7154,-0.7154,-0.7154,-0.7154,-0.7154,-0.7154,-0.7154,-0.7154,-0.7154,-0.7154,-0.7154,-0.7154,-0.7154,-0.7154,-0.7154,-0.7154,-0.7154,-0.7154,-0.7084,-0.685,-0.6801,-0.6725,-0.6478,-0.6437,-0.6437,-0.6437,-0.6437,-0.6234,-0.5634,-0.5135,-0.4533,-0.4033,-0.3531,-0.323,-0.323,-0.323,-0.323,-0.323,-0.323,-0.323,-0.323,-0.323,-0.323,-0.323,-0.323,-0.323,-0.323,-0.323,-0.323,-0.323,-0.323,-0.323,-0.793,-0.7824,-0.7767,-0.7703,-0.6995,-0.6392,-0.6781,0.0,-0.5649,-0.6124,-0.5896,-0.5567,-0.5344,-0.473,-0.4289,-0.436,-0.4239,-0.4389,0.0,0.0,0.0,0.0,0.0,0.0,0.0,0.0,0.0,0.0,0.0,0.0,-0.7154,-0.7154,-0.7176,-0.7225,-0.7228,-0.7249,-0.7298,-0.7372,-0.741,-0.741,-0.7483,-0.7519,-0.7519,-0.7519,-0.7519,-0.7513,-0.744,-0.741,0.0,-0.7328,-0.7301,-0.7296,-0.7244,-0.7228,-0.7222,-0.7173,-0.7154,-0.7154,-0.7154,-0.7154,-0.7154,-0.7154,-0.7154,-0.7154,-0.7154,-0.7154,-0.7154,-0.7154,-0.7154,-0.7154,-0.7154,-0.7154,-0.7154,-0.7154,-0.7154,-0.7154,-0.7154,-0.7154,-0.7084,-0.685,-0.6801,-0.6725,-0.6478,-0.6437,-0.6437,-0.6437,-0.6437,-0.6337,-0.6137,-0.5636,-0.5035,-0.4533,-0.3732,-0.323,-0.323,-0.323,-0.323,-0.323,-0.323,-0.323,-0.323,-0.323,-0.323,-0.323,-0.323,-0.323,-0.323,-0.323,-0.323,-0.323,-0.323,-0.323,-0.7014,-0.6962,-0.6944,-0.6899,-0.6182,-0.5653,0.0,-0.5553,-0.5045,-0.5716,-0.5454,-0.5175,-0.5175,-0.457,-0.4061,-0.4195,-0.405,-0.411,-0.4649,0.0,0.0,0.0,0.0,0.0,0.0,0.0,0.0,0.0,0.0,0.0,-0.7154,-0.7154,-0.7154,-0.7154,-0.7154,-0.7154,-0.7154,-0.7239,-0.7282,-0.7282,-0.7369,-0.741,-0.741,-0.741,-0.741,-0.7407,-0.732,-0.7282,0.0,-0.719,-0.7154,-0.7154,-0.7154,-0.7154,-0.7154,-0.7154,-0.7154,-0.7154,-0.7154,-0.7154,-0.7154,-0.7154,-0.7154,-0.7154,-0.7154,-0.7154,-0.7154,-0.7154,-0.7154,-0.7154,-0.7154,-0.7154,-0.7154,-0.7154,-0.7154,-0.7154,-0.7154,-0.7154,-0.7084,-0.685,-0.6801,-0.6725,-0.6478,-0.6437,-0.6437,-0.6437,-0.6437,-0.6437,-0.6437,-0.5937,-0.5436,-0.5035,-0.4033,-0.3331,-0.323,-0.323,-0.323,-0.323,-0.323,-0.323,-0.323,-0.323,-0.323,-0.323,-0.323,-0.323,-0.323,-0.323,-0.323,-0.323,-0.323,-0.323,-0.5802,-0.555,-0.5162,-0.505,-0.4836,-0.4703,0.0,-0.4601,-0.4525,-0.482,-0.4567,-0.4233,-0.4233,-0.3855,-0.3677,-0.3793,-0.3958,-0.424,-0.4673,0.0,0.0,0.0,0.0,0.0,0.0,0.0,0.0,0.0,0.0,0.0,-0.7154,-0.7154,-0.7154,-0.7154,-0.7154,-0.7154,-0.7154,-0.7157,-0.7157,-0.7157,-0.7157,-0.716,-0.716,-0.716,-0.716,-0.716,-0.7157,-0.7157,0.0,-0.7154,-0.7154,-0.7154,-0.7154,-0.7154,-0.7154,-0.7154,-0.7154,-0.7154,-0.7154,-0.7154,-0.7154,-0.7154,-0.7154,-0.7154,-0.7154,-0.7154,-0.7154,-0.7154,-0.7154,-0.7154,-0.7154,-0.7154,-0.7154,-0.7154,-0.7154,-0.7154,-0.7154,-0.7154,-0.7084,-0.685,-0.6801,-0.6725,-0.6478,-0.6437,-0.6437,-0.6437,-0.6437,-0.6437,-0.6437,-0.5937,-0.5634,-0.5634,-0.4634,-0.3732,-0.323,-0.323,-0.323,-0.323,-0.323,-0.323,-0.323,-0.323,-0.323,-0.323,-0.323,-0.323,-0.323,-0.323,-0.323,-0.323,-0.323,-0.323,-0.4787,-0.4722,-0.4686,-0.4651,-0.4463,-0.4366,-0.4603,-0.4451,-0.4399,-0.4798,-0.4508,-0.4177,-0.4177,-0.3855,-0.3648,-0.3846,-0.4012,-0.4213,0.0,0.0,0.0,0.0,0.0,0.0,0.0,0.0,0.0,0.0,0.0,0.0,-0.7154,-0.7154,-0.7154,-0.7154,-0.7154,-0.7154,-0.7154,-0.7154,-0.7154,-0.7154,-0.7154,-0.7154,-0.7154,-0.7154,-0.7154,-0.7154,-0.7154,-0.7154,-0.7154,-0.7154,-0.7154,-0.7154,-0.7154,-0.7154,-0.7154,-0.7154,-0.7154,-0.7154,-0.7154,-0.7154,-0.7154,-0.7154,-0.7154,-0.7154,-0.7154,-0.7154,-0.7154,-0.7154,-0.7154,-0.7154,-0.7154,-0.7154,-0.7154,-0.7154,-0.7154,-0.7154,-0.7154,-0.7095,-0.6991,-0.6834,-0.6736,-0.6627,-0.6464,-0.6437,-0.6437,-0.6437,-0.6437,-0.6437,-0.6437,-0.6237,-0.6037,-0.5636,-0.4935,-0.4334,-0.3833,-0.343,-0.323,-0.323,-0.323,-0.323,-0.323,-0.323,-0.323,-0.323,-0.323,-0.323,-0.323,-0.323,-0.323,-0.323,-0.323,-0.323,-0.4044,-0.4178,-0.4278,-0.4325,-0.4191,-0.4066,-0.4198,-0.4044,-0.3996,-0.4267,-0.4104,-0.3902,-0.3953,-0.3747,-0.3632,-0.3778,-0.3941,-0.4148,0.0,0.0,0.0,0.0,0.0,0.0,0.0,0.0,0.0,0.0,0.0,0.0,-0.7154,-0.7154,-0.7154,-0.7154,-0.7154,-0.7154,-0.7154,-0.7154,-0.7154,-0.7154,-0.7154,-0.7154,-0.7154,-0.7154,-0.7154,-0.7154,-0.7154,-0.7154,0.0,-0.7154,-0.7154,-0.7154,-0.7154,-0.7154,-0.7154,-0.7154,-0.7154,-0.7154,-0.7154,-0.7154,-0.7154,-0.7154,-0.7154,-0.7154,-0.7154,-0.7154,-0.7154,-0.7154,-0.7154,-0.7154,-0.7154,-0.7154,-0.7154,-0.7154,-0.7154,-0.7154,-0.7154,-0.7065,-0.6948,-0.6825,-0.6703,-0.6581,-0.6458,-0.6437,-0.6437,-0.6437,-0.6437,-0.6437,-0.6437,-0.6437,-0.6237,-0.5937,-0.5434,-0.4935,-0.4634,-0.3732,-0.323,-0.323,-0.323,-0.323,-0.323,-0.323,-0.323,-0.323,-0.323,-0.323,-0.323,-0.323,-0.323,-0.323,-0.323,-0.323,0.0,-0.3792,-0.3851,-0.4026,-0.3969,-0.3827,-0.3607,-0.3471,0.0,-0.34,-0.34,-0.3441,-0.3572,-0.3591,-0.3593,-0.3618,-0.3819,0.0,0.0,0.0,0.0,0.0,0.0,0.0,0.0,0.0,0.0,0.0,0.0,0.0,-0.713,-0.713,-0.7133,-0.7141,-0.7141,-0.7146,-0.7154,-0.7154,-0.7154,-0.7154,-0.7154,-0.7154,-0.7154,-0.7154,-0.7154,0.0,-0.7154,-0.7154,-0.7154,-0.7154,-0.7154,-0.7154,-0.7154,-0.7154,-0.7154,-0.7154,-0.7154,-0.7154,-0.7154,-0.7154,-0.7154,-0.7154,-0.7154,-0.7154,-0.7154,-0.7154,-0.7154,-0.7154,-0.7154,-0.7154,-0.7154,-0.7154,-0.7154,-0.7154,-0.7154,-0.7152,-0.7143,-0.7054,-0.6937,-0.6815,-0.669,-0.657,-0.6456,-0.6437,-0.6437,-0.6437,-0.6437,-0.6437,-0.6437,-0.6437,-0.6437,-0.6437,-0.5937,-0.5636,-0.5636,-0.4234,-0.3331,-0.3331,-0.323,-0.323,-0.323,-0.323,-0.323,-0.323,-0.323,-0.323,-0.323,-0.323,-0.323,-0.323,-0.323,-0.323,-0.3159,0.0,-0.3392,-0.3422,-0.3409,-0.3373,0.0,-0.3281,-0.3286,-0.3381,0.0,-0.3466,-0.3732,-0.3642,-0.3675,-0.3947,-0.4582,0.0,0.0,0.0,0.0,0.0,0.0,0.0,0.0,0.0,0.0,0.0,0.0,-0.6885,-0.6885,-0.6885,-0.6929,-0.7021,-0.7024,-0.7067,-0.7154,-0.7154,-0.7154,-0.7154,-0.7154,-0.7154,-0.7154,-0.7154,-0.7154,-0.7154,-0.7154,-0.7154,-0.7154,-0.7154,-0.7154,-0.7154,-0.7154,-0.7154,-0.7154,-0.7154,-0.7154,-0.7154,-0.7154,-0.7154,-0.7154,-0.7154,-0.7154,-0.7154,-0.7154,-0.7154,-0.7154,-0.7154,-0.7154,-0.7154,-0.7154,-0.7154,-0.7154,-0.7154,-0.7154,-0.713,-0.7043,-0.6931,-0.6809,-0.6684,-0.6562,-0.6469,-0.6442,-0.6437,-0.6437,-0.6437,-0.6437,-0.6437,-0.6437,-0.6437,-0.6437,-0.6437,-0.5937,-0.5636,-0.5636,-0.4834,-0.4435,-0.4435,-0.4033,-0.3831,-0.3831,-0.343,-0.323,-0.323,-0.323,-0.323,-0.323,-0.323,-0.323,-0.323,-0.323,-0.323,-0.2865,-0.3047,-0.3232,-0.3289,-0.3303,-0.3286,-0.3232,-0.3218,0.0,0.0,0.0,-0.3458,-0.3642,-0.3897,0.0,0.0,0.0,0.0,0.0,0.0,0.0,0.0,0.0,0.0,0.0,0.0,0.0,0.0,0.0,-0.6801,-0.6801,-0.6801,-0.6834,-0.6899,-0.6902,-0.6983,-0.7154,-0.7154,-0.7154,-0.7154,-0.7154,-0.7154,-0.7154,-0.7154,-0.7154,-0.7154,-0.7154,-0.7154,-0.7154,-0.7154,-0.7154,-0.7154,-0.7154,-0.7154,-0.7154,-0.7154,-0.7154,-0.7154,-0.7154,-0.7154,-0.7154,-0.7154,-0.7154,-0.7265,-0.7709,-0.7487,-0.7154,-0.7154,-0.7154,-0.7154,-0.7154,-0.7154,-0.7141,-0.7089,-0.7076,-0.7046,-0.6926,-0.6804,-0.6698,-0.6632,-0.6521,-0.6437,-0.6437,-0.6734,-0.6833,-0.6437,-0.7033,-0.7232,-0.6534,-0.6736,-0.6933,-0.6933,-0.6734,-0.6634,-0.703,-0.683,-0.6132,-0.4834,-0.4533,-0.4332,-0.4332,-0.3833,-0.343,-0.323,-0.323,-0.323,-0.323,-0.323,-0.323,-0.323,-0.323,-0.323,-0.2702,-0.2947,-0.3216,-0.3322,-0.336,-0.3346,-0.3243,0.0,0.0,0.0,0.0,0.0,0.0,0.0,0.0,0.0,0.0,0.0,0.0,0.0,0.0,0.0,0.0,0.0,0.0,0.0,0.0,0.0,0.0,-0.6747,-0.6747,-0.6747,-0.6755,-0.6774,-0.6774,-0.688,-0.7097,-0.71,-0.7111,-0.713,-0.713,-0.7138,-0.7154,-0.7154,-0.7154,-0.7154,0.0,0.0,-0.7154,-0.7154,-0.7154,-0.7154,-0.7154,-0.7265,-0.7376,-0.7265,-0.7376,-0.7595,-0.7595,-0.7595,-0.7595,-0.7595,-0.7595,-0.7706,-0.8481,-0.8149,-0.7595,-0.7595,-0.7374,-0.7154,-0.7154,-0.7141,-0.7103,-0.7008,-0.7078,-0.7138,-0.7012,-0.7004,-0.6921,-0.6901,-0.6807,-0.6734,-0.6734,-0.7332,-0.7531,-0.6833,-0.7928,-0.8326,-0.6933,-0.7332,-0.7829,-0.7829,-0.7829,-0.8028,-0.8726,-0.8825,-0.7826,-0.5534,-0.5233,-0.5035,-0.4834,-0.4332,-0.3833,-0.3331,-0.323,-0.323,-0.323,-0.323,-0.323,-0.323,-0.323,-0.323,-0.2827,-0.2949,-0.3021,-0.3048,-0.3126,-0.324,-0.3221,0.0,0.0,0.0,0.0,0.0,0.0,0.0,0.0,0.0,0.0,0.0,0.0,0.0,0.0,0.0,0.0,0.0,0.0,0.0,0.0,0.0,0.0,-0.6491,-0.6491,-0.6491,-0.654,-0.6643,-0.6646,-0.6714,-0.6855,-0.6855,-0.6907,-0.701,-0.701,-0.7062,-0.7154,-0.7154,-0.7154,-0.7154,0.0,-0.7154,-0.7154,-0.7154,-0.7154,-0.7154,-0.7154,-0.7598,-0.8263,-0.7487,-0.8146,-0.9357,-0.9357,-0.9357,-0.9357,-0.9357,-0.9357,-0.9467,-0.9578,-0.9467,-0.9357,-0.9357,-0.8367,-0.7154,-0.7154,-0.7084,-0.7008,-0.6989,-0.744,-0.7849,-0.7704,-0.817,-0.8624,-0.8489,-0.8443,-0.8425,-0.8425,-0.8524,-0.8528,-0.8425,-0.8627,-0.8722,-0.8428,-0.8524,-0.8623,-0.8623,-0.8623,-0.8623,-0.8825,-0.8825,-0.8627,-0.8226,-0.7129,-0.6032,-0.4834,-0.4332,-0.3932,-0.3833,-0.343,-0.323,-0.323,-0.323,-0.323,-0.323,-0.323,-0.323,-0.2623,-0.2851,-0.3011,-0.3075,-0.3479,-0.3834,-0.3834,-0.41,0.0,0.0,0.0,0.0,0.0,0.0,0.0,0.0,0.0,0.0,0.0,0.0,0.0,0.0,0.0,0.0,0.0,0.0,0.0,0.0,0.0,-0.6437,-0.6437,-0.6437,-0.6461,-0.6518,-0.6521,-0.6548,-0.6603,-0.7012,-0.7113,-0.6885,-0.6885,-0.6912,-0.6964,-0.6964,-0.6964,-0.6964,0.0,-0.718,-0.7612,-0.718,-0.7498,-0.8249,-0.7825,-0.8145,-0.8786,-0.8464,-0.8783,-0.9426,-0.9426,-0.9426,-0.9426,-0.9426,-0.9596,-0.9652,-1.0103,-0.9923,-0.9761,-1.0099,-0.9384,-0.8474,-0.8474,-0.837,-0.8136,-0.8062,-0.831,-0.8525,-0.8369,-0.8636,-0.8918,-0.884,-0.8825,-0.8825,-0.8825,-0.9122,-0.9324,-0.8825,-0.9517,-0.9813,-0.8924,-0.9225,-0.9422,-0.9422,-0.9422,-0.962,-1.0109,-1.0109,-0.9513,-0.8226,-0.7829,-0.683,-0.4834,-0.4834,-0.4734,-0.4435,-0.3632,-0.3531,-0.4033,-0.3531,-0.323,-0.323,-0.323,-0.323,-0.2498,-0.2751,-0.2965,-0.321,-0.3738,-0.4258,-0.4492,-0.488,0.0,0.0,0.0,0.0,0.0,0.0,0.0,0.0,0.0,0.0,0.0,0.0,0.0,0.0,0.0,0.0,0.0,0.0,0.0,0.0,-0.7431,-0.6933,-0.6933,-0.6734,-0.6734,-0.6933,-0.6734,-0.6734,-0.6933,-0.7531,-0.7557,-0.7072,-0.7072,-0.7089,-0.7118,-0.7118,-0.7118,-0.7118,-0.7326,-0.7744,-0.8272,-0.7638,-0.8056,-0.91,-0.8479,-0.8685,-0.9201,-0.9619,-0.9727,-0.9518,-0.9727,-0.9827,-0.9827,-0.9827,-0.9922,-1.0114,-1.0611,-1.046,-1.0114,-1.0611,-1.0431,-0.9879,-0.9492,-0.9271,-0.9116,-0.9002,-0.9146,-0.9183,-0.9153,-0.9221,-0.9316,-0.9316,-0.9316,-0.9316,-0.9316,-0.9916,-1.0113,-0.9418,-1.0404,-1.0797,-0.9517,-0.9916,-1.0314,-1.0314,-1.0314,-1.0511,-1.1194,-1.1194,-1.0301,-0.8326,-0.8528,-0.773,-0.5734,-0.5834,-0.5737,-0.5336,-0.4234,-0.3932,-0.4834,-0.3732,-0.323,-0.323,-0.323,-0.323,-0.258,-0.2691,-0.2819,-0.3275,-0.3542,-0.3866,-0.469,-0.4877,0.0,-0.5826,0.0,0.0,0.0,0.0,0.0,0.0,0.0,0.0,0.0,0.0,0.0,0.0,0.0,0.0,0.0,0.0,0.0,-0.9821,-0.9122,-0.8627,-0.8627,-0.7928,-0.7829,-0.8623,-0.7928,-0.7829,-0.8627,-0.8726,-0.841,-0.776,-0.776,-0.783,-0.7957,-0.7957,-0.7957,-0.7957,-0.8685,-0.9097,-0.9097,-0.9097,-0.9097,-0.9201,-0.91,-0.9097,-0.941,-1.098,-1.1088,-1.0568,-1.1295,-1.161,-1.161,-1.161,-1.162,-1.1629,-1.1719,-1.162,-1.1624,-1.1719,-1.149,-1.099,-0.96,-0.9105,-0.8987,-0.8976,-0.9461,-0.9937,-0.9924,-1.0507,-1.0998,-1.0998,-1.0998,-1.0998,-1.0998,-1.1096,-1.1096,-1.0998,-1.1096,-1.1194,-1.0998,-1.1096,-1.1096,-1.1096,-1.1096,-1.11,-1.1194,-1.1194,-1.0801,-0.9916,-0.9612,-0.9118,-0.8131,-0.7434,-0.7039,-0.7036,-0.5534,-0.4734,-0.4834,-0.3732,-0.323,-0.323,-0.323,-0.323,-0.2495,-0.2989,-0.3379,-0.3274,-0.3767,0.0,0.0,-0.5894,-0.6402,-0.6896,-0.7423,0.0,0.0,0.0,0.0,0.0,0.0,0.0,0.0,0.0,0.0,0.0,0.0,0.0,0.0,0.0,-0.9719,-1.0019,-0.9221,-0.8825,-0.8825,-0.8524,-0.8524,-0.8825,-0.8524,-0.8524,-0.8825,-0.9324,-0.9454,-0.9118,-0.8618,-0.8449,-0.8505,-0.8505,-0.8505,-0.8505,-0.8805,-0.921,-0.9617,-0.9109,-0.9509,-1.0418,-1.0418,-1.0418,-1.0519,-1.1225,-1.123,-1.1029,-1.133,-1.143,-1.143,-1.143,-1.152,-1.1605,-1.1472,-1.1524,-1.1605,-1.1468,-1.1378,-1.1165,-1.0755,-1.0457,-1.0414,-1.0414,-1.056,-1.0703,-1.0703,-1.0998,-1.1194,-1.1194,-1.1194,-1.1194,-1.1194,-1.1194,-1.1194,-1.1194,-1.1194,-1.1194,-1.1194,-1.1194,-1.1194,-1.1194,-1.1194,-1.1194,-1.1194,-1.1194,-1.1096,-1.0806,-1.031,-0.9513,-0.8226,-0.7829,-0.7726,-0.7922,-0.6526,-0.6126,-0.6828,-0.5033,-0.4234,-0.4133,-0.3531,-0.323,-0.2503,-0.3054,-0.3566,-0.3586,0.0,0.0,-0.5977,-0.6609,-0.7157,-0.7891,-0.847,0.0,0.0,0.0,0.0,0.0,0.0,0.0,0.0,0.0,0.0,0.0,0.0,0.0,0.0,0.0,-1.0347,-1.0408,-0.9912,-0.9513,-0.9513,-0.932,-0.932,-0.9513,-0.932,-0.932,-0.9513,-1.0113,-1.0413,-1.0413,-0.9813,-0.9418,-0.9225,-0.9225,-0.9225,-0.9221,-0.9418,-0.9912,-1.0314,-0.9813,-1.0207,-1.1194,-1.1194,-1.1194,-1.1194,-1.1194,-1.1194,-1.1194,-1.1194,-1.1194,-1.1194,-1.1194,-1.1293,-1.1387,-1.1241,-1.1298,-1.1387,-1.1236,-1.1194,-1.1231,-1.1378,-1.1307,-1.1194,-1.1194,-1.1194,-1.1194,-1.1194,-1.1194,-1.1194,-1.1194,-1.1194,-1.1194,-1.1194,-1.1194,-1.1194,-1.1194,-1.1194,-1.1194,-1.1194,-1.1194,-1.1194,-1.1194,-1.1194,-1.1194,-1.1194,-1.1194,-1.1194,-1.1194,-1.0806,-1.001,-0.8916,-0.8718,-0.8718,-0.8916,-0.7617,-0.7223,-0.8021,-0.6229,-0.5133,-0.4734,-0.4033,-0.3531,-0.2653,-0.2865,-0.3231,0.0,0.0,0.0,-0.6714,-0.688,-0.7094,-0.8668,0.0,-0.9091,0.0,0.0,0.0,0.0,0.0,0.0,0.0,0.0,0.0,0.0,0.0,0.0,0.0,-1.0896,-1.0976,-1.1179,-1.1194,-1.1194,-1.1194,-1.0413,-1.0413,-1.1194,-1.0413,-1.0413,-1.1194,-1.1194,-1.1194,-1.1194,-1.1194,-1.0801,-1.0019,-1.0019,-1.0019,-1.0019,-1.0806,-1.1194,-1.1194,-1.1194,-1.1194,-1.1194,-1.1194,-1.1194,-1.1194,-1.1194,-1.1194,-1.1194,-1.1194,-1.1194,-1.1194,-1.1194,-1.1194,-1.1194,-1.1194,-1.1194,-1.1194,-1.1194,-1.1194,-1.1194,-1.1194,-1.1194,-1.1194,-1.1194,-1.1194,-1.1194,-1.1194,-1.1194,-1.1194,-1.1194,-1.1194,-1.1194,-1.1194,-1.1194,-1.1194,-1.1194,-1.1194,-1.1194,-1.1194,-1.1194,-1.1194,-1.1194,-1.1194,-1.1194,-1.1194,-1.1194,-1.1194,-1.1194,-1.0998,-1.0801,-1.0801,-1.0314,-1.0019,-1.0019,-0.8722,-0.8021,-0.8021,-0.6921,-0.5827,-0.4834,-0.4834,-0.4234,-0.2675,-0.3414,0.0,0.0,0.0,0.0,0.0,-0.7368,0.0,0.0,0.0,0.0,0.0,0.0,0.0,0.0,0.0,0.0,0.0,0.0,0.0,0.0,0.0,0.0,-1.0664,-1.0806,-1.092,-1.0981,-1.1113,-1.1194,-1.1194,-1.0998,-1.0998,-1.1194,-1.0998,-1.0998,-1.1194,-1.1194,-1.1194,-1.1194,-1.1194,-1.1096,-1.0801,-1.0801,-1.0801,-1.0904,-1.11,-1.1194,-1.1194,-1.1194,-1.1194,-1.1194,-1.1194,-1.1194,-1.1194,-1.1194,-1.1194,-1.1194,-1.1194,-1.1194,-1.1194,-1.1194,-1.1194,-1.1194,-1.1194,-1.1194,-1.1194,-1.1194,-1.1194,-1.1194,-1.1194,-1.1194,-1.1194,-1.1194,-1.1194,-1.1194,-1.1194,-1.1194,-1.1194,-1.1194,-1.1194,-1.1194,-1.1194,-1.1194,-1.1194,-1.1194,-1.1194,-1.1194,-1.1194,-1.1194,-1.1194,-1.1194,-1.1194,-1.1194,-1.1194,-1.1194,-1.1194,-1.1194,-1.1096,-1.0998,-1.0806,-1.0314,-1.0019,-1.0019,-0.9422,-0.9126,-0.9126,-0.8021,-0.7024,-0.5927,-0.5131,-0.4234,-0.2962,-0.3791,0.0,0.0,0.0,0.0,0.0,0.0,0.0,0.0,0.0,0.0,0.0,0.0,0.0,0.0,0.0,0.0,0.0,0.0,0.0,0.0,0.0,0.0,-1.0447,-1.0575,-1.0683,-1.0764,-1.0877,-1.0948,-1.0948,-1.1033,-1.1075,-1.1075,-1.1151,-1.1194,-1.1194,-1.1194,-1.1194,-1.1194,-1.1194,-1.1194,-1.1194,-1.1194,-1.1194,-1.1194,-1.1194,-1.1194,-1.1194,-1.1194,-1.1194,-1.1194,-1.1194,-1.1194,-1.1194,-1.1194,-1.1194,-1.1194,-1.1194,-1.1194,-1.1194,-1.1194,-1.1194,-1.1194,-1.1194,-1.1194,-1.1194,-1.1194,-1.1194,-1.1194,-1.1194,-1.1194,-1.1194,-1.1194,-1.1194,-1.1194,-1.1194,-1.1194,-1.1194,-1.1194,-1.1194,-1.1194,-1.1194,-1.1194,-1.1194,-1.1194,-1.1194,-1.1194,-1.1194,-1.1194,-1.1194,-1.1194,-1.1194,-1.1194,-1.1194,-1.1194,-1.1194,-1.1194,-1.1194,-1.1096,-1.0806,-1.0511,-1.0314,-1.0314,-1.0019,-0.9821,-0.9727,-0.9122,-0.7922,-0.6423,-0.5727,-0.4632,-0.3377,0.0,0.0,0.0,0.0,0.0,0.0,0.0,0.0,0.0,0.0,0.0,0.0,0.0,0.0,0.0,0.0,0.0,0.0,0.0,0.0,0.0,0.0,-1.0114,-1.0314,-1.0353,-1.0348,-1.0532,-1.0565,-1.0575,-1.0575,-1.0759,-1.0868,-1.0868,-1.1042,-1.1137,-1.1137,-1.1156,-1.1165,-1.1165,-1.1184,-1.1194,-1.1194,-1.1194,-1.1194,-1.1194,-1.1194,-1.1194,-1.1194,-1.1194,-1.1194,-1.1194,-1.1194,-1.1194,-1.1194,-1.1194,-1.1194,-1.1194,-1.1194,-1.1194,-1.1194,-1.1194,-1.1194,-1.1194,-1.1194,-1.1194,-1.1194,-1.1194,-1.1194,-1.1194,-1.1194,-1.1194,-1.1194,-1.1194,-1.1194,-1.1194,-1.1194,-1.1194,-1.1194,-1.1194,-1.1194,-1.1194,-1.1194,-1.1194,-1.1194,-1.1194,-1.1194,-1.1194,-1.1194,-1.1194,-1.1194,-1.1194,-1.1194,-1.1194,-1.1194,-1.1194,-1.1194,-1.1194,-1.1194,-1.1096,-1.0806,-1.0806,-1.0801,-1.0801,-1.0511,-1.0314,-1.0019,-1.0019,-0.8817,-0.662,-0.652,-0.5327,-0.3764,-0.448,0.0,0.0,0.0,0.0,0.0,0.0,0.0,0.0,0.0,0.0,0.0,0.0,0.0,0.0,0.0,0.0,0.0,0.0,0.0,0.0,0.0,-1.0482,-1.0532,-1.0351,-1.0291,-1.0338,-1.0485,-1.0575,-1.0575,-1.0617,-1.0641,-1.0641,-1.0683,-1.0707,-1.0707,-1.0877,-1.0962,-1.0962,-1.1118,-1.1194,-1.1194,-1.1194,-1.1194,-1.1194,-1.1194,-1.1194,-1.1194,-1.1194,-1.1194,-1.1194,-1.1194,-1.1194,-1.1194,-1.1194,-1.1194,-1.1194,-1.1194,-1.1194,-1.1194,-1.1194,-1.1194,-1.1194,-1.1194,-1.1194,-1.1194,-1.1194,-1.1194,-1.1194,-1.1194,-1.1194,-1.1194,-1.1194,-1.1194,-1.1194,-1.1194,-1.1194,-1.1194,-1.1194,-1.1194,-1.1194,-1.1194,-1.1194,-1.1194,-1.1194,-1.1194,-1.1194,-1.1194,-1.1194,-1.1194,-1.1194,-1.1194,-1.1194,-1.1194,-1.1194,-1.1194,-1.1194,-1.1194,-1.1194,-1.1096,-1.09,-1.0703,-1.0511,-1.0413,-1.0413,-1.0314,-1.0314,-0.9612,-0.8209,-0.7214,-0.6022,-0.3698,0.0,0.0,0.0,0.0,0.0,0.0,0.0,0.0,0.0,0.0,0.0,0.0,0.0,0.0,0.0,0.0,0.0,0.0,0.0,0.0,0.0,-1.1063,-1.0809,-1.0636,-1.0747,-1.073,-1.047,-1.0746,-1.0806,-1.0626,-1.0734,-1.0702,-1.0428,-1.0523,-1.0575,-1.0575,-1.0683,-1.074,-1.074,-1.0849,-1.0953,-1.1057,-1.1151,-1.1194,-1.1194,-1.1194,-1.1194,-1.1194,-1.1194,-1.1194,-1.1194,-1.1194,-1.1194,-1.1194,-1.1194,-1.1194,-1.1194,-1.1194,-1.1194,-1.1194,-1.1194,-1.1194,-1.1194,-1.1194,-1.1194,-1.1194,-1.1194,-1.1194,-1.1194,-1.1194,-1.1194,-1.1194,-1.1194,-1.1194,-1.1194,-1.1194,-1.1194,-1.1194,-1.1194,-1.1194,-1.1194,-1.1194,-1.1194,-1.1194,-1.1194,-1.1194,-1.1194,-1.1194,-1.1194,-1.1194,-1.1194,-1.1194,-1.1194,-1.1194,-1.1194,-1.1194,-1.1194,-1.1194,-1.1194,-1.1194,-1.1096,-1.09,-1.0801,-1.0801,-1.0703,-1.0605,-1.0605,-1.0006,-0.8806,-0.811,-0.7018,-0.3535,0.0,0.0,0.0,0.0,0.0,0.0,0.0,0.0,0.0,0.0,0.0,0.0,0.0,0.0,0.0,0.0,0.0,0.0,0.0,0.0,0.0,-1.1494,-1.1241,-1.0895,-1.1063,-1.0982,-1.0636,-1.0895,-1.0982,-1.0636,-1.0818,-1.0751,-1.0394,-1.0467,-1.0557,-1.0466,-1.0504,-1.0523,-1.0523,-1.0556,-1.0669,-1.0844,-1.1009,-1.1127,-1.1194,-1.1194,-1.1194,-1.1194,-1.1194,-1.1194,-1.1194,-1.1194,-1.1194,-1.1194,-1.1194,-1.1194,-1.1194,-1.1194,-1.1194,-1.1194,-1.1194,-1.1194,-1.1194,-1.1194,-1.1194,-1.1194,-1.1194,-1.1194,-1.1194,-1.1194,-1.1194,-1.1194,-1.1194,-1.1194,-1.1194,-1.1194,-1.1194,-1.1194,-1.1194,-1.1194,-1.1194,-1.1194,-1.1194,-1.1194,-1.1194,-1.1194,-1.1194,-1.1194,-1.1194,-1.1194,-1.1194,-1.1194,-1.1194,-1.1194,-1.1194,-1.1194,-1.1194,-1.1194,-1.1194,-1.1194,-1.1194,-1.1194,-1.1194,-1.1194,-1.1096,-1.09,-1.09,-1.0301,-0.9201,-0.9004,-0.7912,0.0,0.0,0.0,0.0,0.0,0.0,0.0,0.0,0.0,0.0,0.0,0.0,0.0,0.0,0.0,0.0,0.0,0.0,0.0,0.0,0.0,0.0,-1.2186,-1.1843,-1.1843,-1.1154,-1.0636,-1.0636,-1.0381,-1.0294,-1.0549,-1.0666,-1.0594,-1.0594,-1.0624,-1.0465,-1.0119,-1.022,-1.0315,-1.0315,-1.049,-1.0589,-1.0617,-1.0641,-1.0853,-1.1194,-1.1194,-1.1194,-1.1194,-1.1194,-1.1194,-1.1194,-1.1194,-1.1194,-1.1194,-1.1194,-1.1194,-1.1194,-1.1194,-1.1194,-1.1194,-1.1194,-1.1194,-1.1194,-1.1194,-1.1194,-1.1194,-1.1194,-1.1194,-1.1194,-1.1194,-1.1194,-1.1194,-1.1194,-1.1194,-1.1194,-1.1194,-1.1194,-1.1194,-1.1194,-1.1194,-1.1194,-1.1194,-1.1194,-1.1194,-1.1194,-1.1194,-1.1194,-1.1194,-1.1194,-1.1194,-1.1194,-1.1194,-1.1194,-1.1194,-1.1194,-1.1194,-1.1194,-1.1194,-1.1194,-1.1194,-1.1194,-1.1194,-1.1194,-1.1194,-1.1194,-1.1194,-1.1194,-1.1096,-1.0895,-0.9694,-0.8609,-0.4085,0.0,0.0,0.0,0.0,0.0,0.0,0.0,0.0,0.0,0.0,0.0,0.0,0.0,0.0,0.0,0.0,0.0,0.0,0.0,0.0,0.0,-1.2528,-1.2272,-1.2015,-1.1843,-1.1585,-1.1068,-1.1068,-1.0982,-1.0636,-1.0636,-1.0636,-1.0636,-1.0376,-1.0294,-1.0381,-1.0216,-1.0093,-1.0093,-1.0182,-1.0291,-1.0405,-1.0405,-1.057,-1.0853,-1.0976,-1.1028,-1.1038,-1.1146,-1.1194,-1.1194,-1.1194,-1.1194,-1.1194,-1.1194,-1.1194,-1.1194,-1.1194,-1.1194,-1.1194,-1.1194,-1.1194,-1.1194,-1.1194,-1.1194,-1.1194,-1.1194,-1.1194,-1.1194,-1.1194,-1.1194,-1.1194,-1.1194,-1.1194,-1.1194,-1.1194,-1.1194,-1.1194,-1.1194,-1.1194,-1.1194,-1.1194,-1.1194,-1.1194,-1.1194,-1.1194,-1.1194,-1.1194,-1.1194,-1.1194,-1.1194,-1.1194,-1.1194,-1.1194,-1.1194,-1.1194,-1.1194,-1.1194,-1.1194,-1.1194,-1.1194,-1.1194,-1.1194,-1.1194,-1.1194,-1.1194,-1.1194,-1.1194,-1.1194,-1.0596,-0.9604,0.0,0.0,0.0,0.0,0.0,0.0,0.0,0.0,0.0,0.0,0.0,0.0,0.0,0.0,0.0,0.0,0.0,0.0,0.0,0.0,0.0,0.0,-1.2662,-1.2534,-1.2186,-1.2357,-1.2272,-1.1494,-1.1585,-1.1408,-1.0809,-1.0636,-1.0636,-1.0809,-1.0467,-1.0381,-1.0636,-1.0207,-1.0038,-1.0038,-1.0038,-1.0124,-1.0192,-1.0192,-1.0272,-1.0428,-1.0697,-1.0816,-1.083,-1.1038,-1.1118,-1.1127,-1.1175,-1.1194,-1.1194,-1.1194,-1.1194,-1.1194,-1.1194,-1.1194,-1.1194,-1.1194,-1.1194,-1.1194,-1.1194,-1.1194,-1.1194,-1.1194,-1.1194,-1.1194,-1.1194,-1.1194,-1.1194,-1.1194,-1.1194,-1.1194,-1.1194,-1.1194,-1.1194,-1.1194,-1.1194,-1.1194,-1.1194,-1.1194,-1.1194,-1.1194,-1.1194,-1.1194,-1.1194,-1.1194,-1.1194,-1.1194,-1.1194,-1.1194,-1.1194,-1.1194,-1.1194,-1.1194,-1.1194,-1.1194,-1.1194,-1.1194,-1.1194,-1.1194,-1.1194,-1.1194,-1.1194,-1.1194,-1.1194,-1.1194,-1.1194,-1.0404,0.0,0.0,0.0,0.0,0.0,0.0,0.0,0.0,0.0,0.0,0.0,0.0,0.0,0.0,0.0,0.0,0.0,0.0,0.0,0.0,0.0,0.0,-1.2554,-1.2705,-1.2705,-1.2272,-1.2015,-1.1929,-1.1154,-1.0809,-1.1241,-1.0809,-1.0809,-1.1235,-1.1241,-1.1068,-1.0636,-1.0207,-1.0038,-1.0038,-1.0038,-1.0043,-1.0057,-1.0057,-1.0062,-1.0095,-1.0414,-1.0589,-1.0608,-1.082,-1.091,-1.0929,-1.1123,-1.1194,-1.1194,-1.1194,-1.1194,-1.1194,-1.1194,-1.1194,-1.1194,-1.1194,-1.1194,-1.1194,-1.1194,-1.1194,-1.1194,-1.1194,-1.1194,-1.1194,-1.1194,-1.1194,-1.1194,-1.1194,-1.1194,-1.1194,-1.1194,-1.1194,-1.1194,-1.1194,-1.1194,-1.1194,-1.1194,-1.1194,-1.1194,-1.1194,-1.1194,-1.1194,-1.1194,-1.1194,-1.1194,-1.1194,-1.1194,-1.1194,-1.1194,-1.1194,-1.1194,-1.1194,-1.1194,-1.1194,-1.1194,-1.1194,-1.1194,-1.1194,-1.1194,-1.1194,-1.1194,-1.1194,-1.1194,-1.1194,-1.1194,-1.0703,0.0,0.0,0.0,0.0,0.0,0.0,0.0,0.0,0.0,0.0,0.0,0.0,0.0,0.0,0.0,0.0,0.0,0.0,0.0,0.0,0.0,0.0,-1.2143,-1.227,-1.2439,-1.2284,-1.2181,-1.2003,-1.1671,-1.1413,-1.1327,-1.0809,-1.0809,-1.1322,-1.0977,-1.0809,-1.0636,-1.0207,-1.0038,-1.0038,-1.0038,-1.0038,-1.0038,-1.0038,-1.0038,-1.0047,-1.0107,-1.0253,-1.0395,-1.0603,-1.0773,-1.0905,-1.0976,-1.1085,-1.1194,-1.1194,-1.1194,-1.1194,-1.1194,-1.1194,-1.1194,-1.1194,-1.1194,-1.1194,-1.1194,-1.1194,-1.1194,-1.1194,-1.1194,-1.1194,-1.1194,-1.1194,-1.1194,-1.1194,-1.1194,-1.1194,-1.1194,-1.1194,-1.1194,-1.1194,-1.1194,-1.1194,-1.1194,-1.1194,-1.1194,-1.1194,-1.1194,-1.1194,-1.1194,-1.1194,-1.1194,-1.1194,-1.1194,-1.1194,-1.1194,-1.1194,-1.1194,-1.1194,-1.1194,-1.1194,-1.1194,-1.1194,-1.1194,-1.1194,-1.1194,-1.1194,-1.1194,-1.1194,-1.1194,-1.1194,-1.1194,-1.0806,-0.3415,0.0,0.0,0.0,0.0,0.0,0.0,0.0,0.0,0.0,0.0,0.0,0.0,0.0,0.0,0.0,0.0,0.0,0.0,0.0,0.0,0.0,-1.1872,-1.1992,-1.2168,-1.2186,-1.2087,-1.2009,-1.1853,0.0,-1.1259,-1.091,-1.0898,-1.1322,-1.0982,-1.0722,-1.0636,-1.0463,-1.0381,-1.0207,-1.0381,-1.0467,-1.0467,-1.0294,-1.0207,-1.0207,-1.0038,-1.0119,-1.0182,-1.039,-1.0556,-1.0702,-1.0839,-1.0976,-1.1104,-1.117,-1.1194,-1.1194,-1.1194,-1.1194,-1.1194,-1.1194,-1.1194,-1.1194,-1.1194,-1.1194,-1.1194,-1.1194,-1.1194,-1.1194,-1.1194,-1.1194,-1.1194,-1.1194,-1.1194,-1.1194,-1.1194,-1.1194,-1.1194,-1.1194,-1.1194,-1.1194,-1.1194,-1.1194,-1.1194,-1.1194,-1.1194,-1.1194,-1.1194,-1.1194,-1.1194,-1.1194,-1.1194,-1.1194,-1.1194,-1.1194,-1.1194,-1.1194,-1.1194,-1.1194,-1.1194,-1.1194,-1.1194,-1.1194,-1.1194,-1.1194,-1.1194,-1.1194,-1.1194,-1.1194,-1.1194,-1.0605,0.0,0.0,0.0,0.0,0.0,0.0,0.0,0.0,0.0,0.0,0.0,0.0,0.0,0.0,0.0,0.0,0.0,0.0,0.0,0.0,0.0,0.0,-1.1745,-1.1902,-1.1908,-1.1908,-1.1914,-1.192,-1.1519,-1.1192,-1.1192,-1.1007,-1.099,-1.1305,-1.123,-1.1058,-1.0636,-1.1063,-1.1063,-1.0636,-1.1063,-1.1327,-1.1322,-1.0804,-1.0636,-1.0636,-1.0207,-1.0038,-1.0052,-1.0178,-1.0267,-1.0315,-1.0721,-1.0882,-1.091,-1.1104,-1.1179,-1.1184,-1.1184,-1.1189,-1.1194,-1.1194,-1.1194,-1.1194,-1.1194,-1.1194,-1.1194,-1.1194,-1.1194,-1.1194,-1.1194,-1.1194,-1.1194,-1.1194,-1.1194,-1.1194,-1.1194,-1.1194,-1.1194,-1.1194,-1.1194,-1.1194,-1.1194,-1.1194,-1.1194,-1.1194,-1.1194,-1.1194,-1.1194,-1.1194,-1.1194,-1.1194,-1.1194,-1.1194,-1.1194,-1.1194,-1.1194,-1.1194,-1.1194,-1.1194,-1.1194,-1.1194,-1.1194,-1.1194,-1.1194,-1.1194,-1.1194,-1.1194,-1.1194,-1.1194,-1.1194,-1.0306,-0.3572,0.0,0.0,0.0,0.0,0.0,0.0,0.0,0.0,0.0,0.0,0.0,0.0,0.0,0.0,0.0,0.0,0.0,0.0,0.0,0.0,0.0,-1.1292,-1.1413,-1.1618,-1.1636,-1.1715,0.0,-1.176,-1.168,-1.168,-1.1341,-1.1079,-1.0979,-1.0652,-1.0559,-1.0631,-1.0722,-1.0722,-1.0636,-1.1063,-1.1327,-1.1327,-1.1154,-1.1068,-1.1063,-1.0636,-1.0467,-1.0381,-1.0187,-1.013,-1.0286,-1.04,-1.0537,-1.0669,-1.0726,-1.0844,-1.0976,-1.0976,-1.1071,-1.1194,-1.1194,-1.1194,-1.1194,-1.1194,-1.1194,-1.1194,-1.1194,-1.1194,-1.1194,-1.1194,-1.1194,-1.1194,-1.1194,-1.1194,-1.1194,-1.1194,-1.1194,-1.1194,-1.1194,-1.1194,-1.1194,-1.1194,-1.1194,-1.1194,-1.1194,-1.1194,-1.1194,-1.1194,-1.1194,-1.1194,-1.1194,-1.1194,-1.1194,-1.1194,-1.1194,-1.1194,-1.1194,-1.1194,-1.1194,-1.1194,-1.1194,-1.1194,-1.1194,-1.1194,-1.1194,-1.1194,-1.1194,-1.1194,-1.1194,-1.1194,-1.0605,-0.441,-0.4671,0.0,0.0,0.0,0.0,0.0,-0.6981,0.0,0.0,0.0,0.0,0.0,0.0,0.0,0.0,0.0,0.0,0.0,0.0,0.0,0.0,-1.0948,-1.1057,-1.1329,-1.1359,-1.1419,-1.157,-1.1582,-1.1636,-1.1751,-1.1282,-1.0992,-1.0991,-1.0584,-1.032,-1.0278,-1.0624,-1.067,-1.0504,-1.1193,-1.1585,-1.1585,-1.1585,-1.1585,-1.158,-1.1068,-1.0895,-1.0895,-1.0636,-1.0372,-1.0149,-1.0239,-1.0348,-1.0456,-1.0542,-1.065,-1.0764,-1.0764,-1.0896,-1.1071,-1.1071,-1.1127,-1.1194,-1.1194,-1.1194,-1.1194,-1.1194,-1.1194,-1.1194,-1.1194,-1.1194,-1.1194,-1.1194,-1.1194,-1.1194,-1.1194,-1.1194,-1.1194,-1.1194,-1.1194,-1.1194,-1.1194,-1.1194,-1.1194,-1.1194,-1.1194,-1.1194,-1.1194,-1.1194,-1.1194,-1.1194,-1.1194,-1.1194,-1.1194,-1.1194,-1.1194,-1.1194,-1.1194,-1.1194,-1.1194,-1.1194,-1.1194,-1.1194,-1.1194,-1.1194,-1.1194,-1.1194,-1.1194,-1.1194,-1.1194,-1.0605,-0.5693,-0.5711,0.0,0.0,0.0,0.0,-0.6908,-0.7091,-0.7261,0.0,0.0,0.0,0.0,0.0,0.0,0.0,0.0,0.0,0.0,0.0,0.0,0.0,0.0,-1.0767,-1.1003,-1.1021,-1.1033,-1.1063,-1.1093,-1.122,-1.1467,-1.1093,-1.0897,-1.1146,-1.0836,-1.0444,-0.9989,-1.0595,-1.0778,-1.0366,-1.1346,-1.1889,-1.1975,-1.2003,-1.21,-1.2186,-1.1585,-1.1413,-1.1499,-1.1322,-1.0809,-1.0057,-1.0252,-1.0329,-1.0258,-1.0438,-1.0518,-1.0542,-1.0542,-1.0679,-1.0863,-1.0863,-1.0995,-1.1161,-1.1161,-1.1179,-1.1194,-1.1194,-1.1194,-1.1194,-1.1194,-1.1194,-1.1194,-1.1194,-1.1194,-1.1194,-1.1194,-1.1194,-1.1194,-1.1194,-1.1194,-1.1194,-1.1194,-1.1194,-1.1194,-1.1194,-1.1194,-1.1194,-1.1194,-1.1194,-1.1194,-1.1194,-1.1194,-1.1194,-1.1194,-1.1194,-1.1194,-1.1194,-1.1194,-1.1194,-1.1194,-1.1194,-1.1194,-1.1194,-1.1194,-1.1194,-1.1194,-1.1194,-1.1194,-1.1194,-1.1194,-1.0306,-0.6313,-0.641,-0.6489,-0.6155,0.0,0.0,-0.624,-0.6404,-0.6659,0.0,0.0,0.0,0.0,0.0,0.0,0.0,0.0,0.0,0.0,0.0,0.0,0.0,0.0,-1.0429,-1.0478,-1.0484,-1.0568,-1.0779,-1.0991,-1.1135,-1.119,-1.1115,-1.1012,-1.0891,-1.0819,-1.0677,-1.0384,-1.06,-1.0621,-1.0545,-1.1023,-1.1388,-1.1729,-1.1923,-1.2528,-1.3307,-1.2272,-1.2186,-1.2613,-1.1671,-1.0982,-1.0467,-1.0512,-1.0357,-1.0017,-1.006,-1.0182,-1.0334,-1.0334,-1.0466,-1.0636,-1.0636,-1.0778,-1.0953,-1.0953,-1.1066,-1.1194,-1.1194,-1.1194,-1.1194,-1.1194,-1.1194,-1.1194,-1.1194,-1.1194,-1.1194,-1.1194,-1.1194,-1.1194,-1.1194,-1.1194,-1.1194,-1.1194,-1.1194,-1.1194,-1.1194,-1.1194,-1.1194,-1.1194,-1.1194,-1.1194,-1.1194,-1.1194,-1.1194,-1.1194,-1.1194,-1.1194,-1.1194,-1.1194,-1.1194,-1.1194,-1.1194,-1.1194,-1.1194,-1.1194,-1.1194,-1.1194,-1.1194,-1.1194,-1.1194,-1.1194,-1.0306,-0.6924,-0.6902,-0.6939,-0.6665,0.0,0.0,0.0,-0.6605,-0.672,-0.7121,0.0,0.0,0.0,0.0,0.0,0.0,0.0,0.0,0.0,0.0,0.0,0.0,0.0,-0.9922,-1.0121,-1.0248,-1.0387,-1.0514,-1.0647,-1.0779,-1.0906,-1.0918,-1.0891,-1.093,-1.0789,-1.0616,-1.0506,-1.0469,-1.0523,-1.0841,-1.1254,-1.1852,-1.263,-1.285,-1.3413,-1.4153,-1.3548,-1.3548,-1.3802,-1.2869,-1.21,-1.1408,-1.0804,-1.0463,-1.0294,-1.0038,-1.0022,-1.0112,-1.0112,-1.0249,-1.0423,-1.0423,-1.0565,-1.0735,-1.0735,-1.0882,-1.1066,-1.1165,-1.1194,-1.1194,-1.1194,-1.1194,-1.1194,-1.1194,-1.1194,-1.1194,-1.1194,-1.1194,-1.1194,-1.1194,-1.1194,-1.1194,-1.1194,-1.1194,-1.1194,-1.1194,-1.1194,-1.1194,-1.1194,-1.1194,-1.1194,-1.1194,-1.1194,-1.1194,-1.1194,-1.1194,-1.1194,-1.1194,-1.1194,-1.1194,-1.1194,-1.1194,-1.1194,-1.1194,-1.1194,-1.1194,-1.1194,-1.1194,-1.1194,-1.1194,-1.0801,-0.9916,0.0,0.0,0.0,0.0,0.0,-0.7007,0.0,0.0,0.0,-0.7431,0.0,0.0,0.0,0.0,0.0,0.0,0.0,0.0,0.0,0.0,0.0,0.0,0.0,-0.9412,-0.9622,-0.9832,-1.0,-1.017,-1.0182,-1.0315,-1.0628,-1.0695,-1.0816,-1.1033,-1.0789,-1.0588,-1.0588,-1.0406,-1.0578,-1.1195,-1.1461,-1.2258,-1.336,-1.3716,-1.4159,-1.4733,-1.4713,-1.4734,-1.4741,-1.4068,-1.3392,-1.2528,-1.1241,-1.0636,-1.0463,-1.0125,-1.0038,-1.0038,-1.0038,-1.0152,-1.0211,-1.0211,-1.0348,-1.0523,-1.056,-1.0693,-1.0868,-1.1033,-1.1104,-1.1137,-1.1137,-1.1165,-1.1194,-1.1194,-1.1194,-1.1194,-1.1194,-1.1194,-1.1194,-1.1194,-1.1194,-1.1194,-1.1194,-1.1194,-1.1194,-1.1194,-1.1194,-1.1194,-1.1194,-1.1194,-1.1194,-1.1194,-1.1194,-1.1194,-1.1194,-1.1194,-1.1194,-1.1194,-1.1194,-1.1194,-1.1194,-1.1194,-1.1194,-1.1194,-1.1194,-1.1194,-1.1194,-1.0998,-1.0998,-1.0998,-1.0314,-0.9521,0.0,0.0,0.0,0.0,-0.749,0.0,0.0,0.0,-0.7176,-0.7236,0.0,0.0,0.0,0.0,0.0,0.0,0.0,0.0,0.0,0.0,0.0,0.0,0.0,-0.8783,-0.8813,-0.8837,-0.9052,-0.9538,-0.9574,-0.979,-1.0351,-1.0592,-1.0731,-1.0761,-1.0917,-1.1037,-1.1037,-1.0692,-1.0784,-1.1384,-1.1266,-1.1713,-1.2775,-1.3287,-1.4028,-1.4896,-1.4781,-1.4824,-1.4999,-1.4482,-1.4153,-1.3743,-1.1929,-1.0722,-1.0038,-1.0038,-1.0038,-1.0038,-1.0038,-1.0052,-0.9989,-0.9989,-1.013,-1.0343,-1.0518,-1.0589,-1.0617,-1.0636,-1.0783,-1.0929,-1.0929,-1.1061,-1.1194,-1.1194,-1.1194,-1.1194,-1.1194,-1.1194,-1.1194,-1.1194,-1.1194,-1.1194,-1.1194,-1.1194,-1.1194,-1.1194,-1.1194,-1.1194,-1.1194,-1.1194,-1.1194,-1.1194,-1.1194,-1.1194,-1.1194,-1.1194,-1.1194,-1.1194,-1.1194,-1.1194,-1.1194,-1.1194,-1.1194,-1.1194,-1.1194,-1.1194,-1.1194,-1.0511,-1.0117,-1.0117,-1.0019,-0.9225,0.0,0.0,0.0,0.0,0.0,0.0,-0.7973,0.0,-0.7762,0.0,0.0,0.0,0.0,0.0,0.0,0.0,-0.7913,0.0,0.0,0.0,0.0,0.0,0.0,0.0,-0.8709,-0.8543,-0.8609,-0.8986,-0.8878,-0.9088,-0.9772,-0.9916,-1.0248,-1.0707,-1.0828,-1.096,-1.1111,-1.126,-1.1706,-1.2305,-1.2425,-1.3098,-1.4118,-1.4231,-1.4795,-1.564,-1.5632,-1.5725,-1.5989,-1.5228,-1.4475,-1.3548,-1.218,-1.1499,-1.1068,-1.0294,-1.0038,-1.0038,-1.0038,-1.0038,-1.0038,-1.0038,-1.01,-1.0126,-1.0338,-1.04,-1.0423,-1.0542,-1.0636,-1.0735,-1.0863,-1.0957,-1.1052,-1.1165,-1.1194,-1.1194,-1.1194,-1.1194,-1.1194,-1.1194,-1.1194,-1.1194,-1.1194,-1.1194,-1.1194,-1.1194,-1.1194,-1.1194,-1.1194,-1.1194,-1.1194,-1.1194,-1.1194,-1.1194,-1.1194,-1.1194,-1.1194,-1.1194,-1.1194,-1.1194,-1.1194,-1.1194,-1.1194,-1.1194,-1.1194,-1.1194,-1.1194,-1.0413,-0.9723,-0.9324,-0.8825,-0.8226,-0.9613,0.0,0.0,0.0,0.0,0.0,0.0,0.0,0.0,0.0,0.0,0.0,0.0,0.0,0.0,-0.8308,0.0,-0.8084,0.0,0.0,0.0,0.0,0.0,0.0,0.0,-0.8269,-0.819,-0.8543,-0.8373,-0.8624,-0.9322,-0.9564,-0.9904,-1.0484,-1.0647,-1.081,-1.1003,-1.1668,-1.2305,-1.29,-1.3339,-1.4122,-1.5038,-1.4985,-1.53,-1.585,-1.6118,-1.6269,-1.6359,-1.5854,-1.5047,-1.3951,-1.3027,-1.2522,-1.2095,-1.0549,-1.0038,-1.0038,-1.0038,-1.0038,-1.0038,-1.0038,-1.0038,-1.0067,-1.0135,-1.0182,-1.0216,-1.0362,-1.0447,-1.0527,-1.0683,-1.0811,-1.0934,-1.1075,-1.1156,-1.1194,-1.1194,-1.1194,-1.1194,-1.1194,-1.1194,-1.1194,-1.1194,-1.1194,-1.1194,-1.1194,-1.1194,-1.1194,-1.1194,-1.1194,-1.1194,-1.1194,-1.1194,-1.1194,-1.1194,-1.1194,-1.1194,-1.1194,-1.1194,-1.1194,-1.1194,-1.1194,-1.1194,-1.1194,-1.1194,-1.1194,-1.1194,-1.0212,-0.9418,-0.8825,-0.7928,-0.7531,0.0,0.0,0.0,-0.8609,0.0,0.0,0.0,0.0,-0.8869,0.0,0.0,0.0,0.0,0.0,-0.8693,-0.8343,-0.8294,0.0,0.0,0.0,0.0,0.0,0.0,0.0,0.0,-0.7797,-0.752,0.0,-0.8239,-0.8463,-0.9083,-0.9762,-1.0116,-0.9952,-1.0453,-1.0725,-1.0731,-1.1573,-1.2305,-1.29,-1.3542,-1.4057,-1.4593,-1.5022,-1.5032,-1.493,-1.5834,-1.5983,-1.5702,-1.618,-1.6237,-1.5922,-1.4734,-1.3789,-1.276,-1.0722,-1.0038,-1.0038,-1.0038,-1.0038,-1.0038,-1.0038,-1.0038,-1.0043,-1.0047,-1.0047,-1.0052,-1.0057,-1.0121,-1.0282,-1.0291,-1.0594,-1.0896,-1.0905,-1.1052,-1.1194,-1.1194,-1.1194,-1.1194,-1.1194,-1.1194,-1.1194,-1.1194,-1.1194,-1.1194,-1.1194,-1.1194,-1.1194,-1.1194,-1.1194,-1.1194,-1.1194,-1.1194,-1.1194,-1.1194,-1.1194,-1.1194,-1.1194,-1.1194,-1.1194,-1.1194,-1.1194,-1.1194,-1.1194,-1.1194,-1.1194,-1.1194,-0.9612,-0.8825,-0.8825,-0.7928,-0.7232,-1.181,-1.1712,-1.1445,-1.0289,0.0,0.0,0.0,0.0,0.0,0.0,0.0,0.0,0.0,-0.9768,-0.9501,-0.9387,-0.8997,-0.855,0.0,0.0,0.0,0.0,0.0,0.0,0.0,0.0,0.0,0.0,-0.7801,0.0,-0.9017,-0.9151,-0.9457,-1.0109,-1.0318,-1.0544,-1.0719,-1.1939,-1.2673,-1.29,-1.384,-1.4418,-1.4569,-1.4768,-1.4877,-1.5115,-1.5427,-1.5581,-1.5654,-1.5927,-1.5655,-1.5005,-1.4719,-1.3782,-1.2431,-1.1235,-1.0467,-1.0038,-1.0038,-1.0038,-1.0038,-1.0038,-1.0038,-1.0038,-1.0038,-1.0038,-1.0038,-1.0038,-1.009,-1.0093,-1.0239,-1.0376,-1.0518,-1.065,-1.0735,-1.082,-1.0967,-1.1,-1.1038,-1.117,-1.1194,-1.1194,-1.1194,-1.1194,-1.1194,-1.1194,-1.1194,-1.1194,-1.1194,-1.1194,-1.1194,-1.1194,-1.1194,-1.1194,-1.1194,-1.1194,-1.1194,-1.1194,-1.1194,-1.1194,-1.1194,-1.1194,-1.1194,-1.1194,-1.1194,-1.1194,-1.1194,-0.9616,-0.8825,-0.8726,-0.7431,-0.6637,-1.2974,-1.2794,-1.2446,-1.1511,-1.1172,0.0,-1.01,0.0,-1.0455,0.0,0.0,0.0,0.0,0.0,-1.0073,-0.9946,-0.9453,-0.8904,0.0,-0.8192,0.0,0.0,0.0,0.0,0.0,0.0,-0.7863,-0.8171,-0.7914,0.0,0.0,-0.9157,-0.9411,-1.0063,-1.011,-1.0384,-1.0864,-1.2148,-1.2933,-1.3258,-1.4129,-1.4569,-1.4569,-1.4569,-1.4768,-1.4998,-1.5133,-1.5308,-1.5539,-1.5866,-1.564,-1.5087,-1.5255,-1.4287,-1.2772,-1.1832,-1.0804,-1.0038,-1.0038,-1.0038,-1.0038,-1.0038,-1.0038,-1.0038,-1.0038,-1.0038,-1.0038,-1.0038,-1.0038,-1.0071,-1.0121,-1.0216,-1.0305,-1.0438,-1.0523,-1.0612,-1.0754,-1.0839,-1.0934,-1.1061,-1.1146,-1.1194,-1.1194,-1.1194,-1.1194,-1.1194,-1.1194,-1.1194,-1.1194,-1.1194,-1.1194,-1.1194,-1.1194,-1.1194,-1.1194,-1.1194,-1.1194,-1.1194,-1.1194,-1.1194,-1.1194,-1.1194,-1.1194,-1.1194,-1.1194,-1.11,-1.0806,-0.9418,-0.8623,-0.8326,-0.7033,-0.6437]},{"header":{"parameterUnit":"m.s-1","parameterCategory":1,"la1":30.6,"la2":29.2853,"lo1":-89.7004,"lo2":-87.6739,"dy":0.0162,"dx":0.0183,"nx":112,"ny":82,"refTime":"2024-06-20T06:00:00:Z","depth":0,"parameterNumber":3,"parameterNumberName":"V-component_of_WINDS"},"data":[0.0,0.0,0.0,0.0,0.0,0.0,0.0,0.0,0.0,0.0,0.0,0.0,0.0,0.0,0.0,0.0,0.0,0.0,0.0,0.0,0.0,0.0,0.0,0.0,0.0,0.0,0.0,0.0,0.0,0.0,0.0,0.0,0.0,0.0,0.0,0.0,0.0,0.0,0.0,0.0,0.0,0.0,0.0,0.0,0.0,0.0,0.0,0.0,0.0,0.0,0.0,0.0,0.0,0.0,0.0,0.0,0.0,0.0,0.0,0.0,0.0,0.0,0.0,0.0,0.0,0.0,0.0,0.0,0.0,0.0,0.0,0.0,0.0,0.0,0.0,0.0,0.0,0.0,0.0,0.0,0.0,0.0,0.0,0.0,0.0,0.0,0.0,0.0,0.0,0.0,0.0,-2.8474,-3.2415,-3.4421,-3.349,-3.3275,-3.1484,-2.7454,0.0,0.0,0.0,0.0,0.0,0.0,0.0,0.0,0.0,0.0,0.0,0.0,0.0,0.0,0.0,0.0,0.0,0.0,0.0,0.0,0.0,0.0,0.0,0.0,0.0,0.0,0.0,0.0,0.0,0.0,0.0,0.0,0.0,0.0,0.0,0.0,0.0,0.0,0.0,0.0,0.0,0.0,0.0,0.0,0.0,0.0,0.0,0.0,0.0,0.0,0.0,0.0,0.0,0.0,0.0,0.0,0.0,0.0,0.0,0.0,0.0,0.0,0.0,0.0,0.0,0.0,0.0,0.0,0.0,0.0,0.0,0.0,0.0,0.0,0.0,0.0,0.0,0.0,0.0,0.0,0.0,0.0,0.0,0.0,0.0,0.0,0.0,0.0,0.0,0.0,0.0,0.0,0.0,0.0,0.0,0.0,0.0,0.0,0.0,0.0,0.0,0.0,0.0,0.0,-2.542,-3.0924,-3.4083,-3.5146,-3.3547,-3.2725,-3.1108,-2.8281,0.0,0.0,0.0,0.0,0.0,0.0,0.0,0.0,0.0,0.0,0.0,0.0,0.0,0.0,0.0,0.0,0.0,0.0,0.0,0.0,0.0,0.0,0.0,0.0,0.0,0.0,0.0,0.0,0.0,0.0,0.0,0.0,0.0,0.0,0.0,0.0,0.0,0.0,0.0,0.0,0.0,0.0,0.0,0.0,0.0,0.0,0.0,0.0,0.0,0.0,0.0,0.0,0.0,0.0,0.0,0.0,0.0,0.0,0.0,0.0,0.0,0.0,0.0,0.0,0.0,0.0,0.0,0.0,0.0,0.0,0.0,0.0,0.0,0.0,0.0,0.0,0.0,0.0,0.0,0.0,0.0,0.0,0.0,0.0,0.0,0.0,0.0,0.0,0.0,0.0,0.0,0.0,0.0,0.0,0.0,0.0,0.0,0.0,0.0,0.0,0.0,0.0,0.0,-2.5519,-2.8174,-3.236,-3.4722,-3.529,-3.3555,-3.3025,-3.1521,-2.8495,-2.6211,0.0,0.0,0.0,0.0,0.0,0.0,0.0,0.0,0.0,0.0,0.0,0.0,0.0,0.0,0.0,0.0,0.0,0.0,0.0,0.0,0.0,0.0,0.0,0.0,0.0,0.0,0.0,0.0,0.0,0.0,0.0,0.0,0.0,0.0,0.0,0.0,0.0,0.0,0.0,0.0,0.0,0.0,0.0,0.0,0.0,0.0,0.0,0.0,0.0,0.0,0.0,0.0,0.0,0.0,0.0,0.0,0.0,0.0,0.0,0.0,0.0,0.0,0.0,0.0,0.0,0.0,0.0,0.0,0.0,0.0,0.0,0.0,0.0,0.0,0.0,0.0,0.0,0.0,0.0,0.0,0.0,0.0,0.0,0.0,0.0,0.0,0.0,0.0,0.0,0.0,0.0,0.0,0.0,0.0,0.0,0.0,0.0,0.0,0.0,0.0,0.0,0.0,-2.8826,-3.1035,-3.3455,-3.5078,-3.5293,-3.3551,-3.3027,-3.1504,-2.8494,-2.5487,0.0,0.0,0.0,0.0,0.0,0.0,0.0,0.0,0.0,0.0,0.0,0.0,0.0,0.0,0.0,0.0,0.0,0.0,0.0,0.0,0.0,0.0,0.0,0.0,0.0,0.0,0.0,0.0,0.0,0.0,0.0,0.0,0.0,0.0,0.0,0.0,0.0,0.0,0.0,0.0,0.0,0.0,0.0,0.0,0.0,0.0,0.0,0.0,0.0,0.0,0.0,0.0,0.0,0.0,0.0,0.0,0.0,0.0,0.0,0.0,0.0,0.0,0.0,0.0,0.0,0.0,0.0,0.0,0.0,0.0,0.0,0.0,0.0,0.0,0.0,0.0,0.0,0.0,0.0,0.0,0.0,0.0,0.0,0.0,0.0,0.0,0.0,0.0,0.0,0.0,0.0,0.0,0.0,0.0,0.0,0.0,0.0,0.0,0.0,0.0,0.0,0.0,-2.9882,-3.2615,-3.4412,-3.5439,-3.5294,-3.3554,-3.1916,-3.0218,-2.8403,-2.4381,0.0,0.0,0.0,0.0,0.0,0.0,0.0,0.0,0.0,0.0,0.0,0.0,0.0,0.0,0.0,0.0,0.0,0.0,0.0,0.0,0.0,0.0,0.0,0.0,0.0,0.0,0.0,0.0,0.0,0.0,0.0,0.0,0.0,0.0,0.0,0.0,0.0,0.0,0.0,0.0,0.0,0.0,0.0,0.0,0.0,0.0,0.0,0.0,0.0,0.0,0.0,0.0,0.0,0.0,0.0,0.0,0.0,0.0,0.0,0.0,0.0,0.0,0.0,0.0,0.0,0.0,0.0,0.0,0.0,0.0,0.0,0.0,0.0,0.0,0.0,0.0,0.0,0.0,0.0,0.0,0.0,0.0,0.0,0.0,0.0,0.0,0.0,0.0,0.0,0.0,0.0,0.0,0.0,0.0,0.0,0.0,0.0,0.0,0.0,0.0,0.0,0.0,-2.9503,-3.2176,0.0,-3.5489,-3.5288,-3.3554,-3.2304,-3.0431,-2.7659,0.0,0.0,0.0,0.0,0.0,0.0,0.0,0.0,0.0,0.0,0.0,0.0,0.0,0.0,0.0,0.0,0.0,0.0,0.0,0.0,0.0,0.0,0.0,0.0,0.0,0.0,0.0,0.0,0.0,0.0,0.0,0.0,0.0,0.0,0.0,0.0,0.0,0.0,0.0,0.0,0.0,0.0,0.0,0.0,0.0,0.0,0.0,0.0,0.0,0.0,0.0,0.0,0.0,0.0,0.0,0.0,0.0,0.0,0.0,0.0,0.0,0.0,0.0,0.0,0.0,0.0,0.0,0.0,0.0,0.0,0.0,0.0,0.0,0.0,0.0,0.0,0.0,0.0,0.0,0.0,0.0,0.0,0.0,0.0,0.0,0.0,0.0,0.0,0.0,0.0,0.0,0.0,0.0,0.0,0.0,0.0,0.0,0.0,0.0,0.0,0.0,0.0,-2.727,-3.004,-3.2519,0.0,-3.5642,-3.5288,-3.3554,-3.2109,-3.006,-2.7173,0.0,0.0,0.0,0.0,0.0,0.0,0.0,0.0,0.0,0.0,0.0,0.0,0.0,0.0,0.0,0.0,0.0,0.0,0.0,0.0,0.0,0.0,0.0,0.0,0.0,0.0,0.0,0.0,0.0,0.0,0.0,0.0,0.0,0.0,0.0,0.0,0.0,0.0,0.0,0.0,0.0,0.0,0.0,0.0,0.0,0.0,0.0,0.0,0.0,0.0,0.0,0.0,0.0,0.0,0.0,0.0,0.0,0.0,0.0,0.0,0.0,0.0,0.0,0.0,0.0,0.0,0.0,0.0,0.0,0.0,0.0,0.0,0.0,0.0,0.0,0.0,0.0,0.0,0.0,0.0,0.0,0.0,0.0,0.0,0.0,0.0,0.0,0.0,0.0,0.0,0.0,0.0,0.0,0.0,0.0,0.0,0.0,0.0,0.0,0.0,0.0,0.0,-2.9045,-3.1816,-3.4081,-3.5815,-3.5991,-3.5288,-3.3554,-3.1075,-2.8852,0.0,0.0,0.0,0.0,0.0,0.0,0.0,0.0,0.0,0.0,0.0,0.0,0.0,0.0,0.0,0.0,0.0,0.0,0.0,0.0,0.0,0.0,0.0,0.0,0.0,0.0,0.0,0.0,0.0,0.0,0.0,0.0,0.0,0.0,0.0,0.0,0.0,0.0,0.0,0.0,0.0,0.0,0.0,0.0,0.0,0.0,0.0,0.0,0.0,0.0,0.0,0.0,0.0,0.0,0.0,0.0,0.0,0.0,0.0,0.0,0.0,0.0,0.0,0.0,0.0,0.0,0.0,0.0,0.0,0.0,0.0,0.0,0.0,0.0,0.0,0.0,0.0,0.0,0.0,0.0,0.0,0.0,0.0,0.0,0.0,0.0,0.0,0.0,0.0,0.0,0.0,0.0,0.0,0.0,0.0,0.0,0.0,0.0,0.0,0.0,0.0,0.0,0.0,-2.9045,-3.1816,-3.4081,-3.5815,-3.5991,-3.5288,-3.3554,-3.1582,-2.9201,-2.6273,0.0,0.0,0.0,0.0,0.0,0.0,0.0,0.0,0.0,0.0,0.0,0.0,0.0,0.0,0.0,0.0,0.0,0.0,0.0,0.0,0.0,0.0,0.0,0.0,0.0,0.0,0.0,0.0,0.0,0.0,0.0,0.0,0.0,0.0,0.0,0.0,0.0,0.0,0.0,0.0,0.0,0.0,0.0,0.0,0.0,0.0,0.0,0.0,0.0,0.0,0.0,0.0,0.0,0.0,0.0,0.0,0.0,0.0,0.0,0.0,0.0,0.0,0.0,0.0,0.0,0.0,0.0,0.0,0.0,0.0,0.0,0.0,0.0,0.0,0.0,0.0,0.0,0.0,0.0,0.0,0.0,0.0,0.0,0.0,0.0,0.0,0.0,0.0,0.0,0.0,0.0,0.0,0.0,0.0,0.0,0.0,0.0,0.0,0.0,0.0,0.0,0.0,-2.9474,-3.2018,-3.4072,-3.581,-3.6009,-3.5445,-3.404,-3.2321,-2.9997,-2.6893,0.0,0.0,0.0,0.0,0.0,0.0,0.0,0.0,0.0,0.0,0.0,0.0,0.0,0.0,0.0,0.0,0.0,0.0,0.0,0.0,0.0,0.0,0.0,0.0,0.0,0.0,0.0,0.0,0.0,0.0,0.0,0.0,0.0,0.0,0.0,0.0,0.0,0.0,0.0,0.0,0.0,0.0,0.0,0.0,0.0,0.0,0.0,0.0,0.0,0.0,0.0,0.0,0.0,0.0,0.0,0.0,0.0,0.0,0.0,0.0,0.0,0.0,0.0,0.0,0.0,0.0,0.0,0.0,0.0,0.0,0.0,0.0,0.0,0.0,0.0,0.0,0.0,0.0,0.0,0.0,0.0,0.0,0.0,0.0,0.0,0.0,0.0,0.0,0.0,0.0,0.0,0.0,0.0,0.0,0.0,0.0,0.0,0.0,0.0,0.0,0.0,0.0,-3.0157,-3.2397,-3.4159,-3.5819,-3.5995,-3.5659,-3.4778,-3.3099,-3.0971,-2.8372,0.0,0.0,0.0,0.0,0.0,0.0,0.0,0.0,0.0,0.0,0.0,0.0,0.0,0.0,0.0,0.0,0.0,0.0,0.0,0.0,0.0,0.0,0.0,0.0,0.0,0.0,0.0,0.0,0.0,0.0,0.0,0.0,0.0,0.0,0.0,0.0,0.0,0.0,0.0,0.0,0.0,0.0,0.0,0.0,0.0,0.0,0.0,0.0,0.0,0.0,0.0,0.0,0.0,0.0,0.0,0.0,0.0,0.0,0.0,0.0,-2.2266,0.0,0.0,0.0,0.0,0.0,0.0,0.0,0.0,0.0,0.0,0.0,0.0,0.0,0.0,0.0,0.0,0.0,0.0,0.0,0.0,0.0,0.0,0.0,0.0,0.0,0.0,0.0,0.0,0.0,0.0,0.0,0.0,0.0,0.0,0.0,0.0,0.0,0.0,0.0,0.0,0.0,-3.0313,-3.2923,-3.4823,-3.5897,-3.5995,-3.5659,-3.4778,-3.3099,-3.0971,-2.8372,-2.5464,0.0,0.0,0.0,0.0,0.0,0.0,0.0,0.0,0.0,0.0,0.0,0.0,0.0,0.0,0.0,0.0,0.0,0.0,0.0,0.0,0.0,0.0,0.0,0.0,0.0,0.0,0.0,0.0,0.0,0.0,0.0,0.0,0.0,0.0,0.0,0.0,0.0,0.0,0.0,0.0,0.0,0.0,0.0,0.0,0.0,0.0,0.0,0.0,0.0,0.0,0.0,0.0,0.0,0.0,0.0,0.0,0.0,0.0,0.0,0.0,-2.423,0.0,0.0,0.0,0.0,0.0,0.0,0.0,0.0,0.0,0.0,0.0,0.0,0.0,0.0,0.0,0.0,0.0,0.0,0.0,0.0,0.0,0.0,0.0,0.0,0.0,0.0,0.0,0.0,0.0,0.0,0.0,0.0,0.0,0.0,0.0,0.0,0.0,0.0,0.0,0.0,-3.0938,-3.371,-3.5644,-3.6484,-3.6589,-3.6215,-3.5357,-3.4069,-3.2371,-3.0203,-2.7262,0.0,0.0,0.0,0.0,0.0,0.0,0.0,0.0,0.0,0.0,0.0,0.0,0.0,0.0,0.0,0.0,0.0,0.0,0.0,0.0,0.0,0.0,0.0,0.0,0.0,0.0,0.0,0.0,0.0,0.0,0.0,0.0,0.0,0.0,0.0,0.0,0.0,0.0,0.0,0.0,0.0,0.0,0.0,0.0,0.0,0.0,0.0,0.0,0.0,0.0,0.0,0.0,0.0,-3.2723,-3.359,-3.4291,-3.4291,-3.4291,-3.4096,-3.0472,-2.8985,-2.898,-2.744,0.0,0.0,0.0,0.0,0.0,0.0,0.0,0.0,0.0,0.0,0.0,0.0,0.0,0.0,0.0,0.0,0.0,0.0,0.0,0.0,0.0,0.0,0.0,0.0,-3.4092,-3.3975,-2.97,0.0,0.0,0.0,0.0,0.0,0.0,0.0,0.0,0.0,0.0,0.0,-3.1807,-3.4609,-3.6513,-3.7335,-3.7297,-3.6902,-3.6181,-3.5187,-3.394,-3.2426,-2.9336,-2.6812,0.0,0.0,0.0,0.0,0.0,0.0,0.0,0.0,0.0,0.0,0.0,0.0,0.0,0.0,0.0,0.0,0.0,0.0,0.0,0.0,0.0,0.0,0.0,0.0,0.0,0.0,0.0,0.0,0.0,0.0,0.0,0.0,-1.697,-1.9526,0.0,0.0,0.0,0.0,0.0,0.0,0.0,0.0,0.0,0.0,0.0,0.0,0.0,-3.0852,-3.2372,-3.416,-3.5115,-3.5251,-3.6883,-3.772,-3.7837,-3.7837,-3.7837,-3.7798,-3.7214,0.0,-3.264,-3.167,0.0,0.0,0.0,0.0,0.0,0.0,0.0,0.0,0.0,0.0,0.0,0.0,0.0,0.0,0.0,0.0,0.0,0.0,0.0,0.0,0.0,0.0,-3.7187,-3.6657,-3.6694,-3.6674,0.0,-3.2831,-2.9186,-2.5975,-2.4667,0.0,0.0,0.0,0.0,0.0,0.0,0.0,-3.2868,-3.5452,-3.737,-3.8248,-3.7649,-3.7155,-3.7038,-3.5538,-3.4213,-3.3278,-3.1388,-2.9511,-2.7777,-2.5242,0.0,0.0,0.0,0.0,0.0,0.0,0.0,0.0,0.0,0.0,0.0,0.0,0.0,0.0,0.0,0.0,0.0,0.0,0.0,0.0,0.0,0.0,0.0,0.0,0.0,0.0,0.0,0.0,0.0,-1.7405,-1.999,-2.1104,-2.1333,-2.1194,0.0,0.0,0.0,0.0,0.0,0.0,0.0,0.0,0.0,-3.2849,-3.34,-3.4272,-3.5519,-3.772,-3.8811,-3.8831,-4.0545,-4.1364,-4.1364,-4.1364,-4.1364,-4.1364,-4.1364,-4.0526,-3.8889,-3.5597,-3.3492,-3.225,0.0,0.0,0.0,0.0,-3.1237,-3.1331,-3.2768,-3.3191,-3.2957,-3.2115,0.0,0.0,0.0,0.0,0.0,0.0,0.0,0.0,0.0,0.0,-3.7927,-3.8528,-3.9034,-3.927,-3.876,-3.7185,-3.4844,0.0,-3.0058,-2.8613,-2.5918,0.0,0.0,0.0,0.0,-3.2456,-3.4582,-3.7084,-3.8807,-3.9181,-3.8897,-3.8266,-3.7272,-3.6493,-3.548,-3.4155,-3.246,-3.0964,-2.9706,-2.7206,-2.5049,0.0,0.0,0.0,0.0,0.0,0.0,0.0,0.0,0.0,0.0,0.0,0.0,0.0,0.0,0.0,0.0,0.0,0.0,0.0,0.0,0.0,0.0,0.0,0.0,0.0,0.0,0.0,0.0,-2.0315,-2.2547,-2.2764,-2.3949,-2.4316,0.0,0.0,0.0,0.0,0.0,0.0,-3.2012,-3.2713,-3.4057,-3.6201,-3.6883,-3.7759,-3.8831,-4.0779,-4.1734,-4.1753,-4.3,-4.3598,-4.3598,-4.3598,-4.3598,-4.3598,-4.3598,-4.3598,-4.3286,-3.9221,-3.7038,-3.6181,-3.5364,-3.4905,-3.4811,-3.5669,-3.5734,-3.563,-3.7546,-3.7912,-3.7401,-3.6596,-3.5841,-3.4913,-3.3015,0.0,0.0,0.0,0.0,-3.5435,-3.719,-3.8224,-3.9161,-4.0467,-4.1091,-4.1231,-4.0584,-4.0274,-3.9186,0.0,-3.4642,-3.3163,-3.0407,0.0,0.0,0.0,0.0,-3.4669,-3.6423,-3.8495,-3.9891,-4.0106,-3.9925,-3.9182,-3.7662,-3.7331,-3.6551,-3.5032,-3.3551,-3.2362,-3.1505,-2.9223,-2.705,-2.5074,0.0,0.0,0.0,0.0,0.0,0.0,0.0,0.0,0.0,0.0,0.0,0.0,0.0,0.0,0.0,0.0,0.0,0.0,0.0,0.0,0.0,0.0,0.0,0.0,0.0,0.0,0.0,0.0,0.0,-2.541,-2.7686,0.0,0.0,0.0,0.0,-3.0472,-3.2129,-3.3868,-3.5558,-3.5694,-3.7272,-4.0662,-4.0818,-4.1617,-4.3247,-4.3403,-4.3461,-4.3481,-4.3559,-4.3598,-4.3598,-4.3598,-4.3598,-4.3598,-4.3598,-4.3598,-4.352,-4.2435,-4.15,-4.0682,-3.9825,-3.8967,-3.8344,-3.9226,-4.0045,-4.0721,-4.0857,-4.1383,-4.1851,-4.1033,-3.9107,-3.7043,-3.6926,-3.5793,0.0,0.0,-3.8173,-3.9889,-4.1624,-4.267,-4.3309,-4.3383,-4.2812,-4.2227,-4.2188,-4.1579,-4.0255,0.0,-3.6372,-3.5474,-3.4534,0.0,-3.3415,-3.4179,-3.5155,-3.6391,-3.816,-3.9207,-4.0117,-4.0955,-4.0292,-3.9435,-3.8519,-3.7681,-3.6805,-3.5889,-3.4973,-3.4116,-3.3298,-3.1563,-2.9401,-2.6829,-2.5113,0.0,0.0,0.0,0.0,0.0,0.0,0.0,0.0,0.0,0.0,0.0,0.0,0.0,0.0,0.0,0.0,0.0,0.0,0.0,0.0,0.0,0.0,0.0,0.0,0.0,0.0,0.0,0.0,-2.964,-3.1573,0.0,-3.1193,-3.2382,-3.3473,-3.4038,-3.622,-3.8013,-3.9182,-4.0273,-4.1422,-4.2669,-4.2708,-4.3,-4.3578,-4.4169,-4.4442,-4.4442,-4.5007,-4.526,-4.526,-4.526,-4.526,-4.526,-4.526,-4.526,-4.5241,-4.4949,-4.3975,-4.2689,-4.2377,-4.2065,-4.1831,-4.2124,-4.2435,-4.2708,-4.2708,-4.2903,-4.3098,-4.2806,-4.2071,-4.1318,-4.1318,-4.09,-4.056,-4.1145,-4.1769,-4.2393,-4.3005,-4.3389,-4.3604,-4.3604,-4.3364,-4.313,-4.313,-4.2916,-4.244,-4.1499,-3.975,-3.7948,-3.6555,-3.6518,-3.6416,-3.56,-3.7142,-3.8628,-3.926,-4.0097,-4.076,-4.1071,-4.0818,-4.0058,-3.8617,-3.8227,-3.7194,-3.5187,-3.4291,-3.3453,-3.2601,-3.1427,-2.9825,-2.7784,-2.6599,-2.4463,0.0,0.0,0.0,0.0,0.0,0.0,0.0,0.0,0.0,0.0,0.0,0.0,0.0,0.0,0.0,0.0,0.0,0.0,0.0,0.0,0.0,0.0,0.0,0.0,0.0,0.0,-3.1239,-3.2409,-3.4535,-3.548,-3.435,-3.5791,-3.7038,-3.7603,-3.9786,-4.1325,-4.1909,-4.3,-4.3741,-4.4033,-4.4033,-4.4325,-4.491,-4.5494,-4.5923,-4.6215,-4.68,-4.7072,-4.7072,-4.7072,-4.7072,-4.7072,-4.7072,-4.7072,-4.7072,-4.7072,-4.6391,-4.5299,-4.4715,-4.4481,-4.4481,-4.4481,-4.4481,-4.4481,-4.4481,-4.4286,-4.4033,-4.4033,-4.3838,-4.3598,-4.3598,-4.3598,-4.3663,-4.3955,-4.4033,-4.4111,-4.4403,-4.4481,-4.4481,-4.4481,-4.4247,-4.4033,-4.4033,-4.3819,-4.3598,-4.3598,-4.1992,-4.0272,-3.9117,-3.9174,-3.8993,-3.7825,-3.9135,-4.0234,-4.0234,-4.074,-4.111,-4.111,-4.111,-4.039,-3.8656,-3.8227,-3.7194,-3.5168,-3.3999,-3.3147,-3.2562,-3.1427,-2.9981,-2.8232,-2.7082,-2.5387,-2.3108,0.0,0.0,0.0,0.0,0.0,0.0,0.0,0.0,0.0,0.0,0.0,0.0,0.0,0.0,0.0,0.0,0.0,0.0,0.0,0.0,0.0,0.0,0.0,-2.8407,-3.1349,-3.3531,-3.359,-3.6551,-3.7935,-3.6259,-3.9162,-4.1149,-4.1188,-4.2708,-4.3637,-4.3637,-4.3695,-4.4111,-4.4949,-4.5007,-4.5825,-4.7521,-4.754,-4.7949,-4.8806,-4.8806,-4.8806,-4.8806,-4.8806,-4.8806,-4.8806,-4.8806,-4.8806,-4.8806,-4.8806,-4.8806,-4.8631,-4.6936,-4.6274,-4.6274,-4.6274,-4.6254,-4.6235,-4.6215,-4.565,-4.4929,-4.4929,-4.4364,-4.3676,-4.3676,-4.3676,-4.3858,-4.4695,-4.4929,-4.5144,-4.5981,-4.6196,-4.6196,-4.6196,-4.5553,-4.4929,-4.4929,-4.4286,-4.3676,-4.3676,-4.2981,-4.2377,-4.2357,-4.1695,-4.1169,-4.1149,-4.1149,0.0,-4.111,-4.111,-4.111,-4.111,-4.111,-4.0409,-3.8694,-3.774,-3.6844,-3.5928,-3.4311,-3.3395,-3.3356,-3.1739,-3.002,-2.831,-2.6634,-2.5777,-2.5777,0.0,0.0,0.0,0.0,0.0,0.0,0.0,0.0,0.0,0.0,0.0,0.0,0.0,0.0,0.0,0.0,0.0,0.0,0.0,0.0,0.0,0.0,-3.283,-3.283,-3.4759,-3.661,-3.7896,-3.9435,-4.0429,-4.0526,-4.1403,-4.2241,-4.2864,-4.3936,-4.454,-4.454,-4.5748,-4.6546,-4.678,-4.7404,-4.7949,-4.8436,-4.8436,-4.8553,-4.8806,-4.8806,-4.8806,-4.8806,-4.8806,-4.8806,-4.8806,-4.8806,-4.8806,-4.8806,-4.8806,-4.8806,-4.8748,-4.8261,-4.8086,-4.8086,-4.8086,-4.7696,-4.7053,-4.641,-4.604,-4.5845,-4.5845,-4.567,-4.5494,-4.5494,-4.5494,-4.5533,-4.5787,-4.5845,-4.5903,-4.6137,-4.6196,-4.6196,-4.6196,-4.602,-4.5845,-4.5845,-4.565,-4.5494,-4.5494,-4.4773,-4.3975,-4.3351,-4.3059,-4.2708,-4.2065,-4.1968,0.0,-4.1188,-4.111,-4.111,-4.111,-4.111,-4.0643,-3.9532,-3.8636,-3.7233,-3.509,-3.3979,-3.3127,-3.2484,-3.1992,-3.1213,-3.0117,-2.8388,-2.7511,0.0,0.0,0.0,0.0,0.0,0.0,0.0,0.0,0.0,0.0,0.0,0.0,0.0,0.0,0.0,0.0,0.0,0.0,0.0,0.0,0.0,0.0,-3.3668,-3.6356,-3.6727,-3.7642,-3.8928,-4.0643,-4.1286,-4.1929,-4.2767,-4.3176,-4.3604,-4.4111,-4.528,-4.5981,-4.5981,-4.7306,-4.8047,-4.8047,-4.8534,-4.8962,-4.9294,-4.9294,-4.9488,-4.9859,-4.9859,-4.9859,-4.9859,-4.9859,-4.9859,-4.9859,-4.9859,-4.9859,-4.9859,-4.9859,-4.9859,0.0,0.0,0.0,0.0,0.0,-4.8475,-4.7969,-4.7462,-4.7287,-4.7228,-4.6858,-4.6741,-4.6683,-4.6313,-4.6196,-4.6196,-4.6196,-4.6196,-4.6196,-4.6196,-4.6196,-4.6196,-4.6196,-4.6196,-4.6196,-4.6196,-4.6196,-4.6196,-4.6196,-4.5787,0.0,-4.4773,-4.4091,-4.3422,-4.2922,-4.2844,-4.2552,-4.1714,-4.1598,-4.1481,-4.1149,-4.111,-4.076,-3.9864,-3.9006,0.0,0.0,0.0,-3.3356,-3.2153,-3.2094,0.0,0.0,0.0,0.0,0.0,0.0,0.0,0.0,-2.9496,-2.9854,0.0,0.0,0.0,0.0,0.0,0.0,0.0,0.0,0.0,0.0,0.0,0.0,0.0,0.0,0.0,0.0,-3.6532,-3.8987,-3.9961,-4.0078,-4.0623,-4.2124,-4.2396,-4.2786,-4.3663,-4.4442,-4.4968,-4.5183,-4.6624,-4.754,-4.7637,0.0,0.0,0.0,0.0,-4.941,-5.0131,-5.0151,-5.0521,-5.13,-5.13,-5.13,-5.13,-5.13,-5.13,-5.13,-5.13,-5.13,-5.13,-5.13,-5.13,-5.1145,-4.9664,-4.9079,-4.906,-4.8962,-4.8943,-4.8923,-4.8826,0.0,0.0,-4.7891,-4.7657,-4.7501,-4.6722,-4.641,-4.6352,-4.6352,-4.6274,-4.6196,-4.6196,-4.6196,-4.6196,-4.6196,-4.6196,-4.6196,-4.6196,-4.6196,-4.6196,-4.6196,-4.6196,-4.6196,-4.6196,-4.4929,-4.3858,-4.376,-4.376,-4.3429,-4.2572,-4.2357,-4.2026,-4.1305,0.0,0.0,-4.0019,-3.9143,-3.8266,-3.7409,-3.5791,-3.4233,-3.2737,-3.2776,-3.2776,-3.2679,-3.3434,-3.4174,-3.4895,-3.5675,-3.6103,-3.6123,-3.2986,-3.2732,0.0,0.0,0.0,0.0,0.0,0.0,0.0,0.0,0.0,0.0,0.0,0.0,0.0,0.0,0.0,-3.6025,-3.8207,-4.0078,-4.1598,-4.1831,-4.1948,-4.226,-4.2922,-4.3702,-4.4559,-4.4793,-4.5475,-4.6897,-4.7306,-4.7813,-4.8514,-4.9313,-4.9761,-4.9761,-5.0443,-5.0891,-5.1047,-5.1047,-5.1125,-5.13,0.0,0.0,-5.13,-5.13,-5.13,-5.13,-5.13,-5.13,-5.13,-5.13,-5.13,-5.1261,-5.095,-5.0813,-5.0735,-5.0034,-4.9761,-4.9683,-4.9021,-4.8806,-4.8768,-4.8592,-4.8553,-4.8514,-4.8358,-4.7813,0.0,-4.7248,-4.6741,-4.6196,-4.6196,-4.6196,-4.6196,-4.6196,-4.6196,-4.6196,-4.6196,-4.6196,-4.6196,-4.6196,-4.6196,-4.6196,-4.6196,-4.5923,-4.5455,-4.4754,-4.4656,-4.4325,-4.3468,-4.2728,-4.2241,-4.2085,-4.15,-4.1033,-4.0857,-4.0058,-3.9182,-3.8305,-3.7272,-3.6551,-3.622,-3.6883,-3.6921,-3.622,-3.6376,-3.6532,-3.6707,-3.6863,-3.7311,-3.7954,-3.661,-3.624,0.0,0.0,0.0,0.0,0.0,0.0,0.0,0.0,0.0,0.0,0.0,-2.9596,-3.2221,0.0,-3.6142,-3.8733,-4.0214,-4.15,-4.2767,-4.3332,-4.3604,-4.3604,-4.3994,-4.4598,-4.5475,-4.5942,-4.6566,-4.7423,-4.828,-4.8943,-4.9372,-5.0209,-5.0657,-5.0657,-5.1067,-5.13,-5.13,-5.13,-5.13,-5.13,-5.13,-5.1534,-5.1943,-5.1943,-5.2197,-5.2606,-5.2606,-5.2606,-5.2567,-5.2138,-5.169,-5.13,-5.13,-5.13,-5.1242,-5.0813,-5.0657,-5.0599,-5.019,-5.0053,-4.9976,-4.9547,-4.9391,-4.9333,-4.8923,-4.8495,-4.8144,-4.8144,-4.7521,-4.6839,-4.6839,-4.6527,-4.6196,-4.6196,-4.6196,-4.6196,-4.6196,-4.6196,-4.6196,-4.6196,-4.6196,-4.6196,-4.6196,-4.6196,-4.604,-4.5611,-4.5553,-4.5241,-4.4364,-4.3877,-4.3429,-4.3,-4.2202,-4.1695,-4.1695,-4.0526,-3.961,-3.9182,-3.8324,-3.7857,-3.7857,-3.8266,-3.8305,-3.7857,-3.8285,-3.85,-3.85,-3.8948,-3.9376,-3.9786,-3.9357,-3.8928,0.0,0.0,0.0,0.0,0.0,0.0,0.0,0.0,-2.9257,-3.1548,-3.2122,-3.307,-3.5883,-3.7253,-3.8694,-4.0974,-4.2026,-4.2864,-4.3741,-4.4462,-4.4949,-4.5124,-4.5144,-4.5436,-4.6137,-4.6995,-4.756,-4.7735,-4.9157,-5.0073,-5.0248,-5.093,-5.13,-5.13,-5.13,-5.1378,-5.1554,-5.1554,-5.1632,-5.1807,-5.1807,-5.2177,-5.2859,-5.2859,-5.3249,-5.3911,-5.3911,-5.3911,-5.3853,-5.3151,-5.2333,-5.1554,-5.1554,-5.1456,-5.13,-5.13,-5.13,-5.13,-5.13,-5.13,-5.1183,-5.0482,-5.0248,-5.0131,-4.9488,-4.9177,-4.9021,-4.9021,-4.8417,-4.7754,-4.7754,-4.7111,-4.6449,-4.6449,-4.6313,-4.6196,-4.6196,-4.6196,-4.6196,-4.6196,-4.6196,-4.6196,-4.6196,-4.6196,-4.6196,-4.6196,-4.6196,-4.5942,-4.5241,-4.4988,-4.4637,-4.3936,-4.3078,-4.2474,-4.2318,-4.0916,-4.0058,-4.0058,-3.9396,-3.9006,-3.9006,-3.9006,-3.9006,-3.9006,-3.9688,-4.0058,-4.0058,-4.076,-4.111,-4.111,-4.1266,-4.0877,-2.3806,-2.4419,-2.5628,-2.7888,-2.8725,-3.0144,0.0,0.0,-3.5113,-3.619,-3.7053,-3.7753,-3.8149,-3.9552,-4.0994,-4.2007,-4.2883,-4.376,-4.4637,-4.4832,-4.5183,-4.5962,-4.604,-4.6079,-4.6196,-4.6995,-4.7813,-4.8592,-4.9488,-5.0346,-5.1106,-5.1242,-5.13,-5.13,-5.13,-5.1671,-5.245,-5.245,-5.284,-5.3619,-5.3619,-5.3658,-5.3755,-5.3755,-5.3814,-5.3911,-5.3911,-5.3911,-5.3892,-5.3794,-5.3249,-5.245,-5.245,-5.1982,-5.13,-5.13,-5.13,-5.13,-5.13,-5.13,-5.1281,-5.1183,-5.1145,-5.1145,-5.1047,-5.0482,-4.9878,-4.9878,-4.9274,-4.8651,-4.8651,-4.8008,-4.7345,-4.7345,-4.6761,-4.6196,-4.6196,-4.6196,-4.6196,-4.6196,-4.6196,-4.6196,-4.6196,-4.6196,-4.6196,-4.6196,-4.6196,-4.6157,-4.6059,-4.5377,-4.4851,-4.4754,-4.3975,-4.313,-4.2377,-4.1481,-4.0955,-4.0955,-4.0857,-4.0818,-4.0818,-4.0818,-4.0818,-4.0818,-4.0896,-4.0955,-4.0955,-4.1052,-4.111,-4.113,-4.1831,-4.1734,-2.6728,-2.7663,-2.8724,0.0,-3.1835,-3.3529,-3.5785,-3.6405,-3.6889,-3.8263,-3.8871,-3.9303,-3.985,-4.0981,-4.2065,0.0,-4.3799,-4.4656,-4.5533,-4.565,-4.5592,-4.5455,-4.5884,-4.6196,-4.6196,-4.7443,-4.8417,-4.8768,-5.0014,-5.093,-5.1281,-5.13,-5.13,-5.13,-5.13,-5.1729,-5.2586,-5.2606,-5.3034,-5.3911,-5.3911,-5.4164,-5.4671,-5.4671,-5.4924,-5.5411,-5.5411,-5.5139,-5.4671,-5.4671,-5.4145,-5.3307,-5.2801,-5.2372,-5.2002,-5.1495,-5.13,-5.13,-5.13,-5.13,-5.13,-5.13,-5.13,-5.13,-5.13,-5.1047,-5.0755,-5.0755,-5.0151,-4.9508,-4.9508,-4.8884,-4.8125,-4.7618,-4.7209,-4.6819,-4.6313,-4.6196,-4.6196,-4.6196,-4.6196,-4.6196,-4.6196,-4.6196,-4.6196,-4.6196,-4.6196,-4.6196,-4.6196,-4.5884,-4.5455,-4.4949,-4.4559,-4.3994,-4.3137,-4.2279,-4.1812,-4.1812,-4.1364,-4.111,-4.111,-4.111,-4.111,-4.111,-4.111,-4.111,-4.111,-4.111,-4.1344,-4.1812,-4.2143,-4.2396,-2.8612,-2.9831,0.0,-3.2343,-3.4441,-3.6284,-3.6676,-3.7443,-3.8403,-3.9675,-3.9956,-4.0196,-4.0855,-4.17,-4.2585,-4.3435,-4.4318,-4.5202,-4.6079,-4.5981,-4.5689,-4.5299,-4.5592,-4.5942,-4.6176,-4.756,-4.8534,-4.8787,-5.0104,-5.1031,-5.13,-5.1284,-5.1284,-5.13,-5.1534,-5.208,-5.2957,-5.321,-5.3755,-5.4613,-5.4613,-5.4944,-5.5567,-5.5567,-5.5899,-5.6503,-5.6503,-5.6132,-5.5567,-5.5567,-5.5041,-5.4164,-5.3307,-5.282,-5.2489,-5.1612,-5.13,-5.13,-5.13,-5.13,-5.13,-5.13,-5.13,-5.13,-5.13,-5.13,-5.13,-5.13,-5.0852,-5.0365,-5.0365,-4.9742,-4.8962,-4.8339,-4.7832,-4.7326,-4.6683,-4.6371,-4.6196,-4.6196,-4.6196,-4.6196,-4.6196,-4.6196,-4.6196,-4.6196,-4.6196,-4.6196,-4.6196,-4.6196,-4.5962,-4.5319,-4.5046,-4.4637,-4.4014,-4.3156,-4.2669,-4.2669,-4.2104,-4.1675,-4.1442,-4.1656,-4.1675,-4.1442,-4.1675,-4.1792,-4.1792,-4.1792,-4.2085,-4.2669,-4.2903,-4.3371,-2.8753,0.0,-3.2043,-3.45,-3.6522,-3.8161,-3.8989,-3.9966,-4.069,-4.0749,-4.0878,-4.0941,-4.0917,-4.1665,-4.2558,-4.3378,-4.4285,-4.5202,-4.6079,-4.5475,-4.5241,-4.6059,-4.5436,-4.526,0.0,-4.7014,-4.7891,-4.8748,-4.9506,-5.0334,-5.1261,-5.1239,-5.123,-5.13,-5.2119,-5.2976,-5.3853,-5.471,-5.5567,-5.6425,-5.6425,-5.6425,-5.6464,-5.6464,-5.6464,-5.6503,-5.6503,-5.6483,-5.6464,-5.6464,-5.5957,-5.508,-5.4203,-5.3346,-5.2489,-5.1612,-5.13,-5.13,-5.13,-5.13,-5.13,-5.13,-5.13,-5.13,-5.13,-5.13,-5.13,-5.13,-5.1281,-5.1261,-5.1261,-5.0618,-4.9956,-4.9937,-4.867,-4.7482,-4.7462,-4.68,-4.6196,-4.6196,-4.6196,-4.6196,-4.6196,-4.6196,-4.6196,-4.6196,-4.6196,-4.6196,-4.6196,-4.6196,-4.6196,-4.6157,-4.5397,-4.489,-4.4851,-4.4052,-4.3559,-4.3559,-4.3539,-4.315,-4.2299,-4.3078,-4.3137,-4.2279,-4.3091,-4.352,-4.352,-4.352,-4.3539,-4.3578,-4.4423,-4.4832,-3.0734,-3.2537,-3.4358,-3.632,-3.7708,-3.8865,-3.9869,-4.0361,-4.0462,-4.0029,-4.0004,-3.9888,-3.9349,-4.0431,-4.1726,-4.2571,-4.3948,-4.5202,-4.6079,-4.5942,-4.565,-4.5358,-4.5592,0.0,0.0,0.0,0.0,-4.8729,-4.9487,-5.0315,-5.1261,-5.1239,-5.123,-5.13,-5.2158,-5.3015,-5.3892,-5.4768,-5.5645,-5.6503,-5.6503,-5.6503,-5.6503,-5.6503,-5.6503,-5.6503,-5.6503,-5.6503,-5.6483,-5.6388,-5.6242,-5.5976,-5.5045,-5.4159,-5.3302,-5.2426,-5.1697,-5.1171,-5.1276,-5.13,-5.13,-5.13,-5.13,-5.13,-5.13,-5.13,-5.13,-5.13,-5.1276,-5.1239,-5.1239,-5.0977,-5.0577,-4.9994,-4.9479,-4.8777,-4.7612,-4.7163,-4.6811,-4.6192,-4.6075,-4.6084,-4.613,-4.6138,-4.6146,-4.6196,-4.6196,-4.6196,-4.6196,-4.6196,-4.6196,-4.6196,-4.5942,-4.5767,-4.5767,-4.4968,-4.4462,-4.4462,-4.3916,-4.3461,-4.3169,-4.3442,-4.3461,-4.3169,-4.3442,-4.3598,-4.3598,-4.3598,-4.3897,-4.4462,-4.4754,-4.5202,-3.3012,-3.4622,-3.5969,-3.7928,-3.888,-3.9509,-4.0202,-4.0219,-3.9865,-3.9146,-3.8828,-3.8433,-3.763,-3.8393,-3.9731,-4.1532,-4.2773,-4.4143,-4.5942,-4.5916,-4.5616,-4.5397,-4.5838,-4.6076,0.0,0.0,0.0,-4.8725,-4.944,-5.0256,-5.1191,-5.1201,-5.1337,-5.1724,-5.2598,-5.3483,-5.4359,-5.5236,-5.5957,-5.6503,-5.6503,-5.6503,-5.6503,-5.6503,-5.6474,-5.6417,-5.6417,-5.6407,-5.6388,-5.6297,-5.6317,-5.629,-5.5422,-5.4525,-5.365,-5.2794,-5.1897,-5.1117,-5.1211,-5.123,-5.123,-5.123,-5.123,-5.123,-5.123,-5.123,-5.123,-5.123,-5.1211,-5.1161,-5.1161,-5.1128,-5.0969,-5.0406,-5.0059,-4.9556,-4.8444,-4.7999,-4.7553,-4.6648,-4.6463,-4.6376,-4.6105,-4.6084,-4.6102,-4.6154,-4.6189,-4.6196,-4.6196,-4.6196,-4.6196,-4.6196,-4.6196,-4.6196,-4.6196,-4.5689,-4.5358,-4.5358,-4.4832,-4.4384,-4.4072,-4.4364,-4.4384,-4.4072,-4.4364,-4.454,-4.454,-4.454,-4.4812,-4.5358,-4.5358,-4.565,-3.5363,-3.631,-3.6955,-3.9323,-3.9998,-4.0081,-4.0062,-3.9593,-3.897,-3.808,-3.732,-3.6532,-3.5696,0.0,-3.6911,-4.0307,-4.1003,-4.2303,-4.5702,-4.5418,-4.5215,0.0,0.0,0.0,0.0,0.0,0.0,-4.8769,0.0,-5.0177,-5.1035,-5.1093,-5.1536,-5.2465,-5.3389,-5.4312,-5.5189,-5.6046,-5.6483,-5.6483,-5.6483,-5.6483,-5.6483,-5.6483,-5.6417,-5.6289,-5.6289,-5.6255,-5.6194,-5.6194,-5.6194,-5.6117,-5.5359,-5.4504,-5.3591,-5.2763,-5.1889,-5.1093,-5.1093,-5.1093,-5.1105,-5.1105,-5.1105,-5.1105,-5.1105,-5.1105,-5.1105,-5.1105,-5.1105,-5.1093,-5.1093,-5.1093,-5.1093,-5.1093,-5.0452,-4.985,-4.9812,-4.921,-4.8394,-4.7462,-4.7268,-4.6957,-4.6133,-4.6037,-4.6093,-4.6093,-4.6146,-4.6196,-4.6196,-4.6196,-4.6196,-4.6196,-4.6196,-4.6196,-4.6196,-4.6196,-4.6196,-4.6196,-4.6196,-4.5825,-4.4988,-4.5767,-4.5806,-4.4968,-4.5787,-4.6196,-4.6196,-4.6196,-4.6196,-4.6196,-4.6196,-4.6196,-3.6519,-3.8016,-3.9115,-3.9738,-3.9933,-3.9806,-3.9319,-3.8592,-3.7488,-3.5515,-3.4494,-3.3531,-3.218,0.0,0.0,-3.8691,-4.1207,0.0,-4.5745,-4.5833,0.0,-4.6986,0.0,-4.7349,-4.8283,-4.9066,0.0,0.0,-4.9699,-5.0177,-5.1035,-5.1056,-5.1464,-5.2399,-5.3277,-5.4163,-5.5038,-5.5874,-5.6306,-5.6349,-5.6349,-5.6349,-5.6349,-5.6349,-5.6297,-5.6219,-5.6219,-5.6207,-5.6194,-5.616,-5.6141,-5.6175,-5.5927,-5.491,-5.3604,-5.3377,-5.2302,-5.0947,-5.0947,-5.1017,-5.1105,-5.1105,-5.1105,-5.1105,-5.1105,-5.1105,-5.1105,-5.1105,-5.1069,-5.103,-5.103,-5.099,-5.0947,-5.0947,-5.0815,-5.0532,-4.9877,-4.9594,-4.9039,-4.7456,-4.6668,-4.6181,-4.5949,-4.5986,-4.6017,-4.6017,-4.6084,-4.6146,-4.6196,-4.6196,-4.6196,-4.6196,-4.6196,-4.6196,-4.6196,-4.6196,-4.6196,-4.6196,-4.6196,-4.6098,-4.5884,-4.6079,-4.6098,-4.5864,-4.6079,-4.6196,-4.6196,-4.6196,-4.6196,-4.6196,-4.6196,-4.6196,-3.8035,-3.9191,-3.9889,-3.9889,-3.9646,-3.9079,-3.7966,-3.6823,-3.5288,-3.287,-3.177,0.0,-2.9674,-3.1632,0.0,0.0,0.0,0.0,-4.5133,-4.5744,-4.6297,0.0,-4.7628,0.0,-4.9085,-4.9879,-5.0298,0.0,-5.0289,-5.0497,-5.0984,-5.1372,-5.1987,-5.29,-5.3793,-5.466,-5.5514,-5.5961,-5.6219,-5.6255,-5.6255,-5.6255,-5.6255,-5.6255,-5.6219,-5.616,0.0,-5.6146,-5.6117,-5.6071,-5.6071,-5.6117,-5.6071,-5.5029,-5.3557,-5.3557,-5.2442,-5.0906,-5.0906,-5.0947,-5.1017,-5.1017,-5.1017,-5.1017,-5.1017,-5.1017,-5.1017,-5.1017,-5.0976,-5.0966,-5.0966,-5.0937,-5.0906,-5.0906,-5.0937,-5.0816,-5.0326,-5.0259,-4.9766,-4.8019,-4.7002,-4.6313,-4.5925,-4.5898,-4.5964,-4.5964,-4.6007,-4.6084,-4.6146,-4.6189,-4.6196,-4.6196,-4.6196,-4.6196,-4.6196,-4.6196,-4.6196,-4.6196,-4.6196,-4.6196,-4.6196,-4.6196,-4.6196,-4.6196,-4.6196,-4.6196,-4.6196,-4.6196,-4.6196,-4.6196,-4.6196,-4.6196,-3.9494,-3.9889,-3.9889,-3.9889,-3.921,-3.8073,-3.6405,-3.4735,-3.2836,-3.0352,0.0,-2.8506,-2.7755,-2.9197,-3.1623,-3.513,0.0,-4.081,-4.4287,-4.5323,-4.615,-4.7315,-4.8063,-4.8858,-4.9846,-5.0583,-5.0961,-5.0906,-5.0906,-5.0906,-5.0906,-5.1663,-5.256,-5.3562,-5.4491,-5.5372,-5.6168,-5.6168,-5.6168,-5.6181,-5.6181,-5.6181,-5.6181,-5.6181,-5.6141,-5.6087,-5.6087,-5.604,-5.6012,-5.6012,-5.6012,-5.5993,-5.5877,-5.489,-5.3478,-5.3362,-5.2298,-5.0906,-5.0906,-5.0906,-5.0906,-5.0906,-5.0906,-5.0906,-5.0906,-5.0906,-5.0906,-5.0906,-5.0906,-5.0906,-5.0906,-5.0906,-5.0906,-5.0906,-5.0906,-5.0906,-5.0906,-5.0828,-5.0287,-4.8701,-4.7695,-4.6825,-4.5955,-4.5854,-4.5893,-4.5893,-4.5933,-4.6007,-4.6084,-4.6146,-4.6196,-4.6196,-4.6196,-4.6196,-4.6196,-4.6196,-4.6196,-4.6196,-4.6196,-4.6196,-4.6196,-4.6196,-4.6196,-4.6196,-4.6196,-4.6196,-4.6196,-4.6196,-4.6196,-4.6196,-4.6196,-4.6196,-3.9646,-3.9889,-3.9889,-3.9889,-3.8755,-3.7182,-3.5514,-3.3334,0.0,0.0,-2.7333,-2.6556,-2.5819,-2.8275,0.0,-3.4206,0.0,0.0,0.0,0.0,-4.5686,0.0,0.0,0.0,0.0,0.0,0.0,0.0,0.0,-5.0906,-5.0906,-5.1057,-5.1869,-5.3472,-5.4362,-5.523,-5.6043,-5.6043,-5.6056,-5.6117,-5.6117,-5.6117,-5.6117,-5.6117,-5.6071,-5.601,-5.601,0.0,-5.6012,-5.6012,-5.6012,-5.5935,-5.5277,-5.4387,-5.3401,-5.2685,-5.1776,-5.0906,-5.0906,-5.0906,-5.0906,-5.0906,-5.0906,-5.0906,-5.0906,-5.0906,-5.0906,-5.0906,-5.0906,-5.0906,-5.0906,-5.0906,-5.0906,-5.0906,-5.0906,-5.0906,-5.0906,-5.0384,-4.961,-4.8604,-4.7695,-4.6825,-4.5955,-4.5814,-4.5827,-4.5827,-4.5861,-4.5953,-4.6007,-4.6075,-4.6138,-4.6196,-4.6196,-4.6196,-4.6196,-4.6196,-4.6196,-4.6196,-4.6196,-4.6196,-4.6196,-4.6196,-4.6196,-4.6196,-4.6196,-4.6196,-4.6196,-4.6196,-4.6196,-4.6196,-4.6196,-4.6196,-3.9683,-3.9889,-3.9889,-3.9889,-3.8341,-3.6255,-3.4092,0.0,0.0,0.0,-2.5891,-2.5526,-2.5218,0.0,0.0,0.0,0.0,0.0,0.0,0.0,0.0,0.0,0.0,0.0,0.0,0.0,0.0,0.0,0.0,-5.0906,-5.0906,-5.1331,-5.2163,-5.3459,-5.3904,-5.431,-5.4697,-5.5161,-5.539,-5.5439,-5.5846,-5.6059,-5.6059,-5.6059,-5.6026,-5.5993,-5.5567,-5.5374,-5.5335,-5.489,-5.4697,-5.4658,-5.4271,-5.3594,-5.2763,-5.2337,-5.1641,-5.0906,-5.0906,-5.0906,-5.0906,-5.0906,-5.0906,-5.0906,-5.0906,-5.0906,-5.0906,-5.0906,-5.0906,-5.0906,-5.0906,-5.0906,-5.0906,-5.0906,-5.0906,-5.0906,-5.0906,-5.0596,-4.9939,-4.8643,-4.8063,-4.7366,-4.6032,-4.58,-4.58,-4.58,-4.5841,-4.5861,-4.5941,-4.6007,-4.6084,-4.6189,-4.6196,-4.6196,-4.6196,-4.6196,-4.6196,-4.6196,-4.6196,-4.6196,-4.6196,-4.6196,-4.6196,-4.6196,-4.6196,-4.6196,-4.6196,-4.6196,-4.6196,-4.6196,-4.6196,-4.6196,-3.9461,-3.9823,-3.9941,-3.9768,-3.789,-3.5393,-3.2779,-3.0338,0.0,0.0,-2.4999,-2.5032,-2.5106,0.0,0.0,0.0,0.0,0.0,0.0,0.0,0.0,0.0,0.0,0.0,0.0,0.0,0.0,0.0,0.0,0.0,-5.0906,-5.1544,-5.2318,-5.3188,-5.3207,-5.3304,-5.3498,-5.4175,-5.4523,-5.4523,-5.5161,-5.547,-5.547,-5.547,-5.547,-5.5432,-5.4793,-5.4523,-5.4465,-5.3768,-5.3498,-5.3478,-5.3285,-5.2801,-5.2182,-5.1989,-5.1486,-5.0906,-5.0906,-5.0906,-5.0906,-5.0906,-5.0906,-5.0906,-5.0906,-5.0906,-5.0906,-5.0906,-5.0906,-5.0906,-5.0906,-5.0906,-5.0906,-5.0906,-5.0906,-5.0906,-5.0906,-5.0906,-5.0403,-4.874,-4.8392,-4.785,-4.609,-4.58,-4.58,-4.58,-4.58,-4.5808,-4.5886,-4.5964,-4.6056,-4.6181,-4.6196,-4.6196,-4.6196,-4.6196,-4.6196,-4.6196,-4.6196,-4.6196,-4.6196,-4.6196,-4.6196,-4.6196,-4.6196,-4.6196,-4.6196,-4.6196,-4.6196,-4.6196,-4.6196,-4.6196,-3.8766,-3.9622,-4.0093,-3.9367,-3.7261,-3.4715,-3.2088,0.0,0.0,-2.5384,-2.5057,-2.5106,-2.5179,-2.6023,-2.7557,-3.0163,-3.2068,-3.4717,0.0,0.0,0.0,0.0,0.0,0.0,0.0,0.0,0.0,0.0,0.0,0.0,-5.0906,-5.0983,-5.1428,-5.2279,-5.2318,-5.2705,-5.3478,-5.3575,-5.3614,-5.3614,-5.3691,-5.373,-5.373,-5.373,-5.373,-5.373,-5.3652,-5.3614,0.0,-5.3536,-5.3498,-5.342,-5.2627,-5.226,-5.2105,-5.1312,-5.0983,-5.0906,-5.0906,-5.0906,-5.0906,-5.0906,-5.0906,-5.0906,-5.0906,-5.0906,-5.0906,-5.0906,-5.0906,-5.0906,-5.0906,-5.0906,-5.0906,-5.0906,-5.0906,-5.0906,-5.0906,-5.0906,-5.0403,-4.874,-4.8392,-4.785,-4.609,-4.58,-4.58,-4.58,-4.58,-4.5808,-4.5886,-4.5964,-4.6027,-4.6093,-4.6154,-4.6196,-4.6196,-4.6196,-4.6196,-4.6196,-4.6196,-4.6196,-4.6196,-4.6196,-4.6196,-4.6196,-4.6196,-4.6196,-4.6196,-4.6196,-4.6196,-4.6196,-4.6196,-4.6196,-3.771,-3.8889,-3.9497,-3.9172,-3.6842,-3.4074,-3.1904,0.0,-2.6574,-2.5264,-2.5038,-2.5113,-2.5141,-2.5522,-2.6333,-2.7923,-2.8791,-3.0743,0.0,0.0,0.0,0.0,0.0,0.0,0.0,0.0,0.0,0.0,0.0,0.0,-5.0906,-5.0906,-5.1061,-5.1409,-5.1428,-5.1583,-5.1931,-5.2453,-5.2724,-5.2724,-5.3246,-5.3498,-5.3498,-5.3498,-5.3498,-5.3459,-5.2937,-5.2724,0.0,-5.2144,-5.195,-5.1912,-5.1544,-5.1428,-5.1389,-5.1041,-5.0906,-5.0906,-5.0906,-5.0906,-5.0906,-5.0906,-5.0906,-5.0906,-5.0906,-5.0906,-5.0906,-5.0906,-5.0906,-5.0906,-5.0906,-5.0906,-5.0906,-5.0906,-5.0906,-5.0906,-5.0906,-5.0906,-5.0403,-4.874,-4.8392,-4.785,-4.609,-4.58,-4.58,-4.58,-4.58,-4.5814,-4.5841,-4.5905,-4.5975,-4.6027,-4.6138,-4.6196,-4.6196,-4.6196,-4.6196,-4.6196,-4.6196,-4.6196,-4.6196,-4.6196,-4.6196,-4.6196,-4.6196,-4.6196,-4.6196,-4.6196,-4.6196,-4.6196,-4.6196,-4.6196,-3.6082,-3.7563,-3.8401,-3.8151,-3.5977,-3.3333,0.0,-2.8567,-2.6258,-2.526,-2.5118,-2.5157,-2.5157,-2.5274,-2.5637,-2.6486,-2.7101,-2.879,-3.256,0.0,0.0,0.0,0.0,0.0,0.0,0.0,0.0,0.0,0.0,0.0,-5.0906,-5.0906,-5.0906,-5.0906,-5.0906,-5.0906,-5.0906,-5.1505,-5.1815,-5.1815,-5.2434,-5.2724,-5.2724,-5.2724,-5.2724,-5.2705,-5.2086,-5.1815,0.0,-5.1157,-5.0906,-5.0906,-5.0906,-5.0906,-5.0906,-5.0906,-5.0906,-5.0906,-5.0906,-5.0906,-5.0906,-5.0906,-5.0906,-5.0906,-5.0906,-5.0906,-5.0906,-5.0906,-5.0906,-5.0906,-5.0906,-5.0906,-5.0906,-5.0906,-5.0906,-5.0906,-5.0906,-5.0906,-5.0403,-4.874,-4.8392,-4.785,-4.609,-4.58,-4.58,-4.58,-4.58,-4.58,-4.58,-4.5867,-4.5929,-4.5975,-4.6093,-4.6189,-4.6196,-4.6196,-4.6196,-4.6196,-4.6196,-4.6196,-4.6196,-4.6196,-4.6196,-4.6196,-4.6196,-4.6196,-4.6196,-4.6196,-4.6196,-4.6196,-4.6196,-4.6196,-3.3763,-3.5546,-3.6729,-3.5936,-3.4408,-3.2434,0.0,-2.7865,-2.6333,-2.5386,-2.5254,-2.5293,-2.5293,-2.5412,-2.5754,-2.6566,-2.8161,-3.0172,-3.2734,0.0,0.0,0.0,0.0,0.0,0.0,0.0,0.0,0.0,0.0,0.0,-5.0906,-5.0906,-5.0906,-5.0906,-5.0906,-5.0906,-5.0906,-5.0925,-5.0925,-5.0925,-5.0925,-5.0945,-5.0945,-5.0945,-5.0945,-5.0945,-5.0925,-5.0925,0.0,-5.0906,-5.0906,-5.0906,-5.0906,-5.0906,-5.0906,-5.0906,-5.0906,-5.0906,-5.0906,-5.0906,-5.0906,-5.0906,-5.0906,-5.0906,-5.0906,-5.0906,-5.0906,-5.0906,-5.0906,-5.0906,-5.0906,-5.0906,-5.0906,-5.0906,-5.0906,-5.0906,-5.0906,-5.0906,-5.0403,-4.874,-4.8392,-4.785,-4.609,-4.58,-4.58,-4.58,-4.58,-4.58,-4.58,-4.5867,-4.5886,-4.5886,-4.6017,-4.6138,-4.6196,-4.6196,-4.6196,-4.6196,-4.6196,-4.6196,-4.6196,-4.6196,-4.6196,-4.6196,-4.6196,-4.6196,-4.6196,-4.6196,-4.6196,-4.6196,-4.6196,-4.6196,-3.1099,-3.257,-3.3344,-3.3093,-3.1758,-3.0115,-2.8656,-2.6959,-2.5601,-2.5271,-2.5245,-2.5302,-2.5302,-2.5412,-2.5956,-2.7368,-2.8548,-2.9979,0.0,0.0,0.0,0.0,0.0,0.0,0.0,0.0,0.0,0.0,0.0,0.0,-5.0906,-5.0906,-5.0906,-5.0906,-5.0906,-5.0906,-5.0906,-5.0906,-5.0906,-5.0906,-5.0906,-5.0906,-5.0906,-5.0906,-5.0906,-5.0906,-5.0906,-5.0906,-5.0906,-5.0906,-5.0906,-5.0906,-5.0906,-5.0906,-5.0906,-5.0906,-5.0906,-5.0906,-5.0906,-5.0906,-5.0906,-5.0906,-5.0906,-5.0906,-5.0906,-5.0906,-5.0906,-5.0906,-5.0906,-5.0906,-5.0906,-5.0906,-5.0906,-5.0906,-5.0906,-5.0906,-5.0906,-5.048,-4.9745,-4.8624,-4.7927,-4.7154,-4.5993,-4.58,-4.58,-4.58,-4.58,-4.58,-4.58,-4.5827,-4.5854,-4.5905,-4.5986,-4.6066,-4.613,-4.6162,-4.6196,-4.6196,-4.6196,-4.6196,-4.6196,-4.6196,-4.6196,-4.6196,-4.6196,-4.6196,-4.6196,-4.6196,-4.6196,-4.6196,-4.6196,-4.6196,-2.8326,-2.9727,-3.0443,-3.0772,-2.9824,-2.8481,-2.7276,-2.5897,-2.4876,-2.4831,-2.4859,-2.499,-2.5318,-2.5448,-2.584,-2.6884,-2.8045,-2.9515,0.0,0.0,0.0,0.0,0.0,0.0,0.0,0.0,0.0,0.0,0.0,0.0,-5.0906,-5.0906,-5.0906,-5.0906,-5.0906,-5.0906,-5.0906,-5.0906,-5.0906,-5.0906,-5.0906,-5.0906,-5.0906,-5.0906,-5.0906,-5.0906,-5.0906,-5.0906,0.0,-5.0906,-5.0906,-5.0906,-5.0906,-5.0906,-5.0906,-5.0906,-5.0906,-5.0906,-5.0906,-5.0906,-5.0906,-5.0906,-5.0906,-5.0906,-5.0906,-5.0906,-5.0906,-5.0906,-5.0906,-5.0906,-5.0906,-5.0906,-5.0906,-5.0906,-5.0906,-5.0906,-5.0906,-5.0268,-4.9436,-4.8566,-4.7695,-4.6825,-4.5955,-4.58,-4.58,-4.58,-4.58,-4.58,-4.58,-4.58,-4.5827,-4.5867,-4.591,-4.5986,-4.6017,-4.6138,-4.6196,-4.6196,-4.6196,-4.6196,-4.6196,-4.6196,-4.6196,-4.6196,-4.6196,-4.6196,-4.6196,-4.6196,-4.6196,-4.6196,-4.6196,-4.6196,0.0,-2.6981,-2.784,-2.8644,-2.8238,-2.7232,-2.5666,-2.4699,0.0,-2.4196,-2.4196,-2.4486,-2.5414,-2.555,-2.5569,-2.5743,-2.7174,0.0,0.0,0.0,0.0,0.0,0.0,0.0,0.0,0.0,0.0,0.0,0.0,0.0,-5.0732,-5.0732,-5.0751,-5.0809,-5.0809,-5.0848,-5.0906,-5.0906,-5.0906,-5.0906,-5.0906,-5.0906,-5.0906,-5.0906,-5.0906,0.0,-5.0906,-5.0906,-5.0906,-5.0906,-5.0906,-5.0906,-5.0906,-5.0906,-5.0906,-5.0906,-5.0906,-5.0906,-5.0906,-5.0906,-5.0906,-5.0906,-5.0906,-5.0906,-5.0906,-5.0906,-5.0906,-5.0906,-5.0906,-5.0906,-5.0906,-5.0906,-5.0906,-5.0906,-5.0906,-5.0887,-5.0828,-5.019,-4.9359,-4.8488,-4.7599,-4.6748,-4.5935,-4.58,-4.58,-4.58,-4.58,-4.58,-4.58,-4.58,-4.58,-4.58,-4.5867,-4.5905,-4.5905,-4.6075,-4.6189,-4.6189,-4.6196,-4.6196,-4.6196,-4.6196,-4.6196,-4.6196,-4.6196,-4.6196,-4.6196,-4.6196,-4.6196,-4.6196,-4.6196,-4.6196,-2.2474,0.0,-2.4138,-2.435,-2.4254,-2.4002,0.0,-2.3345,-2.3383,-2.406,0.0,-2.466,-2.6141,-2.5917,-2.6149,-2.8083,-2.9767,0.0,0.0,0.0,0.0,0.0,0.0,0.0,0.0,0.0,0.0,0.0,0.0,-4.8991,-4.8991,-4.8991,-4.9301,-4.9958,-4.9977,-5.0287,-5.0906,-5.0906,-5.0906,-5.0906,-5.0906,-5.0906,-5.0906,-5.0906,-5.0906,-5.0906,-5.0906,-5.0906,-5.0906,-5.0906,-5.0906,-5.0906,-5.0906,-5.0906,-5.0906,-5.0906,-5.0906,-5.0906,-5.0906,-5.0906,-5.0906,-5.0906,-5.0906,-5.0906,-5.0906,-5.0906,-5.0906,-5.0906,-5.0906,-5.0906,-5.0906,-5.0906,-5.0906,-5.0906,-5.0906,-5.0732,-5.0113,-4.932,-4.845,-4.756,-4.6689,-4.6032,-4.5838,-4.58,-4.58,-4.58,-4.58,-4.58,-4.58,-4.58,-4.58,-4.58,-4.5867,-4.5905,-4.5905,-4.5997,-4.6056,-4.6056,-4.6093,-4.6111,-4.6111,-4.6162,-4.6196,-4.6196,-4.6196,-4.6196,-4.6196,-4.6196,-4.6196,-4.6196,-4.6196,-4.6196,-2.0386,-2.1681,-2.2997,-2.3403,-2.3499,-2.3383,-2.2997,-2.29,0.0,0.0,0.0,-2.4602,-2.5917,-2.6078,0.0,0.0,0.0,0.0,0.0,0.0,0.0,0.0,0.0,0.0,0.0,0.0,0.0,0.0,0.0,-4.8392,-4.8392,-4.8392,-4.8624,-4.9088,-4.9107,-4.9687,-5.0906,-5.0906,-5.0906,-5.0906,-5.0906,-5.0906,-5.0906,-5.0906,-5.0906,-5.0906,-5.0906,-5.0906,-5.0906,-5.0906,-5.0906,-5.0906,-5.0906,-5.0906,-5.0906,-5.0906,-5.0906,-5.0906,-5.0906,-5.0906,-5.0906,-5.0906,-5.0906,-5.089,-5.0825,-5.0858,-5.0906,-5.0906,-5.0906,-5.0906,-5.0906,-5.0906,-5.0809,-5.0442,-5.0345,-5.0132,-4.9281,-4.8411,-4.7657,-4.7192,-4.6399,-4.58,-4.58,-4.5737,-4.5723,-4.58,-4.5692,-4.5661,-4.5766,-4.5757,-4.5708,-4.5708,-4.5737,-4.5752,-4.5673,-4.5703,-4.5802,-4.5997,-4.6027,-4.6047,-4.6047,-4.613,-4.6162,-4.6196,-4.6196,-4.6196,-4.6196,-4.6196,-4.6196,-4.6196,-4.6196,-4.6196,-1.9225,-2.0966,-2.2881,-2.3635,-2.3906,-2.3809,-2.3074,0.0,0.0,0.0,0.0,0.0,0.0,0.0,0.0,0.0,0.0,0.0,0.0,0.0,0.0,0.0,0.0,0.0,0.0,0.0,0.0,0.0,0.0,-4.8005,-4.8005,-4.8005,-4.8063,-4.8198,-4.8198,-4.8952,-5.05,-5.0519,-5.0596,-5.0732,-5.0732,-5.079,-5.0906,-5.0906,-5.0906,-5.0906,0.0,0.0,-5.0906,-5.0906,-5.0906,-5.0906,-5.0906,-5.089,-5.0874,-5.089,-5.0874,-5.0822,-5.0822,-5.0822,-5.0822,-5.0822,-5.0822,-5.0805,-5.0682,-5.0736,-5.0822,-5.0822,-5.0855,-5.0906,-5.0906,-5.0809,-5.0538,-4.9861,-4.9575,-4.9231,-4.8361,-4.7573,-4.7013,-4.6877,-4.624,-4.5737,-4.5737,-4.5645,-4.5613,-4.5723,-4.5545,-4.5475,-4.5708,-4.5645,-4.5563,-4.5563,-4.5563,-4.5528,-4.5419,-4.54,-4.5543,-4.5898,-4.5933,-4.5975,-4.5997,-4.6047,-4.613,-4.6189,-4.6196,-4.6196,-4.6196,-4.6196,-4.6196,-4.6196,-4.6196,-4.6196,-1.9799,-2.0985,-2.1843,-2.2036,-2.2597,-2.3055,-2.2919,0.0,0.0,0.0,0.0,0.0,0.0,0.0,0.0,0.0,0.0,0.0,0.0,0.0,0.0,0.0,0.0,0.0,0.0,0.0,0.0,0.0,0.0,-4.6187,-4.6187,-4.6187,-4.6535,-4.727,-4.7289,-4.7773,-4.8778,-4.8778,-4.9146,-4.9881,-4.9881,-5.0248,-5.0906,-5.0906,-5.0906,-5.0906,0.0,-5.0906,-5.0906,-5.0906,-5.0906,-5.0906,-5.0906,-5.0841,-5.0738,-5.0858,-5.0717,-5.0488,-5.0488,-5.0488,-5.0488,-5.0488,-5.0488,-5.0467,-5.0446,-5.0467,-5.0488,-5.0488,-5.0681,-5.0906,-5.0906,-5.0403,-4.9861,-4.9726,-4.9048,-4.8193,-4.7306,-4.6931,-4.6532,-4.5802,-4.5552,-4.5456,-4.5456,-4.5438,-4.5457,-4.5456,-4.5438,-4.54,-4.5475,-4.5438,-4.5419,-4.5419,-4.5419,-4.5419,-4.54,-4.54,-4.5438,-4.5493,-4.5658,-4.5815,-4.5997,-4.6047,-4.6102,-4.613,-4.6162,-4.6196,-4.6196,-4.6196,-4.6196,-4.6196,-4.6196,-4.6196,-1.8664,-2.0289,-2.1765,-2.223,-2.3277,-2.421,-2.421,-2.4503,0.0,0.0,0.0,0.0,0.0,0.0,0.0,0.0,0.0,0.0,0.0,0.0,0.0,0.0,0.0,0.0,0.0,0.0,0.0,0.0,0.0,-4.58,-4.58,-4.58,-4.5974,-4.638,-4.6399,-4.6593,-4.698,-4.692,-4.7596,-4.8991,-4.8991,-4.9184,-4.9552,-4.9552,-4.9552,-4.9552,0.0,-4.9521,-4.9457,-4.9521,-4.9434,-4.9295,-4.9404,-4.9332,-4.9202,-4.9258,-4.9183,-4.9064,-4.9064,-4.9064,-4.9064,-4.9064,-4.9369,-4.9656,-4.9108,-4.9324,-4.9635,-4.9089,-4.9429,-4.997,-4.997,-4.9354,-4.8621,-4.8178,-4.7739,-4.7145,-4.6281,-4.6033,-4.5879,-4.5477,-4.54,-4.54,-4.54,-4.5341,-4.532,-4.54,-4.526,-4.5197,-4.5381,-4.5341,-4.53,-4.53,-4.53,-4.5258,-4.5132,-4.5132,-4.5241,-4.5493,-4.5563,-4.5703,-4.5997,-4.5997,-4.6007,-4.6056,-4.6146,-4.6154,-4.6093,-4.6154,-4.6196,-4.6196,-4.6196,-4.6196,-1.7774,-1.9573,-2.1436,-2.2842,-2.4284,-2.5447,-2.5803,-2.6329,0.0,0.0,0.0,0.0,0.0,0.0,0.0,0.0,0.0,0.0,0.0,0.0,0.0,0.0,0.0,0.0,0.0,0.0,0.0,0.0,-4.5629,-4.5708,-4.5708,-4.5737,-4.5737,-4.5708,-4.5737,-4.5737,-4.5708,-4.5613,-4.64,-4.8037,-4.8037,-4.8153,-4.8346,-4.8346,-4.8346,-4.8346,-4.8295,-4.821,-4.8142,-4.8227,-4.8139,-4.7933,-4.8086,-4.803,-4.7894,-4.7811,-4.7809,-4.7851,-4.7809,-4.7769,-4.7769,-4.7769,-4.8228,-4.8627,-4.7861,-4.8174,-4.8627,-4.7861,-4.8041,-4.8556,-4.8832,-4.8258,-4.7452,-4.6858,-4.6511,-4.6166,-4.5495,-4.5321,-4.5282,-4.5282,-4.5282,-4.5282,-4.5282,-4.5194,-4.5151,-4.5281,-4.5065,-4.4972,-4.526,-4.5194,-4.5125,-4.5125,-4.5125,-4.508,-4.4895,-4.4895,-4.5068,-4.5475,-4.5457,-4.558,-4.5873,-4.5861,-4.5893,-4.5941,-4.6075,-4.6102,-4.5997,-4.6138,-4.6196,-4.6196,-4.6196,-4.6196,-1.8355,-1.9148,-2.0057,-2.3306,-2.4807,-2.5865,-2.7295,-2.7659,0.0,-2.9628,0.0,0.0,0.0,0.0,0.0,0.0,0.0,0.0,0.0,0.0,0.0,0.0,0.0,0.0,0.0,0.0,0.0,-4.5235,-4.5341,-4.5438,-4.5438,-4.5545,-4.5563,-4.5419,-4.5545,-4.5563,-4.5438,-4.5419,-4.5936,-4.7,-4.7,-4.7424,-4.8195,-4.8195,-4.8195,-4.8195,-4.803,-4.7914,-4.7914,-4.7914,-4.7914,-4.7894,-4.7933,-4.7914,-4.7853,-4.7558,-4.7552,-4.7671,-4.7504,-4.7448,-4.7448,-4.7448,-4.7486,-4.7524,-4.7441,-4.7486,-4.7505,-4.7441,-4.6954,-4.6673,-4.7716,-4.7395,-4.6781,-4.6724,-4.599,-4.529,-4.5233,-4.5061,-4.4943,-4.4943,-4.4943,-4.4943,-4.4943,-4.4919,-4.4919,-4.4943,-4.4919,-4.4895,-4.4943,-4.4919,-4.4919,-4.4919,-4.4919,-4.4938,-4.4895,-4.4895,-4.4991,-4.5194,-4.522,-4.5322,-4.553,-4.5648,-4.5731,-4.5712,-4.5898,-4.6007,-4.5997,-4.6138,-4.6196,-4.6196,-4.6196,-4.6196,-1.7755,-1.942,-2.1039,-2.2931,-2.5208,0.0,0.0,-2.9296,-3.0447,-3.21,-3.2803,0.0,0.0,0.0,0.0,0.0,0.0,0.0,0.0,0.0,0.0,0.0,0.0,0.0,0.0,0.0,-4.5237,-4.5192,-4.5321,-4.54,-4.54,-4.5438,-4.5438,-4.54,-4.5438,-4.5438,-4.54,-4.532,-4.5453,-4.584,-4.5937,-4.6147,-4.6454,-4.6454,-4.6454,-4.6454,-4.6378,-4.63,-4.6237,-4.632,-4.6219,-4.6043,-4.6043,-4.6043,-4.602,-4.5873,-4.5892,-4.5941,-4.5867,-4.5843,-4.5843,-4.5843,-4.6203,-4.6544,-4.6013,-4.6222,-4.6544,-4.5994,-4.5634,-4.5626,-4.6587,-4.6214,-4.5563,-4.5563,-4.5289,-4.5014,-4.5014,-4.4943,-4.4895,-4.4895,-4.4895,-4.4895,-4.4895,-4.4895,-4.4895,-4.4895,-4.4895,-4.4895,-4.4895,-4.4895,-4.4895,-4.4895,-4.4895,-4.4895,-4.4895,-4.4895,-4.4919,-4.501,-4.5106,-4.5241,-4.5493,-4.5563,-4.556,-4.5507,-4.5708,-4.5764,-4.5684,-4.5956,-4.6075,-4.6084,-4.6154,-4.6196,-1.7813,-1.9844,-2.1899,-2.33,0.0,0.0,-2.9379,-3.0763,-3.2283,-3.4179,-3.4945,0.0,0.0,0.0,0.0,0.0,0.0,0.0,0.0,0.0,0.0,0.0,0.0,0.0,0.0,0.0,-4.4817,-4.5084,-4.5175,-4.5241,-4.5241,-4.5301,-4.5301,-4.5241,-4.5301,-4.5301,-4.5241,-4.5151,-4.5103,-4.5103,-4.5197,-4.5281,-4.5341,-4.5341,-4.5341,-4.5321,-4.5281,-4.5175,-4.5125,-4.5197,-4.5109,-4.4895,-4.4895,-4.4895,-4.4895,-4.4895,-4.4895,-4.4895,-4.4895,-4.4895,-4.4895,-4.4895,-4.5293,-4.5672,-4.5085,-4.5312,-4.5672,-4.5066,-4.4895,-4.5047,-4.5634,-4.535,-4.4895,-4.4895,-4.4895,-4.4895,-4.4895,-4.4895,-4.4895,-4.4895,-4.4895,-4.4895,-4.4895,-4.4895,-4.4895,-4.4895,-4.4895,-4.4895,-4.4895,-4.4895,-4.4895,-4.4895,-4.4895,-4.4895,-4.4895,-4.4895,-4.4895,-4.4895,-4.501,-4.5154,-4.5342,-4.5381,-4.5381,-4.5342,-4.5519,-4.5603,-4.549,-4.5769,-4.5944,-4.6007,-4.6093,-4.6154,-1.8877,-2.0386,-2.2286,0.0,0.0,0.0,-3.06,-3.2023,-3.3375,-3.5761,0.0,-3.6462,0.0,0.0,0.0,0.0,0.0,0.0,0.0,0.0,0.0,0.0,0.0,0.0,0.0,-4.3701,-4.4023,-4.4838,-4.4895,-4.4895,-4.4895,-4.5103,-4.5103,-4.4895,-4.5103,-4.5103,-4.4895,-4.4895,-4.4895,-4.4895,-4.4895,-4.4991,-4.5192,-4.5192,-4.5192,-4.5192,-4.501,-4.4895,-4.4895,-4.4895,-4.4895,-4.4895,-4.4895,-4.4895,-4.4895,-4.4895,-4.4895,-4.4895,-4.4895,-4.4895,-4.4895,-4.4895,-4.4895,-4.4895,-4.4895,-4.4895,-4.4895,-4.4895,-4.4895,-4.4895,-4.4895,-4.4895,-4.4895,-4.4895,-4.4895,-4.4895,-4.4895,-4.4895,-4.4895,-4.4895,-4.4895,-4.4895,-4.4895,-4.4895,-4.4895,-4.4895,-4.4895,-4.4895,-4.4895,-4.4895,-4.4895,-4.4895,-4.4895,-4.4895,-4.4895,-4.4895,-4.4895,-4.4895,-4.4943,-4.4991,-4.4991,-4.5125,-4.5192,-4.5192,-4.54,-4.549,-4.549,-4.563,-4.5803,-4.5997,-4.5997,-4.6075,-1.9032,-2.0677,0.0,0.0,0.0,0.0,0.0,-3.2896,0.0,0.0,0.0,0.0,0.0,0.0,0.0,0.0,0.0,0.0,0.0,0.0,0.0,0.0,0.0,0.0,-4.2773,-4.3341,-4.3796,-4.4042,-4.4573,-4.4895,-4.4895,-4.4943,-4.4943,-4.4895,-4.4943,-4.4943,-4.4895,-4.4895,-4.4895,-4.4895,-4.4895,-4.4919,-4.4991,-4.4991,-4.4991,-4.4986,-4.4938,-4.4895,-4.4895,-4.4895,-4.4895,-4.4895,-4.4895,-4.4895,-4.4895,-4.4895,-4.4895,-4.4895,-4.4895,-4.4895,-4.4895,-4.4895,-4.4895,-4.4895,-4.4895,-4.4895,-4.4895,-4.4895,-4.4895,-4.4895,-4.4895,-4.4895,-4.4895,-4.4895,-4.4895,-4.4895,-4.4895,-4.4895,-4.4895,-4.4895,-4.4895,-4.4895,-4.4895,-4.4895,-4.4895,-4.4895,-4.4895,-4.4895,-4.4895,-4.4895,-4.4895,-4.4895,-4.4895,-4.4895,-4.4895,-4.4895,-4.4895,-4.4895,-4.4919,-4.4943,-4.501,-4.5125,-4.5192,-4.5192,-4.53,-4.5361,-4.5361,-4.549,-4.5634,-4.579,-4.5925,-4.6075,-2.0431,-2.2357,0.0,0.0,0.0,0.0,0.0,0.0,0.0,0.0,0.0,0.0,0.0,0.0,0.0,0.0,0.0,0.0,0.0,0.0,0.0,0.0,0.0,0.0,-4.1901,-4.2412,-4.2848,-4.317,-4.3625,-4.391,-4.391,-4.4251,-4.4421,-4.4421,-4.4724,-4.4895,-4.4895,-4.4895,-4.4895,-4.4895,-4.4895,-4.4895,-4.4895,-4.4895,-4.4895,-4.4895,-4.4895,-4.4895,-4.4895,-4.4895,-4.4895,-4.4895,-4.4895,-4.4895,-4.4895,-4.4895,-4.4895,-4.4895,-4.4895,-4.4895,-4.4895,-4.4895,-4.4895,-4.4895,-4.4895,-4.4895,-4.4895,-4.4895,-4.4895,-4.4895,-4.4895,-4.4895,-4.4895,-4.4895,-4.4895,-4.4895,-4.4895,-4.4895,-4.4895,-4.4895,-4.4895,-4.4895,-4.4895,-4.4895,-4.4895,-4.4895,-4.4895,-4.4895,-4.4895,-4.4895,-4.4895,-4.4895,-4.4895,-4.4895,-4.4895,-4.4895,-4.4895,-4.4895,-4.4895,-4.4919,-4.501,-4.508,-4.5125,-4.5125,-4.5192,-4.5235,-4.5275,-4.5341,-4.5507,-4.5703,-4.5815,-4.5998,-2.2265,0.0,0.0,0.0,0.0,0.0,0.0,0.0,0.0,0.0,0.0,0.0,0.0,0.0,0.0,0.0,0.0,0.0,0.0,0.0,0.0,0.0,0.0,-4.0192,-4.0988,-4.1139,-4.1503,-4.2242,-4.2375,-4.2412,-4.2412,-4.3152,-4.3587,-4.3587,-4.4289,-4.4668,-4.4668,-4.4743,-4.4781,-4.4781,-4.4857,-4.4895,-4.4895,-4.4895,-4.4895,-4.4895,-4.4895,-4.4895,-4.4895,-4.4895,-4.4895,-4.4895,-4.4895,-4.4895,-4.4895,-4.4895,-4.4895,-4.4895,-4.4895,-4.4895,-4.4895,-4.4895,-4.4895,-4.4895,-4.4895,-4.4895,-4.4895,-4.4895,-4.4895,-4.4895,-4.4895,-4.4895,-4.4895,-4.4895,-4.4895,-4.4895,-4.4895,-4.4895,-4.4895,-4.4895,-4.4895,-4.4895,-4.4895,-4.4895,-4.4895,-4.4895,-4.4895,-4.4895,-4.4895,-4.4895,-4.4895,-4.4895,-4.4895,-4.4895,-4.4895,-4.4895,-4.4895,-4.4895,-4.4895,-4.4919,-4.501,-4.501,-4.4991,-4.4991,-4.508,-4.5125,-4.5192,-4.5192,-4.5362,-4.5655,-4.567,-4.5863,-2.0815,-2.3045,0.0,0.0,0.0,0.0,0.0,0.0,0.0,0.0,0.0,0.0,0.0,0.0,0.0,0.0,0.0,0.0,0.0,0.0,0.0,0.0,0.0,-3.9815,-4.0004,-4.0757,-4.1275,-4.1465,-4.2052,-4.2412,-4.2412,-4.2583,-4.2678,-4.2678,-4.2848,-4.2943,-4.2943,-4.3625,-4.3966,-4.3966,-4.4592,-4.4895,-4.4895,-4.4895,-4.4895,-4.4895,-4.4895,-4.4895,-4.4895,-4.4895,-4.4895,-4.4895,-4.4895,-4.4895,-4.4895,-4.4895,-4.4895,-4.4895,-4.4895,-4.4895,-4.4895,-4.4895,-4.4895,-4.4895,-4.4895,-4.4895,-4.4895,-4.4895,-4.4895,-4.4895,-4.4895,-4.4895,-4.4895,-4.4895,-4.4895,-4.4895,-4.4895,-4.4895,-4.4895,-4.4895,-4.4895,-4.4895,-4.4895,-4.4895,-4.4895,-4.4895,-4.4895,-4.4895,-4.4895,-4.4895,-4.4895,-4.4895,-4.4895,-4.4895,-4.4895,-4.4895,-4.4895,-4.4895,-4.4895,-4.4895,-4.4919,-4.4967,-4.5014,-4.508,-4.5103,-4.5103,-4.5125,-4.5125,-4.522,-4.5396,-4.5545,-4.5738,-2.1243,0.0,0.0,0.0,0.0,0.0,0.0,0.0,0.0,0.0,0.0,0.0,0.0,0.0,0.0,0.0,0.0,0.0,0.0,0.0,0.0,0.0,-3.9556,-3.9647,-3.9693,-4.0108,-4.0396,-4.0484,-4.0816,-4.1043,-4.1089,-4.1505,-4.1756,-4.1825,-4.2204,-4.2412,-4.2412,-4.2848,-4.3076,-4.3076,-4.3512,-4.3929,-4.4345,-4.4724,-4.4895,-4.4895,-4.4895,-4.4895,-4.4895,-4.4895,-4.4895,-4.4895,-4.4895,-4.4895,-4.4895,-4.4895,-4.4895,-4.4895,-4.4895,-4.4895,-4.4895,-4.4895,-4.4895,-4.4895,-4.4895,-4.4895,-4.4895,-4.4895,-4.4895,-4.4895,-4.4895,-4.4895,-4.4895,-4.4895,-4.4895,-4.4895,-4.4895,-4.4895,-4.4895,-4.4895,-4.4895,-4.4895,-4.4895,-4.4895,-4.4895,-4.4895,-4.4895,-4.4895,-4.4895,-4.4895,-4.4895,-4.4895,-4.4895,-4.4895,-4.4895,-4.4895,-4.4895,-4.4895,-4.4895,-4.4895,-4.4895,-4.4919,-4.4967,-4.4991,-4.4991,-4.5014,-4.5038,-4.5038,-4.5135,-4.5304,-4.5414,-4.5596,-2.1409,0.0,0.0,0.0,0.0,0.0,0.0,0.0,0.0,0.0,0.0,0.0,0.0,0.0,0.0,0.0,0.0,0.0,0.0,0.0,0.0,0.0,-3.9433,-3.9526,-3.9623,-3.9556,-3.9599,-3.9693,-3.9623,-3.9599,-3.9693,-4.0373,-4.0835,-4.0927,-4.1594,-4.1954,-4.1977,-4.2128,-4.2204,-4.2204,-4.2337,-4.2791,-4.3493,-4.4156,-4.463,-4.4895,-4.4895,-4.4895,-4.4895,-4.4895,-4.4895,-4.4895,-4.4895,-4.4895,-4.4895,-4.4895,-4.4895,-4.4895,-4.4895,-4.4895,-4.4895,-4.4895,-4.4895,-4.4895,-4.4895,-4.4895,-4.4895,-4.4895,-4.4895,-4.4895,-4.4895,-4.4895,-4.4895,-4.4895,-4.4895,-4.4895,-4.4895,-4.4895,-4.4895,-4.4895,-4.4895,-4.4895,-4.4895,-4.4895,-4.4895,-4.4895,-4.4895,-4.4895,-4.4895,-4.4895,-4.4895,-4.4895,-4.4895,-4.4895,-4.4895,-4.4895,-4.4895,-4.4895,-4.4895,-4.4895,-4.4895,-4.4895,-4.4895,-4.4895,-4.4895,-4.4919,-4.4967,-4.4967,-4.5068,-4.5226,-4.5265,-4.5449,0.0,0.0,0.0,0.0,0.0,0.0,0.0,0.0,0.0,0.0,0.0,0.0,0.0,0.0,0.0,0.0,0.0,0.0,0.0,0.0,0.0,0.0,-3.9245,-3.935,-3.935,-3.9551,-3.9693,-3.9693,-3.9781,-3.9804,-3.9717,-3.9807,-3.9886,-3.9886,-4.0,-4.0102,-4.0211,-4.0991,-4.137,-4.137,-4.2071,-4.2469,-4.2583,-4.2678,-4.3531,-4.4895,-4.4895,-4.4895,-4.4895,-4.4895,-4.4895,-4.4895,-4.4895,-4.4895,-4.4895,-4.4895,-4.4895,-4.4895,-4.4895,-4.4895,-4.4895,-4.4895,-4.4895,-4.4895,-4.4895,-4.4895,-4.4895,-4.4895,-4.4895,-4.4895,-4.4895,-4.4895,-4.4895,-4.4895,-4.4895,-4.4895,-4.4895,-4.4895,-4.4895,-4.4895,-4.4895,-4.4895,-4.4895,-4.4895,-4.4895,-4.4895,-4.4895,-4.4895,-4.4895,-4.4895,-4.4895,-4.4895,-4.4895,-4.4895,-4.4895,-4.4895,-4.4895,-4.4895,-4.4895,-4.4895,-4.4895,-4.4895,-4.4895,-4.4895,-4.4895,-4.4895,-4.4895,-4.4895,-4.4919,-4.4948,-4.5123,-4.5342,-1.9638,0.0,0.0,0.0,0.0,0.0,0.0,0.0,0.0,0.0,0.0,0.0,0.0,0.0,0.0,0.0,0.0,0.0,0.0,0.0,0.0,0.0,-3.9137,-3.9219,-3.9298,-3.935,-3.9427,-3.9575,-3.9575,-3.9599,-3.9693,-3.9693,-3.9693,-3.9693,-3.9762,-3.9804,-3.9781,-4.0227,-4.0479,-4.0479,-4.084,-4.1275,-4.173,-4.173,-4.2393,-4.3531,-4.4023,-4.4232,-4.427,-4.4706,-4.4895,-4.4895,-4.4895,-4.4895,-4.4895,-4.4895,-4.4895,-4.4895,-4.4895,-4.4895,-4.4895,-4.4895,-4.4895,-4.4895,-4.4895,-4.4895,-4.4895,-4.4895,-4.4895,-4.4895,-4.4895,-4.4895,-4.4895,-4.4895,-4.4895,-4.4895,-4.4895,-4.4895,-4.4895,-4.4895,-4.4895,-4.4895,-4.4895,-4.4895,-4.4895,-4.4895,-4.4895,-4.4895,-4.4895,-4.4895,-4.4895,-4.4895,-4.4895,-4.4895,-4.4895,-4.4895,-4.4895,-4.4895,-4.4895,-4.4895,-4.4895,-4.4895,-4.4895,-4.4895,-4.4895,-4.4895,-4.4895,-4.4895,-4.4895,-4.4895,-4.5,-4.5182,0.0,0.0,0.0,0.0,0.0,0.0,0.0,0.0,0.0,0.0,0.0,0.0,0.0,0.0,0.0,0.0,0.0,0.0,0.0,0.0,0.0,0.0,-3.8971,-3.9156,-3.9245,-3.9192,-3.9219,-3.9433,-3.9427,-3.9458,-3.9647,-3.9693,-3.9693,-3.9647,-3.9758,-3.9781,-3.9693,-3.9826,-3.9889,-3.9889,-3.9889,-4.023,-4.0877,-4.0877,-4.12,-4.1825,-4.2905,-4.3379,-4.3436,-4.427,-4.4592,-4.463,-4.4819,-4.4895,-4.4895,-4.4895,-4.4895,-4.4895,-4.4895,-4.4895,-4.4895,-4.4895,-4.4895,-4.4895,-4.4895,-4.4895,-4.4895,-4.4895,-4.4895,-4.4895,-4.4895,-4.4895,-4.4895,-4.4895,-4.4895,-4.4895,-4.4895,-4.4895,-4.4895,-4.4895,-4.4895,-4.4895,-4.4895,-4.4895,-4.4895,-4.4895,-4.4895,-4.4895,-4.4895,-4.4895,-4.4895,-4.4895,-4.4895,-4.4895,-4.4895,-4.4895,-4.4895,-4.4895,-4.4895,-4.4895,-4.4895,-4.4895,-4.4895,-4.4895,-4.4895,-4.4895,-4.4895,-4.4895,-4.4895,-4.4895,-4.4895,-4.5065,0.0,0.0,0.0,0.0,0.0,0.0,0.0,0.0,0.0,0.0,0.0,0.0,0.0,0.0,0.0,0.0,0.0,0.0,0.0,0.0,0.0,0.0,-3.8637,-3.9101,-3.9101,-3.9219,-3.9298,-3.9324,-3.9551,-3.9647,-3.9526,-3.9647,-3.9647,-3.9508,-3.9526,-3.9575,-3.9693,-3.9826,-3.9889,-3.9889,-3.9889,-3.9908,-3.9965,-3.9965,-3.9984,-4.0116,-4.1768,-4.2469,-4.2545,-4.3398,-4.3758,-4.3834,-4.4611,-4.4895,-4.4895,-4.4895,-4.4895,-4.4895,-4.4895,-4.4895,-4.4895,-4.4895,-4.4895,-4.4895,-4.4895,-4.4895,-4.4895,-4.4895,-4.4895,-4.4895,-4.4895,-4.4895,-4.4895,-4.4895,-4.4895,-4.4895,-4.4895,-4.4895,-4.4895,-4.4895,-4.4895,-4.4895,-4.4895,-4.4895,-4.4895,-4.4895,-4.4895,-4.4895,-4.4895,-4.4895,-4.4895,-4.4895,-4.4895,-4.4895,-4.4895,-4.4895,-4.4895,-4.4895,-4.4895,-4.4895,-4.4895,-4.4895,-4.4895,-4.4895,-4.4895,-4.4895,-4.4895,-4.4895,-4.4895,-4.4895,-4.4895,-4.5014,0.0,0.0,0.0,0.0,0.0,0.0,0.0,0.0,0.0,0.0,0.0,0.0,0.0,0.0,0.0,0.0,0.0,0.0,0.0,0.0,0.0,0.0,-3.7373,-3.7764,-3.8284,-3.8375,-3.8633,-3.9261,-3.9401,-3.9477,-3.9502,-3.9647,-3.9647,-3.9483,-3.958,-3.9647,-3.9693,-3.9826,-3.9889,-3.9889,-3.9889,-3.9889,-3.9889,-3.9889,-3.9889,-3.9927,-4.0536,-4.1124,-4.1692,-4.2526,-4.3208,-4.3739,-4.4023,-4.4459,-4.4895,-4.4895,-4.4895,-4.4895,-4.4895,-4.4895,-4.4895,-4.4895,-4.4895,-4.4895,-4.4895,-4.4895,-4.4895,-4.4895,-4.4895,-4.4895,-4.4895,-4.4895,-4.4895,-4.4895,-4.4895,-4.4895,-4.4895,-4.4895,-4.4895,-4.4895,-4.4895,-4.4895,-4.4895,-4.4895,-4.4895,-4.4895,-4.4895,-4.4895,-4.4895,-4.4895,-4.4895,-4.4895,-4.4895,-4.4895,-4.4895,-4.4895,-4.4895,-4.4895,-4.4895,-4.4895,-4.4895,-4.4895,-4.4895,-4.4895,-4.4895,-4.4895,-4.4895,-4.4895,-4.4895,-4.4895,-4.4895,-4.501,-1.5247,0.0,0.0,0.0,0.0,0.0,0.0,0.0,0.0,0.0,0.0,0.0,0.0,0.0,0.0,0.0,0.0,0.0,0.0,0.0,0.0,0.0,-3.6538,-3.6909,-3.7448,-3.7503,-3.7761,-3.838,-3.8469,0.0,-3.8627,-3.9011,-3.9298,-3.9483,-3.9599,-3.967,-3.9693,-3.9739,-3.9781,-3.9826,-3.9781,-3.9758,-3.9758,-3.9804,-3.9826,-3.9826,-3.9889,-4.0211,-4.084,-4.1673,-4.2337,-4.2924,-4.3474,-4.4023,-4.4535,-4.48,-4.4895,-4.4895,-4.4895,-4.4895,-4.4895,-4.4895,-4.4895,-4.4895,-4.4895,-4.4895,-4.4895,-4.4895,-4.4895,-4.4895,-4.4895,-4.4895,-4.4895,-4.4895,-4.4895,-4.4895,-4.4895,-4.4895,-4.4895,-4.4895,-4.4895,-4.4895,-4.4895,-4.4895,-4.4895,-4.4895,-4.4895,-4.4895,-4.4895,-4.4895,-4.4895,-4.4895,-4.4895,-4.4895,-4.4895,-4.4895,-4.4895,-4.4895,-4.4895,-4.4895,-4.4895,-4.4895,-4.4895,-4.4895,-4.4895,-4.4895,-4.4895,-4.4895,-4.4895,-4.4895,-4.4895,-4.5038,0.0,0.0,0.0,0.0,0.0,0.0,0.0,0.0,0.0,0.0,0.0,0.0,0.0,0.0,0.0,0.0,0.0,0.0,0.0,0.0,0.0,0.0,-3.6147,-3.663,-3.6649,-3.6649,-3.6668,-3.6686,-3.6814,-3.6894,-3.6894,-3.7764,-3.8643,-3.9427,-3.9489,-3.9537,-3.9693,-3.9556,-3.9556,-3.9693,-3.9556,-3.9502,-3.9483,-3.9628,-3.9693,-3.9693,-3.9826,-3.9889,-3.9946,-4.0821,-4.1181,-4.137,-4.3,-4.3644,-4.3758,-4.4535,-4.4838,-4.4857,-4.4857,-4.4876,-4.4895,-4.4895,-4.4895,-4.4895,-4.4895,-4.4895,-4.4895,-4.4895,-4.4895,-4.4895,-4.4895,-4.4895,-4.4895,-4.4895,-4.4895,-4.4895,-4.4895,-4.4895,-4.4895,-4.4895,-4.4895,-4.4895,-4.4895,-4.4895,-4.4895,-4.4895,-4.4895,-4.4895,-4.4895,-4.4895,-4.4895,-4.4895,-4.4895,-4.4895,-4.4895,-4.4895,-4.4895,-4.4895,-4.4895,-4.4895,-4.4895,-4.4895,-4.4895,-4.4895,-4.4895,-4.4895,-4.4895,-4.4895,-4.4895,-4.4895,-4.4895,-4.5087,-1.4065,0.0,0.0,0.0,0.0,0.0,0.0,0.0,0.0,0.0,0.0,0.0,0.0,0.0,0.0,0.0,0.0,0.0,0.0,0.0,0.0,0.0,-3.4754,-3.5126,-3.5757,-3.5813,-3.6055,0.0,-3.6738,-3.6763,-3.6763,-3.7094,-3.7703,-3.8606,-3.8738,-3.9067,-3.9675,-3.967,-3.967,-3.9693,-3.9556,-3.9502,-3.9502,-3.9551,-3.9575,-3.9556,-3.9693,-3.9758,-3.9781,-4.0113,-4.0631,-4.1256,-4.1711,-4.2261,-4.2791,-4.3019,-4.3493,-4.4023,-4.4023,-4.4402,-4.4895,-4.4895,-4.4895,-4.4895,-4.4895,-4.4895,-4.4895,-4.4895,-4.4895,-4.4895,-4.4895,-4.4895,-4.4895,-4.4895,-4.4895,-4.4895,-4.4895,-4.4895,-4.4895,-4.4895,-4.4895,-4.4895,-4.4895,-4.4895,-4.4895,-4.4895,-4.4895,-4.4895,-4.4895,-4.4895,-4.4895,-4.4895,-4.4895,-4.4895,-4.4895,-4.4895,-4.4895,-4.4895,-4.4895,-4.4895,-4.4895,-4.4895,-4.4895,-4.4895,-4.4895,-4.4895,-4.4895,-4.4895,-4.4895,-4.4895,-4.4895,-4.5038,-1.5254,-1.5768,0.0,0.0,0.0,0.0,0.0,-2.1328,0.0,0.0,0.0,0.0,0.0,0.0,0.0,0.0,0.0,0.0,0.0,0.0,0.0,0.0,-3.3696,-3.403,-3.4866,-3.4959,-3.5144,-3.5609,-3.5646,-3.5813,-3.6166,-3.6335,-3.6812,-3.7708,-3.7845,-3.8181,-3.8697,-3.8968,-3.9138,-3.9203,-3.9357,-3.9427,-3.9427,-3.9427,-3.9427,-3.9408,-3.9575,-3.9623,-3.9623,-3.9693,-4.0106,-4.0707,-4.1067,-4.1503,-4.1939,-4.228,-4.2716,-4.317,-4.317,-4.3701,-4.4402,-4.4402,-4.463,-4.4895,-4.4895,-4.4895,-4.4895,-4.4895,-4.4895,-4.4895,-4.4895,-4.4895,-4.4895,-4.4895,-4.4895,-4.4895,-4.4895,-4.4895,-4.4895,-4.4895,-4.4895,-4.4895,-4.4895,-4.4895,-4.4895,-4.4895,-4.4895,-4.4895,-4.4895,-4.4895,-4.4895,-4.4895,-4.4895,-4.4895,-4.4895,-4.4895,-4.4895,-4.4895,-4.4895,-4.4895,-4.4895,-4.4895,-4.4895,-4.4895,-4.4895,-4.4895,-4.4895,-4.4895,-4.4895,-4.4895,-4.4895,-4.5038,-1.7393,-1.7448,0.0,0.0,0.0,0.0,-2.1105,-2.1662,-2.2182,0.0,0.0,0.0,0.0,0.0,0.0,0.0,0.0,0.0,0.0,0.0,0.0,0.0,0.0,-3.3138,-3.3863,-3.3918,-3.3956,-3.4048,-3.4141,-3.4531,-3.5293,-3.5453,-3.5923,-3.6745,-3.6878,-3.7032,-3.7279,-3.7882,-3.8216,-3.835,-3.8927,-3.9193,-3.9167,-3.9261,-3.9272,-3.9245,-3.9427,-3.9477,-3.9452,-3.9483,-3.9647,-3.9965,-4.0741,-4.1044,-4.1143,-4.1863,-4.2185,-4.228,-4.228,-4.2829,-4.3568,-4.3568,-4.4099,-4.4762,-4.4762,-4.4838,-4.4895,-4.4895,-4.4895,-4.4895,-4.4895,-4.4895,-4.4895,-4.4895,-4.4895,-4.4895,-4.4895,-4.4895,-4.4895,-4.4895,-4.4895,-4.4895,-4.4895,-4.4895,-4.4895,-4.4895,-4.4895,-4.4895,-4.4895,-4.4895,-4.4895,-4.4895,-4.4895,-4.4895,-4.4895,-4.4895,-4.4895,-4.4895,-4.4895,-4.4895,-4.4895,-4.4895,-4.4895,-4.4895,-4.4895,-4.4895,-4.4895,-4.4895,-4.4895,-4.4895,-4.4895,-4.5087,-1.9286,-1.9583,-1.9824,-1.8803,0.0,0.0,-1.9063,-1.9564,-2.0344,0.0,0.0,0.0,0.0,0.0,0.0,0.0,0.0,0.0,0.0,0.0,0.0,0.0,0.0,-3.2098,-3.2247,-3.2265,-3.2525,-3.3175,-3.3826,-3.4271,-3.4439,-3.4463,-3.4926,-3.5904,-3.5946,-3.6335,-3.713,-3.7272,-3.7347,-3.7389,-3.8126,-3.8446,-3.8364,-3.8999,-3.9137,-3.8921,-3.9219,-3.9245,-3.911,-3.9401,-3.9599,-3.9758,-3.9928,-4.0049,-4.0176,-4.0347,-4.084,-4.1446,-4.1446,-4.1977,-4.2659,-4.2659,-4.3227,-4.3929,-4.3929,-4.4383,-4.4895,-4.4895,-4.4895,-4.4895,-4.4895,-4.4895,-4.4895,-4.4895,-4.4895,-4.4895,-4.4895,-4.4895,-4.4895,-4.4895,-4.4895,-4.4895,-4.4895,-4.4895,-4.4895,-4.4895,-4.4895,-4.4895,-4.4895,-4.4895,-4.4895,-4.4895,-4.4895,-4.4895,-4.4895,-4.4895,-4.4895,-4.4895,-4.4895,-4.4895,-4.4895,-4.4895,-4.4895,-4.4895,-4.4895,-4.4895,-4.4895,-4.4895,-4.4895,-4.4895,-4.4895,-4.5087,-2.0997,-2.1087,-2.1198,-2.0363,0.0,0.0,0.0,-2.0177,-2.053,-2.1755,0.0,0.0,0.0,0.0,0.0,0.0,0.0,0.0,0.0,0.0,0.0,0.0,0.0,-3.0764,-3.1151,-3.1541,-3.1968,-3.2358,-3.2767,-3.3175,-3.3566,-3.3603,-3.4022,-3.4931,-3.5016,-3.5273,-3.5754,-3.6212,-3.64,-3.6307,-3.71,-3.759,-3.7748,-3.8127,-3.8409,-3.8621,-3.8796,-3.8796,-3.8707,-3.9027,-3.9272,-3.9458,-3.9628,-3.9739,-3.9804,-3.9889,-4.0195,-4.0555,-4.0555,-4.1105,-4.1806,-4.1806,-4.2375,-4.3057,-4.3057,-4.3644,-4.4383,-4.4781,-4.4895,-4.4895,-4.4895,-4.4895,-4.4895,-4.4895,-4.4895,-4.4895,-4.4895,-4.4895,-4.4895,-4.4895,-4.4895,-4.4895,-4.4895,-4.4895,-4.4895,-4.4895,-4.4895,-4.4895,-4.4895,-4.4895,-4.4895,-4.4895,-4.4895,-4.4895,-4.4895,-4.4895,-4.4895,-4.4895,-4.4895,-4.4895,-4.4895,-4.4895,-4.4895,-4.4895,-4.4895,-4.4895,-4.4895,-4.4895,-4.4895,-4.4895,-4.4991,-4.5194,0.0,0.0,0.0,0.0,0.0,-2.1566,0.0,0.0,0.0,-2.2701,0.0,0.0,0.0,0.0,0.0,0.0,0.0,0.0,0.0,0.0,0.0,0.0,0.0,-2.9184,-2.9834,-3.0485,-3.1005,-3.1299,-3.1336,-3.1745,-3.2711,-3.2915,-3.3287,-3.3956,-3.4218,-3.4363,-3.4363,-3.5132,-3.5427,-3.5237,-3.6075,-3.6636,-3.6956,-3.7179,-3.7619,-3.8132,-3.8328,-3.8382,-3.8401,-3.8652,-3.8892,-3.9137,-3.9526,-3.9693,-3.9739,-3.9867,-3.9889,-3.9889,-3.9889,-4.0344,-4.0953,-4.0953,-4.1503,-4.2204,-4.2356,-4.2886,-4.3587,-4.4251,-4.4535,-4.4668,-4.4668,-4.4781,-4.4895,-4.4895,-4.4895,-4.4895,-4.4895,-4.4895,-4.4895,-4.4895,-4.4895,-4.4895,-4.4895,-4.4895,-4.4895,-4.4895,-4.4895,-4.4895,-4.4895,-4.4895,-4.4895,-4.4895,-4.4895,-4.4895,-4.4895,-4.4895,-4.4895,-4.4895,-4.4895,-4.4895,-4.4895,-4.4895,-4.4895,-4.4895,-4.4895,-4.4895,-4.4895,-4.4943,-4.4943,-4.4943,-4.5125,-4.5279,0.0,0.0,0.0,0.0,-2.3052,0.0,0.0,0.0,-2.1922,-2.2107,0.0,0.0,0.0,0.0,0.0,0.0,0.0,0.0,0.0,0.0,0.0,0.0,0.0,-2.7232,-2.7325,-2.7399,-2.8068,-2.9574,-2.9686,-3.0355,-3.1857,-3.26,-3.3027,-3.312,-3.3849,-3.4221,-3.4221,-3.4433,-3.4465,-3.4272,-3.5194,-3.5521,-3.534,-3.6754,-3.7272,-3.7102,-3.8008,-3.8368,-3.8322,-3.8478,-3.8621,-3.881,-3.9324,-3.967,-3.9889,-3.9889,-3.9889,-3.9889,-3.9889,-3.9946,-4.0063,-4.0063,-4.0631,-4.1484,-4.2185,-4.2469,-4.2583,-4.2659,-4.3246,-4.3834,-4.3834,-4.4364,-4.4895,-4.4895,-4.4895,-4.4895,-4.4895,-4.4895,-4.4895,-4.4895,-4.4895,-4.4895,-4.4895,-4.4895,-4.4895,-4.4895,-4.4895,-4.4895,-4.4895,-4.4895,-4.4895,-4.4895,-4.4895,-4.4895,-4.4895,-4.4895,-4.4895,-4.4895,-4.4895,-4.4895,-4.4895,-4.4895,-4.4895,-4.4895,-4.4895,-4.4895,-4.4895,-4.508,-4.517,-4.517,-4.5192,-4.5341,0.0,0.0,0.0,0.0,0.0,0.0,-2.2206,0.0,-2.1472,0.0,0.0,0.0,0.0,0.0,0.0,0.0,-2.204,0.0,0.0,0.0,0.0,0.0,0.0,0.0,-2.6804,-2.6488,-2.6693,-2.7864,-2.7529,-2.818,-3.0299,-3.0745,-3.1541,-3.2953,-3.3324,-3.3733,-3.4197,-3.4148,-3.3998,-3.3807,-3.4137,-3.4345,-3.4509,-3.5222,-3.5941,-3.6624,-3.7052,-3.75,-3.7898,-3.8168,-3.846,-3.8796,-3.9227,-3.9452,-3.9575,-3.9804,-3.9889,-3.9889,-3.9889,-3.9889,-3.9889,-3.9889,-4.0135,-4.0612,-4.1465,-4.1711,-4.1806,-4.228,-4.2659,-4.3057,-4.3568,-4.3947,-4.4326,-4.4781,-4.4895,-4.4895,-4.4895,-4.4895,-4.4895,-4.4895,-4.4895,-4.4895,-4.4895,-4.4895,-4.4895,-4.4895,-4.4895,-4.4895,-4.4895,-4.4895,-4.4895,-4.4895,-4.4895,-4.4895,-4.4895,-4.4895,-4.4895,-4.4895,-4.4895,-4.4895,-4.4895,-4.4895,-4.4895,-4.4895,-4.4895,-4.4895,-4.4895,-4.5103,-4.5256,-4.532,-4.54,-4.5493,-2.3943,0.0,0.0,0.0,0.0,0.0,0.0,0.0,0.0,0.0,0.0,0.0,0.0,0.0,0.0,-2.1644,0.0,-2.1478,0.0,0.0,0.0,0.0,0.0,0.0,0.0,-2.5263,-2.5207,-2.6488,-2.5579,-2.6154,-2.8905,-2.9217,-3.0256,-3.2265,-3.2767,-3.3268,-3.3863,-3.3887,-3.3807,-3.3605,-3.3433,-3.3471,-3.3776,-3.4056,-3.4771,-3.5809,-3.6203,-3.6756,-3.7399,-3.7807,-3.8198,-3.8591,-3.8933,-3.9119,-3.9253,-3.9717,-3.9889,-3.9889,-3.9889,-3.9889,-3.9889,-3.9889,-3.9889,-4.0003,-4.065,-4.084,-4.0972,-4.156,-4.1901,-4.2223,-4.2848,-4.336,-4.3853,-4.4421,-4.4743,-4.4895,-4.4895,-4.4895,-4.4895,-4.4895,-4.4895,-4.4895,-4.4895,-4.4895,-4.4895,-4.4895,-4.4895,-4.4895,-4.4895,-4.4895,-4.4895,-4.4895,-4.4895,-4.4895,-4.4895,-4.4895,-4.4895,-4.4895,-4.4895,-4.4895,-4.4895,-4.4895,-4.4895,-4.4895,-4.4895,-4.4895,-4.4895,-4.5129,-4.5281,-4.54,-4.5545,-4.5613,0.0,0.0,0.0,-2.2428,0.0,0.0,0.0,0.0,-2.2955,0.0,0.0,0.0,0.0,0.0,-2.25,-2.1735,-2.1607,0.0,0.0,0.0,0.0,0.0,0.0,0.0,0.0,-2.297,-2.3145,0.0,-2.4099,-2.458,-2.7956,-2.8759,-2.9588,-3.0631,-3.2172,-3.3008,-3.3027,-3.361,-3.3807,-3.3605,-3.3309,-3.3117,-3.2969,-3.374,-3.4163,-3.4336,-3.5773,-3.654,-3.6768,-3.7434,-3.7792,-3.7969,-3.8382,-3.867,-3.898,-3.967,-3.9889,-3.9889,-3.9889,-3.9889,-3.9889,-3.9889,-3.9889,-3.9908,-3.9927,-3.9927,-3.9946,-3.9965,-4.0593,-4.1237,-4.1275,-4.2488,-4.3701,-4.3739,-4.4326,-4.4895,-4.4895,-4.4895,-4.4895,-4.4895,-4.4895,-4.4895,-4.4895,-4.4895,-4.4895,-4.4895,-4.4895,-4.4895,-4.4895,-4.4895,-4.4895,-4.4895,-4.4895,-4.4895,-4.4895,-4.4895,-4.4895,-4.4895,-4.4895,-4.4895,-4.4895,-4.4895,-4.4895,-4.4895,-4.4895,-4.4895,-4.4895,-4.522,-4.54,-4.54,-4.5545,-4.5661,-2.49,-2.5699,-2.6011,-2.3383,0.0,0.0,0.0,0.0,0.0,0.0,0.0,0.0,0.0,-2.3013,-2.2383,-2.2114,-2.1197,-2.0389,0.0,0.0,0.0,0.0,0.0,0.0,0.0,0.0,0.0,0.0,-2.3484,0.0,-2.6186,-2.7152,-2.8264,-2.957,-3.1292,-3.2451,-3.299,-3.3482,-3.3671,-3.3605,-3.3208,-3.2961,-3.2916,-3.3169,-3.3612,-3.4148,-3.465,-3.5202,-3.5789,-3.6629,-3.7106,-3.7374,-3.8095,-3.8651,-3.9127,-3.9508,-3.9758,-3.9889,-3.9889,-3.9889,-3.9889,-3.9889,-3.9889,-3.9889,-3.9889,-3.9889,-3.9889,-3.9889,-4.0097,-4.0479,-4.1067,-4.1616,-4.2185,-4.2716,-4.3057,-4.3398,-4.3985,-4.4118,-4.427,-4.48,-4.4895,-4.4895,-4.4895,-4.4895,-4.4895,-4.4895,-4.4895,-4.4895,-4.4895,-4.4895,-4.4895,-4.4895,-4.4895,-4.4895,-4.4895,-4.4895,-4.4895,-4.4895,-4.4895,-4.4895,-4.4895,-4.4895,-4.4895,-4.4895,-4.4895,-4.4895,-4.4895,-4.5239,-4.54,-4.5419,-4.5629,-4.5771,-2.5327,-2.5943,-2.6241,-2.4134,-2.3689,0.0,-2.2162,0.0,-2.3074,0.0,0.0,0.0,0.0,0.0,-2.2624,-2.2339,-2.1233,-2.0237,0.0,-1.9777,0.0,0.0,0.0,0.0,0.0,0.0,-2.2204,-2.3399,-2.2662,0.0,0.0,-2.6221,-2.7331,-2.8614,-3.0435,-3.1723,-3.2469,-3.2928,-3.3257,-3.3444,-3.3086,-3.2916,-3.2916,-3.2916,-3.3169,-3.3687,-3.399,-3.4383,-3.49,-3.6058,-3.6624,-3.6877,-3.7757,-3.8468,-3.9017,-3.9313,-3.9628,-3.9889,-3.9889,-3.9889,-3.9889,-3.9889,-3.9889,-3.9889,-3.9889,-3.9889,-3.9889,-3.9889,-3.9889,-4.0022,-4.0593,-4.0972,-4.1332,-4.1863,-4.2204,-4.2564,-4.3133,-4.3474,-4.3853,-4.4364,-4.4706,-4.4895,-4.4895,-4.4895,-4.4895,-4.4895,-4.4895,-4.4895,-4.4895,-4.4895,-4.4895,-4.4895,-4.4895,-4.4895,-4.4895,-4.4895,-4.4895,-4.4895,-4.4895,-4.4895,-4.4895,-4.4895,-4.4895,-4.4895,-4.4895,-4.4938,-4.501,-4.5281,-4.5419,-4.5475,-4.5692,-4.58]}]]